GFSGL_2pvu_pres_000.txt.gz
Presure
192 198 199 188 190 204 203 198 214 216 232 253 240 273 263 259 285 363 455 472 455 432 406 387 437 449 405 378 368 364 365 370 382 377 340 352 368 390 400 405 413 414 431
204 192 186 201 203 195 209 211 228 240 246 243 274 243 263 293 348 489 468 446 407 392 426 415 386 368 357 357 361 362 361 365 378 110 125 366 358 361 371 389 401 408 403
196 204 205 202 208 210 216 220 228 241 251 267 244 270 366 297 483 458 419 398 403 405 384 364 352 350 350 354 352 359 363 418 417 422 425 434 450 371 364 366 376 394 401
207 205 209 215 211 209 225 245 238 248 262 247 277 373 503 469 444 414 392 407 394 372 355 347 350 352 353 358 355 376 399 402 410 432 435 436 438 447 420 368 366 373 381
207 205 209 214 212 221 225 242 248 260 243 249 300 468 479 443 410 390 370 384 375 357 347 352 352 352 362 348 373 393 384 384 407 438 454 446 441 444 458 441 370 365 368
202 214 214 204 221 215 243 243 260 240 254 362 482 483 444 402 380 368 357 377 361 349 348 353 343 363 341 343 394 377 374 397 406 465 465 458 448 452 464 467 434 368 362
210 214 198 220 213 235 248 260 277 298 326 471 485 455 415 385 365 365 373 364 355 345 361 337 343 344 329 394 378 354 363 380 406 488 468 467 469 470 481 469 442 419 367
206 226 222 212 222 246 259 230 299 323 343 464 461 431 391 369 362 368 365 352 349 359 336 344 346 331 338 391 359 337 345 358 453 488 480 452 469 488 474 455 451 423 391
224 218 225 233 247 259 233 270 316 343 468 476 444 392 368 364 364 370 354 349 349 331 339 343 345 329 338 386 341 348 355 338 436 488 456 466 479 462 447 443 445 426 415
217 235 241 245 264 232 268 320 352 462 465 454 396 369 359 372 371 364 351 330 330 333 340 352 341 341 338 380 334 346 347 356 325 454 463 465 480 481 450 452 456 433 418
234 241 251 252 229 262 321 343 417 417 454 413 372 367 384 375 343 337 331 323 335 342 346 350 345 355 336 372 328 342 347 344 370 321 322 413 458 469 483 470 459 455 424
237 239 259 259 262 334 323 450 418 386 431 384 363 397 376 326 327 323 323 329 338 340 348 359 360 356 333 369 325 335 346 353 342 342 307 306 307 333 338 340 388 392 345
248 256 265 272 336 353 398 330 395 409 408 370 355 376 332 324 316 321 322 329 337 338 343 357 361 353 327 370 323 329 347 349 355 355 344 350 355 350 349 349 353 356 364
253 213 273 286 340 307 339 398 380 433 384 358 356 348 318 315 319 319 323 327 331 338 341 351 357 354 327 375 325 324 333 336 335 341 353 361 355 351 351 351 354 356 359
210 276 282 330 307 326 386 379 381 415 372 350 373 320 318 306 313 313 315 318 325 326 353 354 368 351 340 374 331 319 322 329 331 331 330 333 339 339 345 353 354 344 339
278 288 324 317 322 391 380 365 430 397 363 348 340 317 308 298 306 306 305 310 314 320 339 362 369 381 359 351 351 318 325 324 331 337 337 337 336 334 328 331 343 325 316
270 323 309 313 344 379 378 439 415 380 358 346 322 317 305 295 304 299 299 304 304 309 318 348 367 390 368 330 371 323 329 322 324 327 322 319 307 308 311 308 307 304 302
318 319 310 334 371 457 426 426 402 365 355 344 318 317 301 295 294 295 296 297 296 302 312 320 369 363 388 355 353 347 316 321 321 317 314 301 303 302 289 289 294 296 296
320 305 323 373 362 444 427 412 385 358 355 335 317 316 301 294 290 291 292 290 292 295 301 315 325 379 372 368 341 372 328 317 320 312 306 290 286 289 283 277 295 291 290
305 327 350 372 364 420 410 398 374 349 347 332 318 312 300 298 288 288 290 288 286 289 294 298 316 333 378 375 367 335 368 322 316 318 304 291 286 275 285 276 278 283 288
344 348 368 368 424 409 398 392 366 344 335 331 320 308 315 299 288 287 282 287 284 283 290 295 303 314 341 381 369 368 336 370 322 311 316 305 281 288 275 280 278 279 287
354 364 355 357 412 402 397 394 356 342 333 336 323 315 319 290 296 284 283 278 283 282 283 293 297 311 319 384 380 359 367 343 365 337 308 317 305 279 281 281 278 277 273
366 349 345 348 380 394 396 389 361 338 337 329 331 318 316 316 297 297 291 279 281 283 282 289 295 305 313 334 397 378 353 358 358 347 364 313 315 305 291 276 284 279 282
351 343 333 341 354 389 379 385 370 343 338 331 331 324 311 317 316 303 300 286 280 285 283 285 294 303 314 323 358 403 379 356 359 375 345 364 351 309 310 302 292 277 283
346 335 324 335 335 391 374 366 381 355 342 331 328 325 318 296 322 320 311 306 282 292 284 288 294 303 316 317 338 410 405 395 383 392 369 368 349 371 344 311 307 304 295
336 331 322 324 351 391 377 368 367 374 347 336 329 329 322 308 306 319 325 324 320 307 293 293 297 306 314 318 333 398 407 406 426 423 389 366 371 361 352 371 354 317 308

GFSGL_2pvu_pres_003.txt.gz
Presure
206 203 196 179 187 189 202 201 204 196 222 214 221 230 253 265 244 270 294 319 334 445 417 403 420 408 389 377 370 368 374 377 386 370 375 368 368 370 370 372 373 389 414
199 195 194 199 191 197 190 196 209 220 235 243 246 262 264 244 266 316 332 459 438 410 394 392 382 381 367 364 363 367 363 377 375 362 368 410 410 418 434 412 373 373 307
194 185 192 190 191 204 210 201 222 210 247 250 263 260 242 268 359 437 462 435 405 387 376 381 381 366 361 353 361 351 371 360 356 409 393 391 412 430 449 450 440 378 372
190 199 193 208 212 231 219 216 217 240 240 258 260 267 278 375 419 465 439 409 385 376 382 379 369 359 350 359 347 365 351 347 403 387 371 396 427 442 460 461 450 442 378
201 192 202 212 227 225 217 225 235 248 228 257 271 277 465 434 468 445 413 384 369 371 382 367 357 355 353 341 356 348 336 401 376 349 362 416 434 465 470 465 451 445 453
199 201 218 213 227 211 227 237 247 254 256 269 275 299 321 473 449 416 384 365 381 383 367 356 351 338 344 350 358 342 352 392 346 356 353 400 476 480 471 464 454 445 440
205 219 216 227 224 221 236 246 255 261 271 283 303 336 416 452 420 388 378 390 382 368 344 336 340 346 352 352 343 349 397 353 351 362 334 389 503 486 475 473 465 450 440
220 213 223 223 230 237 223 256 265 269 287 279 335 418 422 423 383 396 393 382 335 338 332 339 345 354 363 359 363 343 382 341 349 360 328 337 490 465 466 478 490 474 471
214 214 226 238 238 252 255 228 287 279 272 318 408 398 433 390 370 397 382 335 328 330 329 336 338 346 359 353 351 379 356 336 351 344 325 329 435 468 482 482 475 477 470
222 228 235 240 252 260 253 288 268 269 315 336 400 376 417 371 371 382 328 324 326 326 335 340 345 352 350 354 342 385 345 333 350 351 363 341 324 446 482 457 445 439 446
230 233 242 253 263 259 286 275 274 317 334 393 381 437 393 366 378 330 323 319 321 327 328 332 352 351 349 356 340 387 336 325 359 359 344 341 328 323 324 484 452 442 437
229 243 257 256 269 233 260 268 302 334 362 381 385 419 371 343 338 317 314 308 314 318 320 330 352 373 358 361 341 379 334 329 350 353 358 348 340 309 334 357 471 458 446
250 262 223 252 246 263 268 313 328 348 377 454 435 397 363 363 326 317 306 310 306 309 313 319 336 375 371 390 341 375 334 324 339 337 344 359 347 352 351 339 339 453 441
266 232 234 247 246 281 273 320 339 391 377 445 419 379 351 358 318 314 301 307 298 305 305 311 321 352 378 395 350 375 337 321 332 336 327 342 354 342 343 347 347 343 346
234 222 244 262 273 268 321 348 370 384 449 431 401 368 347 347 309 309 299 295 294 297 297 305 313 325 391 408 359 360 358 320 326 334 337 337 338 347 357 344 341 344 354
244 252 263 277 273 322 334 342 379 397 436 416 385 361 345 332 312 307 296 294 291 292 293 296 301 316 352 386 383 333 373 322 327 327 334 338 343 338 339 351 352 354 351
303 265 283 276 325 331 338 376 365 391 422 404 372 356 343 323 310 306 299 293 290 292 290 291 299 301 319 398 400 355 364 330 328 323 324 333 331 337 338 344 340 339 343
268 289 285 331 338 326 380 361 359 386 408 397 366 348 338 317 310 314 300 294 287 286 288 287 290 300 303 323 385 387 338 363 322 319 317 313 306 309 318 317 315 319 316
279 292 332 326 321 395 365 346 351 381 398 394 364 341 341 332 314 307 314 295 280 286 280 286 286 291 296 307 336 380 378 348 335 315 317 309 298 304 303 296 307 292 305
328 329 326 322 404 379 351 344 337 345 393 398 365 344 330 330 321 313 307 294 293 282 284 279 285 285 292 296 312 359 375 376 352 320 316 309 293 293 298 285 288 301 299
323 323 326 422 348 369 349 340 331 337 384 381 365 341 334 322 333 322 311 317 312 295 296 282 282 286 283 293 301 320 404 370 378 353 320 315 307 289 292 279 285 279 296
320 352 369 374 381 365 341 334 324 345 380 372 374 353 336 330 325 328 317 309 317 314 303 300 281 287 282 292 294 310 327 406 374 377 352 328 311 309 288 287 282 276 282
381 363 403 389 366 355 337 332 318 351 382 371 365 372 346 334 326 322 320 316 315 320 320 312 307 303 283 291 293 305 313 338 410 381 362 356 349 312 312 295 285 283 280
413 391 386 371 358 344 330 322 318 355 371 374 363 365 367 340 327 323 321 315 311 306 321 327 326 321 320 290 293 304 312 324 358 422 388 358 375 357 320 309 306 292 282
398 381 378 367 352 338 328 319 318 357 354 389 376 375 376 355 333 324 322 320 314 318 333 335 336 339 291 291 296 304 311 316 336 423 426 429 396 374 363 361 317 309 299
376 370 369 370 348 339 325 316 313 331 357 397 394 392 386 375 327 331 322 319 322 336 339 339 338 303 292 296 300 310 312 315 330 345 418 433 433 437 379 383 359 362 318

GFSGL_2pvu_pres_006.txt.gz
Presure
212 207 193 196 191 195 191 193 195 194 198 213 221 218 235 251 264 275 285 306 286 308 330 459 430 405 385 373 391 383 371 370 380 365 368 389 386 378 375 376 377 380 385
208 186 195 192 185 195 200 201 202 206 212 226 240 247 262 268 262 264 284 292 318 466 457 430 396 374 388 389 379 365 365 379 366 357 368 368 360 357 419 411 405 395 424
199 195 192 199 192 196 201 198 210 218 235 240 242 258 263 268 281 276 285 314 475 453 425 390 370 387 393 374 364 361 358 354 364 364 356 345 401 387 377 380 390 430 437
205 194 191 198 199 199 209 217 218 236 240 236 258 259 273 258 270 286 319 410 453 422 389 386 390 384 366 352 348 349 355 361 364 358 348 411 369 363 362 368 429 438 439
206 190 195 198 197 211 217 217 237 233 234 260 264 261 256 282 280 311 408 393 430 393 404 393 365 348 343 345 351 355 362 356 354 361 406 360 355 361 353 350 483 474 468
193 190 199 202 211 216 226 235 236 230 264 272 259 255 279 280 305 409 388 441 418 409 394 342 341 338 337 341 342 349 366 364 367 392 359 348 350 359 336 338 500 484 469
199 198 200 206 214 227 233 238 243 266 274 267 233 248 281 291 399 394 427 431 415 389 342 330 332 337 338 347 350 352 369 369 344 378 342 349 345 373 329 398 494 484 464
203 201 209 215 227 231 239 254 227 260 241 229 248 282 284 404 389 438 433 419 389 338 323 326 329 343 347 361 367 352 356 357 387 347 340 348 360 371 331 370 471 464 466
204 215 218 230 234 247 264 211 268 260 271 265 287 284 384 393 450 435 425 399 343 321 321 320 323 325 333 347 381 372 368 348 377 338 337 361 356 368 328 331 477 491 496
220 225 233 236 252 269 222 272 259 258 260 288 280 350 390 386 445 420 413 354 332 317 312 314 311 315 324 340 373 375 375 345 356 333 343 359 359 363 352 323 435 455 459
227 227 240 260 262 225 253 235 256 272 290 289 339 397 379 450 429 405 398 344 321 311 310 309 306 309 314 329 375 387 369 353 346 325 337 341 360 364 359 348 339 448 437
240 259 270 251 232 230 246 288 280 289 282 320 371 385 366 435 415 387 354 337 311 307 304 298 300 302 304 322 369 407 365 363 341 323 331 334 343 350 355 355 347 467 441
266 253 239 226 236 211 294 280 286 284 327 337 393 365 362 422 402 370 352 330 313 304 301 297 294 294 302 308 335 409 366 370 340 321 330 339 333 350 346 353 353 463 453
231 224 230 281 304 280 276 282 289 322 331 405 371 359 359 410 383 359 351 329 315 304 300 291 293 291 291 303 320 406 372 351 350 321 327 335 339 337 350 346 347 345 444
230 240 266 281 270 272 292 297 330 328 378 388 359 354 349 398 372 356 345 324 316 303 299 289 288 288 288 294 305 373 381 349 374 322 327 333 337 336 340 352 343 345 336
249 264 290 276 287 285 309 334 325 351 405 371 356 346 357 393 367 354 342 325 311 310 299 280 287 281 287 287 299 311 397 359 373 327 324 328 336 338 338 343 353 344 344
271 285 275 270 281 319 327 305 337 391 386 369 352 339 341 391 365 349 338 332 317 308 311 291 283 284 280 287 289 303 327 376 357 334 322 321 330 330 334 334 339 347 345
291 263 278 319 318 330 328 323 377 385 385 358 345 332 380 393 365 346 336 333 321 314 306 307 291 289 287 281 287 293 305 408 364 355 322 320 317 322 324 336 334 338 334
262 322 321 330 327 311 328 370 396 396 370 349 342 326 372 382 372 349 338 325 331 321 313 308 320 296 293 286 290 287 299 315 403 361 336 320 312 305 307 319 312 323 324
321 322 328 319 315 333 350 397 401 379 359 346 336 323 354 373 373 359 341 334 326 329 320 307 313 315 307 302 285 283 292 304 338 408 363 330 317 306 301 305 311 308 314
318 314 315 322 346 348 398 384 385 364 351 334 327 320 350 376 362 370 349 335 329 324 324 316 311 318 319 312 307 301 291 296 311 342 403 364 327 315 301 300 295 289 301
320 329 347 351 367 402 393 379 376 359 344 329 325 318 345 374 374 360 366 340 329 325 322 318 312 307 310 322 321 318 286 294 304 315 352 394 365 328 316 300 298 288 286
349 346 372 397 400 385 377 364 361 356 343 330 319 315 341 353 385 374 372 357 334 325 323 320 316 311 323 329 327 327 280 294 299 310 319 362 401 366 335 317 303 292 291
342 394 383 379 391 381 376 365 366 361 344 329 316 310 311 348 397 391 378 378 343 327 320 314 316 327 340 340 338 327 290 297 299 312 312 329 357 439 371 358 321 309 294
385 377 369 364 373 382 372 362 362 363 346 328 317 307 306 345 387 394 394 380 293 318 321 317 325 338 338 334 308 295 297 297 307 315 308 316 334 429 451 395 364 332 317
384 377 376 365 359 358 356 351 353 367 352 330 320 307 304 345 329 393 392 388 294 303 325 320 327 318 312 311 306 300 300 304 312 309 307 313 324 340 435 439 448 372 361

GFSGL_2pvu_pres_009.txt.gz
Presure
201 206 214 203 204 207 197 203 203 199 193 198 205 209 217 239 249 264 280 279 280 252 270 301 425 407 448 418 397 398 401 402 394 369 367 374 374 365 365 372 383 385 161
202 200 211 209 205 205 207 207 204 196 196 205 213 228 246 257 276 281 279 282 253 287 301 413 402 443 414 409 405 393 353 352 358 362 354 365 365 373 372 371 366 362 167
201 200 208 204 210 216 210 200 206 212 218 220 245 244 270 267 273 271 275 262 280 303 411 416 445 424 413 396 349 348 346 347 353 359 360 369 371 371 368 363 361 392 205
204 202 213 216 210 211 209 206 212 221 222 237 246 272 265 260 251 258 262 296 295 409 434 448 431 416 369 343 336 343 351 350 358 365 365 380 375 372 368 382 367 365 366
205 213 222 212 210 204 211 214 222 219 247 253 271 260 239 210 301 292 296 300 415 392 456 437 420 357 340 337 335 340 351 362 371 373 363 373 372 396 373 358 354 359 365
219 214 210 206 205 216 213 222 229 250 265 260 236 230 217 317 297 293 334 425 390 437 440 423 362 340 328 318 327 330 337 356 391 375 364 371 385 367 352 349 365 365 377
204 204 204 209 211 212 228 231 253 266 245 231 215 239 284 282 296 332 424 398 378 449 428 395 347 326 312 321 317 323 333 346 372 381 381 357 365 347 353 365 372 377 329
202 206 216 206 215 225 245 253 258 204 233 222 270 298 291 290 308 341 414 378 403 430 414 354 333 319 312 312 313 310 324 345 389 389 361 364 346 344 363 370 367 373 326
206 208 214 217 223 252 252 240 207 218 227 287 296 273 277 284 334 411 384 368 437 412 395 347 325 311 315 302 304 306 319 352 403 386 356 353 341 343 344 369 376 361 325
210 213 220 230 255 242 233 224 229 225 297 291 267 273 332 330 320 407 376 359 422 395 377 340 315 308 304 299 301 299 313 340 403 368 381 343 338 336 338 367 369 356 340
215 218 251 250 247 235 229 264 220 291 288 255 267 314 329 316 361 388 371 352 402 376 355 336 315 304 301 298 296 292 306 325 393 359 382 339 333 329 342 357 364 361 356
238 251 242 238 233 256 258 264 264 277 250 260 283 325 317 329 373 385 362 353 388 365 352 336 315 305 301 291 293 293 297 313 393 356 377 334 330 333 347 351 362 356 426
244 243 236 220 257 252 251 255 267 255 260 276 321 323 316 349 402 369 352 349 381 361 345 344 314 304 295 288 285 290 290 305 364 363 381 333 329 334 341 341 358 355 359
242 228 221 248 253 254 264 262 265 313 327 324 317 311 342 416 387 361 341 401 374 355 340 363 314 306 294 283 287 283 291 295 314 373 380 336 327 335 339 340 359 349 348
234 226 245 252 252 262 287 302 310 334 325 320 308 335 350 399 371 354 337 403 374 351 337 333 310 308 293 289 288 288 290 288 304 381 373 338 329 332 340 338 347 348 346
246 256 251 260 313 309 317 321 315 325 312 318 344 343 404 378 358 347 330 398 378 351 336 335 318 308 304 303 294 292 289 290 295 317 369 340 327 329 331 336 341 352 342
248 260 268 328 319 315 315 322 318 317 324 358 341 401 383 366 350 337 323 376 384 356 338 331 328 321 311 305 311 296 293 290 289 307 376 360 327 323 323 325 335 343 344
267 260 306 310 283 319 316 321 331 345 347 343 396 392 371 354 339 329 320 374 374 370 346 331 328 329 322 311 314 313 305 297 290 297 330 368 331 321 317 319 334 336 338
271 298 314 300 312 328 338 348 348 339 368 398 393 379 362 348 331 325 315 353 371 370 356 338 329 326 323 310 306 318 317 311 302 291 311 393 365 323 317 306 314 327 333
266 321 325 337 344 348 347 335 339 390 396 379 375 366 360 342 328 322 311 349 380 363 370 344 330 323 321 316 316 314 321 318 312 289 299 319 386 355 319 312 303 310 321
360 359 357 353 346 335 334 390 380 371 372 383 371 367 360 344 329 319 307 340 379 380 370 360 334 323 322 317 314 309 317 323 322 293 292 308 323 382 338 317 306 302 304
367 355 347 341 334 403 392 379 372 371 358 381 369 361 359 348 330 317 305 332 382 391 370 373 342 326 321 318 311 318 334 334 327 295 290 302 312 330 392 353 317 304 300
352 345 336 343 390 386 379 364 354 360 355 354 348 348 361 354 331 318 305 311 342 392 392 381 340 333 319 313 318 336 340 337 335 292 290 299 312 311 335 418 359 317 304
341 348 371 381 379 377 355 339 331 330 327 333 363 355 350 357 336 318 306 305 334 386 393 384 332 322 323 320 329 336 336 332 298 294 296 303 313 307 313 333 460 373 323
361 389 387 379 374 349 333 329 333 360 350 338 330 384 364 357 346 321 310 303 328 324 389 390 306 304 332 321 322 315 313 308 299 299 300 307 309 300 307 315 332 449 412
395 390 375 357 340 333 338 359 360 356 362 360 350 341 369 358 357 329 315 287 306 327 321 310 304 304 309 318 307 310 311 310 309 310 311 305 294 300 304 314 322 335 444

GFSGL_2pvu_pres_015.txt.gz
Presure
207 207 194 197 199 194 193 195 197 202 206 220 224 207 210 216 218 225 255 263 243 254 259 269 326 312 314 315 323 334 426 469 452 382 359 347 343 342 341 346 355 370 383
215 202 199 192 192 194 190 197 202 218 224 227 213 208 217 216 229 261 266 264 250 259 273 268 321 309 310 308 324 371 416 446 399 361 339 333 331 330 326 331 354 386 413
195 193 193 190 192 193 201 198 220 224 222 216 206 220 215 242 267 260 253 247 256 273 294 295 317 312 311 318 334 407 454 429 368 348 329 323 318 319 318 338 385 414 395
195 193 189 191 194 198 202 204 232 223 215 208 218 216 256 257 251 245 245 260 275 288 291 330 325 319 318 329 355 396 437 412 354 335 324 316 309 311 318 387 407 401 386
186 193 200 201 201 209 200 240 226 215 215 218 234 263 262 258 251 262 273 275 291 283 299 335 337 325 327 351 383 379 418 394 348 328 320 313 307 307 315 435 421 396 372
198 204 204 206 210 211 225 228 214 217 220 244 259 256 260 252 247 266 272 292 306 304 306 300 321 328 342 369 388 367 405 380 341 323 315 307 303 303 316 400 374 363 363
208 208 204 200 222 225 225 217 221 219 247 254 252 254 247 232 248 261 290 270 308 311 306 327 337 348 391 376 374 357 383 376 341 319 307 301 299 298 314 381 397 373 351
207 205 207 225 231 224 208 222 229 242 251 262 263 254 256 261 267 271 329 299 321 315 326 339 349 374 349 382 360 387 374 372 342 319 310 301 297 297 310 400 381 353 351
195 215 239 233 224 215 224 243 238 252 255 265 260 262 266 263 282 335 308 318 329 331 336 349 365 343 388 366 350 381 365 357 339 320 310 300 298 297 308 405 366 347 337
213 237 227 214 217 220 237 241 247 255 261 259 264 265 259 294 309 301 322 328 338 337 342 378 370 391 370 352 368 371 359 352 343 321 309 300 301 300 308 404 370 341 338
220 230 216 226 218 234 238 248 249 261 260 268 265 268 290 316 324 335 338 347 357 361 345 375 393 372 353 340 394 366 349 345 345 319 310 306 303 305 306 398 357 339 344
237 220 218 224 231 233 248 243 262 253 260 260 266 287 329 347 337 340 351 377 373 339 383 397 377 359 342 332 389 365 349 340 335 317 315 315 313 306 302 390 350 338 347
226 220 226 229 233 244 246 258 256 259 259 285 329 347 350 356 356 380 368 349 334 385 377 379 365 348 336 325 384 365 349 341 332 319 314 315 323 313 299 385 345 338 342
222 223 220 233 239 248 263 262 265 261 298 318 359 357 362 367 372 371 345 335 375 370 382 376 357 341 333 324 380 369 346 336 335 326 319 316 323 316 300 351 345 334 339
213 226 232 242 249 263 265 263 260 315 366 371 370 373 369 362 357 346 347 385 371 362 380 368 353 339 328 320 376 370 351 334 334 328 323 317 323 318 305 347 346 332 337
228 233 245 249 259 267 264 264 371 391 381 374 368 365 357 357 350 365 378 377 372 356 376 364 352 336 323 317 378 372 351 336 332 328 319 312 326 320 310 314 354 330 322
240 246 250 267 268 261 264 398 400 393 382 373 363 356 347 347 368 381 374 354 337 351 365 365 357 337 319 315 389 375 356 337 329 325 320 322 321 321 318 308 373 333 322
247 252 269 263 263 271 408 398 392 385 376 367 352 348 349 361 375 371 368 340 326 325 322 354 362 340 318 310 385 385 362 338 328 321 318 317 309 324 321 299 376 341 323
258 265 269 266 281 375 403 394 381 374 366 359 356 355 359 370 372 367 355 331 320 319 332 352 363 345 322 308 357 399 369 343 328 320 317 317 322 331 323 294 319 371 330
267 272 264 279 416 406 394 384 366 365 362 360 365 371 376 371 366 358 332 322 308 334 352 328 352 357 330 308 325 392 385 347 329 319 320 318 337 338 323 295 306 344 350
269 267 281 402 406 392 380 374 368 367 372 377 386 382 367 365 345 324 316 310 321 343 342 343 348 361 335 307 319 386 393 350 317 320 319 329 346 339 329 294 297 316 370
272 308 392 402 394 380 373 365 373 378 386 381 367 350 328 326 327 326 333 350 345 342 345 349 341 362 348 318 312 321 392 375 293 317 319 335 343 345 323 294 295 314 317
320 393 402 394 383 374 368 384 391 381 359 341 336 342 347 359 363 361 354 343 337 332 335 340 339 355 355 324 305 320 378 375 299 321 319 325 333 330 317 295 302 311 308
407 404 392 384 368 375 395 385 367 343 343 319 382 380 375 365 359 344 339 339 335 332 327 326 334 345 362 342 306 305 318 359 299 308 318 318 316 314 315 305 305 310 306
398 390 382 369 399 392 406 366 357 385 299 368 386 429 433 431 374 433 427 419 389 350 335 329 327 331 345 358 320 295 309 331 310 299 311 306 304 309 309 310 310 311 293
389 379 387 395 391 378 393 385 382 300 357 397 393 401 401 402 363 334 328 327 380 403 362 342 335 331 330 352 353 308 290 307 309 312 304 308 303 303 308 311 313 295 290

GFSGL_2pvu_pres_018.txt.gz
Presure
190 196 204 204 202 203 200 193 195 197 201 209 207 222 227 227 214 219 219 257 264 261 258 257 260 264 283 315 281 321 326 328 328 382 416 445 423 374 357 344 337 336 335
201 200 193 195 196 192 190 194 195 204 209 206 236 228 221 215 222 243 252 255 262 263 261 261 267 307 320 322 331 337 317 336 372 382 399 429 392 363 341 330 325 323 322
209 207 204 195 190 189 194 187 209 213 220 244 223 217 212 222 240 244 260 260 259 263 260 260 281 306 324 341 342 328 331 357 376 404 381 419 373 353 335 325 320 318 320
187 195 187 183 188 189 199 213 203 214 234 219 210 217 200 241 241 259 260 255 259 268 282 303 310 324 319 335 344 354 398 420 363 384 397 410 368 346 328 318 316 311 314
198 187 185 192 196 207 211 198 213 220 233 214 209 222 230 246 258 263 261 262 265 293 313 317 333 321 346 348 375 389 359 397 384 367 402 402 360 341 319 315 312 303 310
191 191 189 192 208 209 205 210 217 245 218 205 228 234 242 249 266 263 264 271 286 318 292 328 339 358 354 357 374 361 405 386 365 357 388 380 357 335 321 314 308 304 305
195 182 207 206 201 205 211 216 234 221 221 224 233 241 246 266 264 261 263 279 314 334 336 344 361 368 403 359 356 401 385 368 354 388 374 366 348 332 317 312 307 307 309
196 204 203 197 205 215 202 225 221 220 225 229 239 244 259 264 260 261 273 315 346 346 349 363 391 376 363 356 401 382 370 354 347 381 367 354 354 332 312 308 304 310 308
205 196 197 206 213 215 223 244 220 227 235 240 246 253 264 260 262 278 326 345 348 370 368 384 370 353 388 393 383 370 355 343 380 372 357 352 353 326 312 306 304 307 305
205 198 209 212 215 221 247 222 226 237 240 247 248 261 265 262 276 334 356 359 377 372 377 369 350 376 373 379 375 360 345 334 392 367 353 349 340 322 316 315 316 315 306
202 213 211 196 221 241 219 227 235 240 246 248 259 268 257 273 319 371 375 376 369 371 369 356 353 382 371 377 364 350 341 329 384 363 348 343 336 321 318 322 337 318 327
212 211 216 219 249 219 227 229 239 246 244 257 263 260 268 320 392 384 374 372 369 364 358 353 376 372 378 371 358 346 336 323 384 358 343 339 331 322 319 319 325 324 355
213 217 221 243 225 227 229 240 243 242 255 253 257 272 314 398 386 385 377 372 360 353 359 377 371 357 373 368 355 342 333 321 385 364 343 336 331 326 320 323 324 318 363
217 224 246 221 230 214 239 243 241 252 249 264 272 313 403 396 386 381 371 358 352 356 371 375 353 334 325 368 356 342 331 322 383 364 343 337 332 325 316 326 324 306 361
230 251 220 230 235 240 245 241 248 256 266 269 298 403 401 391 380 366 358 354 355 359 367 370 344 324 319 353 361 343 328 323 387 368 342 334 329 322 318 332 327 306 362
233 224 228 237 244 244 242 246 256 269 272 282 409 402 387 377 359 357 358 355 359 364 366 364 338 319 332 328 363 345 326 319 398 374 344 332 325 322 322 329 329 304 366
226 226 241 247 243 244 251 260 274 273 296 404 400 386 375 364 361 359 358 363 366 372 365 360 326 320 341 335 350 350 328 317 408 376 346 333 324 321 321 318 330 301 383
235 246 247 241 246 256 263 275 283 307 394 399 384 373 364 360 358 364 366 374 375 365 362 342 323 311 325 342 333 359 331 314 379 381 351 332 327 321 318 329 331 299 334
252 245 245 252 260 266 275 284 316 404 401 394 382 365 344 355 369 375 373 370 353 338 323 319 317 327 340 347 335 358 336 314 329 391 357 334 323 322 319 342 331 305 309
255 253 258 262 267 277 288 417 414 403 397 384 373 357 369 381 387 357 334 325 326 323 328 333 335 345 343 346 341 348 346 317 319 398 363 301 323 320 329 350 331 302 293
254 261 260 276 280 302 419 413 405 394 383 373 371 388 380 373 339 331 364 361 363 359 357 354 350 342 335 336 339 333 358 321 315 383 375 294 322 319 338 347 335 309 295
269 267 278 285 364 426 414 403 392 379 375 394 384 383 394 359 376 293 371 364 366 362 355 353 340 332 327 330 330 333 362 326 310 322 391 335 323 320 329 345 336 304 297
273 283 296 429 426 414 401 385 377 388 389 381 379 381 382 378 300 326 391 428 410 352 345 340 335 335 333 330 325 327 353 341 309 313 370 307 322 318 322 323 322 307 300
288 310 439 426 411 394 383 392 395 385 388 377 402 387 366 387 324 354 376 404 413 425 416 412 406 374 351 337 326 323 324 356 319 305 317 357 303 316 309 314 311 312 307
442 429 411 396 392 397 395 387 394 385 388 390 391 376 395 372 356 349 362 366 383 353 332 325 324 325 400 357 338 329 324 341 336 310 300 332 313 303 309 302 308 309 308
412 402 399 407 400 393 429 447 432 419 406 401 393 396 367 354 348 391 369 346 336 331 328 327 336 336 333 395 360 342 328 319 352 320 304 297 309 312 306 306 301 307 310

GFSGL_2pvu_pres_021.txt.gz
Presure
190 193 188 188 193 203 203 193 196 195 192 189 192 207 214 214 224 238 218 210 220 232 241 253 255 260 262 276 299 328 340 348 354 357 384 397 411 377 394 395 384 410 370
190 181 191 200 209 196 191 183 194 194 188 193 207 210 217 222 244 224 203 228 240 242 245 267 262 261 280 311 335 342 343 351 365 428 419 369 404 414 393 372 406 392 356
184 194 199 203 189 195 188 185 193 179 197 206 205 215 220 230 227 205 231 239 243 248 262 262 258 279 316 337 348 351 355 381 398 374 364 421 399 383 370 391 399 370 351
189 194 194 197 183 183 183 192 204 202 197 205 212 218 219 232 199 228 238 242 248 254 256 264 287 316 348 363 366 369 398 386 365 401 410 391 376 364 358 388 386 361 344
192 194 192 191 185 183 192 200 205 192 205 208 218 216 239 191 227 238 241 244 251 258 268 282 308 361 369 378 388 394 380 363 414 398 385 372 361 352 389 378 378 348 342
197 192 190 190 185 192 205 202 193 207 210 218 218 240 197 226 238 244 242 250 257 264 274 293 358 373 399 390 383 377 362 394 378 388 370 356 345 389 375 366 376 349 335
191 191 196 194 192 204 203 195 207 213 216 220 245 215 229 240 242 244 246 252 264 271 280 323 392 395 392 385 371 363 390 396 389 372 356 345 340 378 364 355 368 348 334
188 193 193 200 204 201 204 207 214 213 224 249 219 226 241 240 244 246 249 259 268 278 304 399 397 388 383 369 361 383 382 379 383 369 352 339 389 368 354 350 359 340 328
193 195 193 205 200 209 207 216 209 226 250 221 225 236 242 242 244 248 257 265 274 299 373 399 395 381 371 357 384 380 373 387 375 361 349 332 390 364 347 350 353 330 324
207 190 203 199 208 203 215 206 223 249 221 231 230 245 240 242 249 254 264 272 290 323 402 396 380 369 356 366 382 368 348 385 368 355 342 329 389 356 342 340 332 320 316
203 200 200 209 202 215 208 224 253 221 225 230 245 237 242 251 249 265 273 285 330 400 397 383 364 359 362 370 379 351 334 377 366 351 334 332 382 355 343 336 325 322 320
199 202 211 212 215 215 228 252 221 226 235 246 241 243 248 251 267 272 284 333 394 394 385 365 354 360 361 369 372 343 330 344 367 350 330 335 380 351 340 336 327 324 319
203 210 209 216 218 238 232 222 226 237 241 245 245 247 254 270 274 287 339 391 393 380 369 359 358 356 364 368 369 336 325 333 368 349 326 336 385 350 339 336 326 320 326
212 209 216 221 248 215 228 225 240 240 242 248 250 257 274 282 296 348 391 386 381 369 362 356 351 356 364 370 366 334 316 343 354 352 326 331 388 350 337 331 323 320 333
214 218 230 233 217 228 222 243 238 249 253 255 258 277 283 319 400 393 385 380 375 367 355 350 353 359 365 366 360 325 314 346 335 356 330 324 389 349 333 326 323 323 319
221 237 220 220 225 228 244 249 253 256 258 261 277 285 350 412 401 387 385 379 371 355 351 359 360 366 363 358 331 314 310 335 336 360 335 319 395 353 332 324 321 322 324
242 221 226 227 242 241 251 258 260 255 262 269 285 426 415 403 397 388 379 369 362 356 363 367 366 342 318 316 316 316 324 335 343 355 340 318 402 364 333 322 323 319 336
218 230 230 215 240 256 254 260 262 271 285 284 434 424 409 396 382 372 367 362 380 380 369 343 318 324 325 323 323 325 334 339 349 340 347 319 379 371 336 323 324 320 340
228 236 225 241 259 253 264 266 275 285 291 449 441 417 398 383 369 367 376 384 377 367 360 350 294 365 355 345 342 342 343 333 347 333 351 320 328 375 341 325 320 346 337
242 244 246 260 254 265 270 277 288 299 447 424 406 390 388 390 390 387 379 374 386 382 375 293 322 361 364 362 355 350 339 330 339 330 354 322 319 390 338 326 322 351 335
245 250 255 261 270 274 281 291 310 427 415 407 404 400 395 391 389 381 388 364 388 375 372 302 362 425 349 349 351 345 332 327 326 332 360 326 315 388 345 321 324 348 338
252 260 268 273 278 282 292 337 421 425 422 410 397 390 396 410 394 376 378 399 372 360 368 363 370 417 399 352 341 335 331 328 327 327 359 337 311 329 362 325 324 343 345
262 272 277 280 286 295 400 418 423 409 400 402 427 447 446 432 416 396 393 388 389 382 357 346 360 400 425 393 351 342 337 334 329 324 325 350 314 315 386 306 323 323 328
277 280 277 290 301 428 426 417 406 409 398 435 449 441 431 418 405 401 391 385 396 361 347 338 352 384 378 355 338 338 384 355 340 325 323 356 327 307 332 305 311 310 315
281 278 292 304 437 422 413 406 471 432 419 437 419 400 390 383 379 375 368 362 357 350 349 389 358 344 327 324 325 331 325 392 354 336 326 320 348 310 306 377 301 310 305
289 299 341 438 416 432 397 429 452 428 428 420 395 405 466 450 444 442 438 430 417 409 396 388 367 345 327 327 327 315 309 324 380 348 332 323 339 333 303 305 317 305 307

GFSGL_2pvu_pres_024.txt.gz
Presure
188 193 201 193 194 185 184 187 190 200 203 202 195 192 192 187 204 208 220 224 233 251 224 223 250 248 247 249 257 271 287 309 357 436 416 398 393 387 375 417 426 414 403
204 198 194 193 190 188 190 196 199 202 190 194 187 196 194 205 202 220 217 228 252 224 226 232 249 242 246 255 271 280 304 346 434 411 398 388 377 412 411 401 393 388 377
200 197 192 191 192 189 200 198 200 192 191 200 194 197 204 214 217 214 227 252 225 229 227 251 244 243 255 268 282 296 326 424 415 394 378 383 398 405 396 385 375 368 364
191 190 192 190 194 197 194 196 184 191 192 195 195 204 212 213 216 227 251 224 226 225 250 245 243 255 264 283 287 315 427 410 398 378 397 397 389 393 383 373 356 352 393
194 193 196 194 192 197 199 185 186 193 182 198 202 214 209 216 228 253 220 221 224 247 243 247 254 262 284 285 303 408 408 394 379 387 392 387 391 383 374 362 351 397 379
192 192 192 191 201 190 189 184 194 205 207 195 216 212 214 228 253 217 224 228 243 237 249 253 260 280 283 302 338 409 393 377 368 390 386 365 385 371 359 350 351 386 370
193 192 193 201 193 191 186 194 197 206 200 213 213 217 226 237 217 226 229 238 241 248 255 260 275 284 306 339 408 393 379 361 369 388 363 367 378 364 348 337 398 375 363
194 194 191 199 192 196 195 204 200 210 206 212 217 225 225 217 225 226 238 243 252 254 260 269 282 305 338 391 388 379 366 358 372 381 352 336 375 361 343 344 383 364 359
191 187 192 188 199 205 204 206 213 206 214 216 225 216 216 223 223 238 254 252 255 259 268 278 299 372 394 385 377 368 357 361 374 371 345 331 376 357 338 394 373 357 352
192 190 186 202 173 207 213 207 211 214 216 223 228 215 221 224 238 250 254 258 263 258 280 293 363 387 381 379 369 358 348 360 371 366 339 334 379 356 334 400 367 349 344
192 198 203 183 210 206 205 216 210 215 222 227 217 217 227 238 249 252 257 261 266 284 293 363 398 388 377 371 363 352 350 358 369 365 332 338 371 356 332 403 370 346 344
203 204 205 207 205 207 215 211 215 224 214 218 216 226 242 248 253 253 260 265 289 297 385 403 392 384 375 364 359 348 354 360 365 365 330 312 340 358 330 405 368 344 340
204 202 206 209 213 214 212 215 224 211 221 214 228 244 245 250 253 262 269 287 297 424 407 396 387 377 369 356 349 357 361 365 362 363 322 316 343 362 329 366 367 340 333
203 214 207 214 214 213 215 225 206 223 227 231 244 247 252 259 262 273 286 306 430 417 403 396 382 365 357 351 353 364 368 365 351 320 318 324 346 364 332 364 366 340 330
216 216 215 217 215 218 226 218 220 235 238 248 247 255 264 267 275 288 313 433 425 412 400 387 366 355 356 359 367 373 342 316 314 315 321 325 347 354 335 329 370 337 327
220 217 222 221 222 220 224 217 238 246 251 248 260 267 278 287 292 314 439 413 397 385 381 376 365 360 372 373 370 341 292 324 323 321 324 331 345 342 339 325 377 336 326
224 227 222 224 226 226 234 240 253 233 249 254 263 276 281 297 319 418 410 405 397 385 381 383 385 379 368 362 374 367 289 359 343 332 334 340 342 337 344 323 381 338 323
220 226 228 229 227 240 241 256 258 259 263 273 277 287 300 356 425 421 412 403 398 388 383 379 375 372 373 351 373 369 292 363 362 348 342 347 338 332 346 320 379 341 324
229 229 235 233 244 248 257 263 265 266 280 280 295 309 383 431 424 407 393 394 394 390 383 379 376 379 373 376 369 368 357 347 357 356 347 341 335 330 348 319 381 341 324
232 237 241 253 257 263 267 267 271 274 281 302 321 431 434 419 402 407 400 400 426 430 422 399 363 365 379 358 365 364 350 379 347 349 344 331 329 329 350 318 386 344 307
245 254 258 256 272 270 267 272 267 285 301 326 443 424 429 400 468 433 423 453 442 434 415 403 383 390 358 376 365 351 359 413 352 341 334 330 324 324 352 318 366 350 314
248 259 260 274 265 266 268 267 286 305 335 439 420 410 398 475 440 421 431 412 400 414 407 391 386 370 377 368 350 347 396 410 354 338 333 330 324 322 356 323 315 366 321
264 274 269 256 260 263 271 293 309 339 429 412 405 391 458 441 434 419 412 394 382 376 373 374 376 378 373 353 338 346 400 420 362 345 341 335 328 321 328 339 310 381 305
266 255 253 264 264 284 302 321 355 428 407 384 398 373 454 412 390 378 385 388 466 462 448 397 368 355 358 344 336 367 347 326 322 319 381 359 339 323 319 353 312 320 306
253 267 269 272 290 311 328 426 413 412 387 419 386 368 427 383 370 357 353 359 361 358 353 350 422 405 376 361 366 372 339 322 321 337 328 391 357 328 321 334 329 303 321
264 266 289 298 312 332 421 411 396 407 380 391 376 370 408 392 369 351 363 357 464 549 436 381 362 345 383 400 381 370 344 323 321 321 309 323 381 341 333 321 350 310 309

GFSGL_2pvu_pres_027.txt.gz
Presure
211 206 202 201 194 203 206 192 203 196 193 193 195 197 194 195 193 194 191 199 214 215 222 232 229 224 232 229 249 243 263 265 266 283 297 354 424 413 396 400 406 403 403
203 203 199 204 208 190 194 193 191 194 195 191 194 200 195 184 195 193 202 213 220 223 231 228 225 234 228 248 249 261 263 270 276 293 325 418 404 390 387 411 401 392 404
203 206 204 191 198 195 196 194 192 191 196 196 201 184 185 196 193 202 209 215 223 228 242 226 230 231 246 246 257 260 268 276 294 319 411 401 386 375 397 390 373 399 388
199 197 193 200 201 196 188 192 194 198 198 194 185 192 201 202 206 214 217 224 227 237 226 219 234 243 244 259 259 265 270 291 310 400 399 388 374 374 394 372 359 388 378
198 198 201 196 195 194 196 202 200 199 189 195 194 200 204 208 212 218 219 225 230 223 225 231 236 237 254 256 264 271 286 304 394 395 388 375 362 378 379 359 346 377 367
199 198 194 194 194 197 193 195 193 188 192 192 202 187 209 208 218 218 225 229 217 223 227 231 241 239 259 265 270 283 300 351 396 390 377 364 355 379 368 350 342 374 355
196 193 195 193 190 193 194 194 194 194 194 202 181 204 211 216 218 219 227 215 217 227 230 243 236 256 266 272 277 293 332 400 389 381 370 356 358 373 363 342 335 371 353
194 190 187 194 193 193 194 198 192 196 203 202 204 210 213 215 218 220 222 217 224 233 239 244 257 265 272 278 287 333 406 391 386 376 366 351 359 371 361 332 351 363 348
191 193 193 193 195 199 198 195 199 197 205 216 210 213 216 215 215 225 218 220 233 238 248 250 266 268 282 289 319 412 399 384 379 373 356 355 364 369 362 325 348 360 342
193 193 195 191 194 196 195 199 197 211 216 218 215 215 217 218 218 227 221 233 242 249 250 264 268 279 291 318 420 405 391 383 375 365 351 360 365 367 364 321 341 359 339
193 192 192 200 198 198 202 205 215 219 220 218 216 223 211 218 231 221 233 244 259 253 265 268 276 297 318 421 411 395 384 379 366 356 356 365 367 363 361 325 340 367 339
199 201 200 203 204 209 217 218 224 207 217 219 221 214 223 230 226 232 246 262 259 267 267 268 307 328 427 412 401 383 377 367 360 357 363 370 361 349 324 325 348 372 339
203 204 205 213 216 218 219 224 222 218 222 217 222 226 226 228 235 248 266 263 269 267 270 310 369 412 400 388 383 375 369 365 362 366 369 362 317 318 322 328 347 370 341
217 219 220 218 216 218 222 218 217 221 222 226 228 227 233 236 254 272 264 268 268 269 316 424 418 407 395 383 374 370 368 368 367 370 358 325 292 325 326 327 345 362 343
221 222 221 222 223 222 217 224 225 227 231 231 231 242 258 272 272 268 270 297 274 323 431 425 415 407 391 382 375 373 372 374 368 359 368 345 290 339 333 333 347 355 339
223 219 218 219 223 226 227 231 236 239 239 243 258 270 278 268 274 267 268 293 336 438 424 417 397 388 384 378 373 368 367 366 361 373 366 358 293 355 343 337 349 353 336
221 225 227 235 238 240 243 244 242 248 254 262 275 269 269 266 285 275 327 368 444 417 404 400 378 401 387 378 379 373 373 366 361 373 362 358 352 357 351 346 345 350 332
226 217 217 227 238 242 248 251 255 261 273 268 269 255 267 271 281 331 447 434 411 397 397 442 441 416 392 402 396 390 376 366 367 367 362 354 345 351 350 346 341 352 330
235 234 238 240 246 252 258 265 268 270 271 275 265 268 265 313 327 443 418 408 404 425 474 442 417 437 438 422 412 398 364 358 375 346 363 350 347 344 347 337 335 357 329
238 243 248 249 259 271 267 272 265 258 271 264 264 264 313 331 437 412 387 406 392 443 438 432 422 412 422 417 400 384 371 374 356 367 358 339 367 344 342 328 332 359 328
246 249 257 271 271 267 266 268 274 259 262 262 277 308 333 431 438 414 419 393 376 408 386 383 376 386 377 388 394 382 369 366 369 353 342 427 363 342 334 326 330 359 327
252 259 261 262 268 269 263 255 259 260 260 297 310 326 425 433 426 423 393 383 369 390 380 359 350 379 395 379 364 389 372 381 355 338 357 402 357 338 332 329 328 343 329
252 255 260 274 280 256 253 262 264 264 301 316 328 419 427 418 404 395 379 377 403 401 377 360 352 358 357 350 388 368 358 377 340 335 385 410 356 338 333 331 328 320 343
250 254 285 273 256 261 262 263 281 305 317 361 414 413 410 401 390 374 406 391 448 409 384 365 353 351 346 354 350 380 368 359 340 337 353 383 326 349 343 336 332 319 344
253 259 258 265 264 260 276 293 307 319 412 409 396 405 394 387 398 414 402 458 434 408 390 380 369 438 431 403 374 347 344 370 356 348 340 322 323 322 386 353 339 321 330
259 266 259 255 276 289 300 312 350 415 407 390 392 395 381 381 385 421 461 438 412 396 381 372 417 500 454 418 394 367 342 379 383 375 345 323 320 323 376 382 348 330 319

GFSGL_2pvu_pres_030.txt.gz
Presure
215 219 219 218 217 206 206 203 198 210 195 204 198 194 194 195 196 196 196 195 199 200 208 205 208 206 220 211 233 222 227 242 244 257 257 276 280 290 308 422 415 404 391
215 233 204 213 214 204 200 202 197 196 200 196 191 193 193 195 195 193 191 190 199 203 204 204 207 220 223 224 237 231 234 246 253 256 273 278 283 295 416 413 403 393 385
205 216 216 212 205 211 199 197 197 196 193 192 193 192 191 192 195 196 195 199 202 203 203 207 217 219 225 225 235 228 244 248 262 263 276 276 289 330 412 403 393 383 392
210 221 210 205 196 193 197 198 195 193 191 193 191 190 192 190 198 195 200 202 202 195 217 219 219 225 227 224 236 233 248 261 263 276 273 282 325 414 403 395 385 369 391
223 219 211 195 195 197 198 195 193 192 191 189 194 190 195 202 197 203 199 203 211 220 220 217 230 224 225 239 233 242 251 269 270 272 277 310 418 403 393 390 375 369 388
221 223 202 198 196 197 191 192 190 185 195 191 193 196 201 195 203 202 203 212 219 221 221 227 220 228 231 238 237 252 270 269 276 272 290 418 407 391 385 383 363 373 384
226 216 194 195 193 193 193 190 193 193 191 196 193 200 198 201 202 205 213 222 221 220 227 218 227 232 236 237 254 272 270 275 274 287 421 407 400 386 381 367 360 373 381
225 196 194 192 193 193 192 197 194 198 197 194 201 196 203 201 211 218 225 218 221 226 220 227 232 236 242 256 274 273 273 285 285 335 409 398 389 381 370 361 364 372 379
199 195 194 193 197 199 195 197 195 191 203 193 199 202 206 215 219 222 221 219 225 224 229 234 239 246 266 274 272 274 281 282 337 405 401 394 380 371 361 360 368 373 370
195 196 198 196 195 196 197 195 199 194 201 204 206 216 221 221 225 224 226 229 231 237 239 243 253 267 276 268 276 291 294 399 400 397 385 380 369 366 358 366 372 358 317
192 193 195 197 200 197 201 200 204 209 215 218 226 220 224 225 226 231 238 246 248 243 251 261 270 272 264 276 276 358 408 398 394 388 381 373 366 365 364 370 367 324 320
202 203 201 201 205 206 214 218 217 226 229 222 224 224 228 234 238 240 241 247 255 259 268 276 268 267 271 288 415 420 408 397 388 385 376 369 367 367 368 365 350 309 327
209 212 214 219 219 214 230 232 220 220 218 224 224 225 219 237 250 251 249 251 266 270 275 268 266 275 324 440 433 418 392 391 381 379 369 367 365 367 366 358 362 343 309
218 219 221 230 231 216 214 224 228 222 224 224 224 237 239 241 244 251 269 267 275 263 260 260 277 348 457 432 409 385 374 384 366 371 371 367 360 366 358 362 358 363 356
228 198 217 215 222 222 213 205 223 228 231 237 240 239 249 272 269 268 267 271 267 262 265 293 396 442 422 395 395 380 373 372 366 379 374 363 355 359 361 345 357 360 359
205 205 210 231 228 206 213 223 219 238 240 237 253 269 270 269 281 275 262 265 270 277 309 439 441 426 421 410 383 491 458 404 399 380 369 371 358 361 347 360 355 353 357
224 224 234 234 223 217 217 232 245 243 240 251 252 258 254 256 257 260 268 262 283 307 452 446 449 431 404 384 449 443 432 414 393 380 382 375 362 346 360 356 352 344 354
214 227 226 230 234 228 235 245 240 248 247 251 252 254 257 263 267 266 271 288 327 450 438 433 428 418 385 370 395 430 433 436 416 398 391 377 358 346 356 350 349 341 349
233 221 232 236 228 242 241 245 248 254 254 257 255 260 264 256 261 298 317 324 443 428 418 411 400 388 375 389 380 365 360 418 415 401 389 369 347 357 343 353 345 344 350
229 232 237 240 243 242 246 250 252 254 260 252 252 254 255 268 302 317 322 438 417 416 404 392 380 365 382 401 374 355 355 376 396 389 375 358 362 350 349 346 370 348 345
239 239 237 242 249 245 243 248 251 261 257 258 251 257 281 311 315 349 433 414 403 405 392 400 419 400 384 396 373 358 353 361 372 377 361 368 357 355 345 337 383 346 335
242 250 256 250 239 243 244 253 264 259 252 250 264 287 315 317 352 409 413 393 403 397 386 392 481 455 428 395 372 358 346 354 338 368 377 360 359 344 333 403 364 343 330
256 249 242 229 242 244 260 265 254 251 262 270 288 308 318 358 394 413 388 320 398 388 390 381 454 432 415 393 376 361 348 339 343 353 358 371 346 333 365 390 351 336 330
243 244 246 241 253 262 260 253 259 267 279 292 311 326 347 419 410 385 371 393 398 408 396 374 425 404 390 384 381 373 357 345 375 344 365 360 341 331 378 394 345 334 329
254 245 248 253 259 261 258 264 276 289 295 327 334 367 418 402 382 376 391 406 453 425 395 385 399 366 341 420 414 410 412 405 386 359 340 359 344 335 334 318 318 337 335
244 253 256 266 264 265 273 283 293 313 322 346 416 414 398 385 381 382 387 462 440 416 392 427 388 361 370 400 401 455 419 402 391 368 340 376 354 340 332 319 321 323 361

GFSGL_2pvu_pres_033.txt.gz
Presure
205 206 165 210 230 216 212 222 209 211 212 208 205 201 199 198 194 193 193 194 193 194 192 194 201 206 202 210 204 215 223 231 235 234 230 243 251 258 274 285 292 286 294
135 204 208 221 224 210 229 214 211 211 202 196 193 195 194 194 191 187 192 194 193 192 191 200 201 201 207 207 216 225 227 231 231 235 242 251 258 274 284 291 286 292 353
211 222 243 217 226 210 213 213 216 202 194 194 194 192 191 191 189 192 193 185 194 195 200 201 201 208 205 218 217 226 229 230 239 250 256 262 275 282 288 280 288 343 422
222 214 210 209 207 213 226 218 213 210 195 192 191 189 191 191 193 196 188 194 201 203 194 205 203 214 222 223 226 233 234 247 257 257 268 272 279 273 281 288 335 423 409
218 213 219 213 237 216 214 216 222 197 191 191 190 193 191 193 198 189 197 198 203 187 205 206 215 217 225 229 236 246 251 252 260 268 267 281 274 279 290 327 409 405 395
203 204 209 210 212 215 217 216 215 212 208 193 193 193 195 195 193 200 200 198 206 200 214 217 227 226 233 234 242 245 258 253 255 268 276 267 275 287 310 409 405 394 393
194 202 204 205 226 225 225 223 209 193 195 193 192 197 191 199 200 203 205 205 216 217 231 226 228 228 226 247 253 248 244 265 271 269 263 264 289 304 408 398 395 387 380
201 255 255 202 199 217 217 214 195 196 198 200 199 201 205 205 205 207 219 219 226 225 227 230 225 240 248 246 248 275 272 268 261 263 266 290 316 410 404 397 385 382 374
201 202 199 188 189 187 185 190 195 201 202 204 206 205 205 212 221 218 225 224 233 228 229 243 243 236 265 263 271 272 260 261 262 280 290 350 419 408 395 388 380 379 370
202 200 198 205 205 205 203 203 207 210 205 206 210 219 220 214 225 217 228 214 232 229 241 240 232 263 267 271 265 259 261 265 285 297 445 439 412 397 378 380 374 372 370
212 210 212 213 211 212 213 211 212 213 216 220 218 224 215 219 225 213 221 224 234 240 239 247 242 249 250 255 261 260 283 294 317 429 413 406 388 361 364 376 366 367 368
200 220 215 215 213 198 204 218 212 218 215 219 205 210 231 230 218 219 225 239 238 239 242 255 249 255 258 256 280 298 312 353 436 418 397 380 377 374 366 363 357 361 363
219 216 200 194 217 208 218 216 216 221 221 208 233 239 245 224 232 234 232 235 245 267 253 253 252 250 267 300 310 328 441 439 435 430 404 391 373 359 364 360 367 369 361
231 188 184 195 187 221 220 211 212 204 211 211 202 223 229 237 229 238 233 241 246 257 253 250 256 274 298 325 360 444 434 430 428 410 386 373 436 410 384 370 371 364 361
228 231 225 216 216 212 219 234 226 229 234 221 225 235 234 236 239 243 242 251 266 251 254 264 279 302 340 372 445 419 418 410 412 383 379 462 433 414 392 385 364 364 361
229 222 213 215 237 240 239 232 237 222 230 236 238 237 239 248 244 242 262 261 254 261 269 284 298 340 367 440 427 410 396 381 374 372 376 424 423 407 387 370 368 364 358
253 234 213 241 239 230 230 227 229 232 229 238 251 248 240 241 244 269 257 257 266 269 280 303 333 362 442 415 327 395 392 382 364 381 377 355 408 389 379 379 372 366 344
240 219 250 241 229 223 223 233 232 227 229 245 241 240 242 243 256 265 260 269 267 280 303 332 340 441 419 386 409 391 402 414 385 379 397 352 419 408 392 381 373 352 354
225 222 241 222 228 224 233 231 227 235 246 250 250 243 249 256 265 268 268 267 278 300 333 328 440 419 397 415 401 392 395 400 383 379 355 349 395 401 390 379 357 350 350
215 230 232 226 240 247 228 229 239 240 257 249 264 249 253 263 272 268 268 281 307 331 341 428 420 399 408 460 421 392 464 442 405 374 357 348 373 385 375 360 354 350 348
234 234 235 242 233 225 241 241 243 252 252 252 250 253 262 274 268 270 286 318 330 349 427 412 401 401 398 455 414 437 441 424 390 369 353 347 365 370 359 361 356 353 346
223 231 226 237 238 235 252 252 252 252 247 257 257 260 275 267 277 286 317 337 359 424 409 400 394 394 473 437 400 421 408 405 384 368 353 338 339 369 371 352 360 347 333
238 223 234 237 254 252 252 250 249 250 258 256 264 273 268 278 291 328 342 424 418 406 393 393 390 434 455 421 412 396 371 359 383 372 355 346 335 336 361 366 352 333 353
225 238 242 248 249 250 252 256 256 255 260 267 268 272 286 302 335 359 419 412 402 395 394 386 394 470 440 412 406 392 363 342 407 358 359 355 335 350 357 360 343 330 387
240 240 245 252 251 252 259 252 262 261 270 267 279 293 336 350 422 412 411 400 394 392 391 393 415 456 427 404 417 389 362 366 390 399 405 400 385 387 351 356 339 337 393
246 254 250 238 264 257 259 262 267 268 278 291 339 360 419 423 414 408 408 403 399 395 396 403 463 440 418 409 408 383 357 445 389 388 390 396 385 360 351 354 343 333 341

GFSGL_2pvu_pres_036.txt.gz
Presure
225 228 214 221 203 183 195 184 194 201 206 221 205 217 217 215 207 201 199 196 195 192 192 195 193 192 201 201 203 206 214 223 234 230 237 238 239 254 258 258 287 280 269
224 220 199 201 206 189 218 211 208 210 204 211 208 207 211 210 211 198 196 192 193 192 195 189 200 202 200 206 215 219 230 230 235 234 240 245 253 252 275 277 278 279 267
209 203 193 205 182 205 209 197 209 231 222 205 214 220 224 212 203 198 194 193 193 186 197 201 199 206 213 215 224 228 232 229 233 239 252 247 261 273 282 276 258 265 274
232 231 229 255 198 199 210 212 220 213 226 235 224 217 214 212 211 210 190 192 200 197 201 205 211 213 219 227 225 224 226 229 231 252 256 252 253 255 259 271 268 267 300
220 205 207 226 216 213 209 204 208 206 207 213 223 225 223 220 204 198 201 195 194 205 210 211 215 226 221 217 224 217 233 230 246 250 247 258 243 257 263 270 296 305 311
217 214 216 204 195 195 209 216 216 213 216 226 225 202 199 196 195 197 202 207 208 213 212 223 216 218 214 228 218 221 246 240 246 254 254 249 254 265 291 306 313 320 426
210 209 213 210 204 202 202 203 201 200 196 195 196 199 204 204 204 209 212 212 199 218 204 221 208 224 234 230 226 242 234 248 252 245 246 249 271 282 303 339 345 418 414
206 204 200 204 200 202 200 201 200 200 203 205 205 207 212 214 210 198 220 216 210 214 209 211 230 222 228 245 239 235 235 237 248 253 254 274 290 310 352 397 409 398 399
214 214 214 224 218 216 218 212 214 214 213 211 215 216 187 213 217 212 210 213 214 223 217 213 223 231 241 235 238 239 238 252 249 267 277 294 332 358 430 415 398 393 383
238 236 227 227 224 221 221 219 203 221 220 189 208 213 193 197 219 207 218 211 216 212 232 229 238 238 236 231 236 245 256 254 265 279 293 329 369 435 416 404 399 390 387
247 245 242 239 238 233 228 226 225 222 183 223 221 222 218 215 209 230 240 225 236 219 237 239 236 232 230 232 246 261 263 275 282 293 340 418 435 417 404 410 402 387 375
212 237 238 240 229 229 228 228 226 223 220 217 211 214 216 244 244 232 234 225 233 221 236 230 229 233 236 267 265 266 276 281 296 340 379 440 422 380 401 395 384 368 361
240 237 231 229 227 226 223 221 221 225 219 212 213 242 233 220 227 225 219 218 222 228 229 232 243 241 274 268 266 271 278 293 341 363 438 422 408 396 383 378 365 432 423
240 233 226 230 228 225 222 227 227 223 220 247 253 225 219 224 229 215 224 230 228 229 249 249 251 267 267 264 272 278 292 344 465 440 410 414 398 403 375 363 375 430 418
250 239 232 232 243 231 239 238 229 224 221 204 215 213 232 240 233 222 240 239 246 249 250 256 266 267 265 277 281 296 342 458 439 415 413 407 385 421 394 375 370 435 409
240 211 234 234 215 221 214 214 211 215 219 208 230 216 224 237 219 246 242 246 257 254 257 265 264 269 275 285 298 346 365 437 417 412 416 401 377 404 388 373 424 348 387
249 236 257 219 209 226 222 219 215 222 221 236 227 227 243 237 245 243 253 260 250 256 263 261 267 277 284 305 343 363 428 419 412 477 450 403 376 382 383 369 361 401 387
251 226 183 226 227 216 230 221 225 217 229 237 230 238 235 251 247 241 261 251 255 261 264 266 278 284 302 347 384 432 420 410 406 471 429 393 454 385 377 358 348 408 391
245 206 224 221 221 227 228 218 221 232 226 241 238 247 245 246 239 261 255 250 258 264 264 276 284 298 353 415 427 419 409 404 483 447 442 445 426 393 371 358 359 399 385
227 251 233 228 233 234 218 230 233 230 241 238 240 247 234 257 269 259 251 261 262 268 277 282 300 361 422 424 415 409 407 407 465 432 418 426 397 377 361 349 362 379 370
245 240 223 236 231 225 233 229 227 247 235 239 247 237 250 260 260 250 260 262 271 278 282 309 360 430 416 421 421 411 404 443 447 415 399 407 381 365 355 346 359 373 354
244 241 220 232 233 235 231 229 245 235 237 250 241 245 243 254 251 260 267 274 282 287 323 437 431 416 395 370 377 411 412 464 431 410 380 380 380 366 356 341 333 350 366
238 233 235 236 229 228 239 242 230 244 250 238 243 248 261 257 265 270 280 289 295 357 436 419 399 386 375 370 421 419 453 445 415 410 377 353 338 337 356 346 333 331 358
235 230 231 229 235 240 237 247 255 246 245 241 260 265 264 268 271 281 288 311 433 416 403 399 393 399 389 431 425 426 458 432 410 405 385 360 341 365 355 352 336 336 353
229 229 229 240 238 238 250 246 254 241 254 265 263 267 270 280 283 296 430 422 412 403 411 413 406 452 441 435 434 458 438 419 407 408 378 355 387 404 371 348 336 359 354
247 245 241 234 253 251 255 256 244 256 273 265 266 278 288 289 362 428 419 409 420 420 404 403 464 452 445 440 459 439 423 415 406 396 370 411 383 381 392 389 375 365 351

GFSGL_2pvu_pres_042.txt.gz
Presure
196 214 212 184 203 172 194 200 192 196 201 198 190 184 169 193 187 196 189 189 203 194 204 198 210 202 199 202 214 210 206 210 215 215 205 225 219 224 240 234 235 239 248
254 223 209 198 187 189 191 182 201 170 190 188 199 189 188 181 201 188 184 195 193 196 199 195 204 208 196 201 205 205 215 218 210 220 206 216 233 239 219 226 228 229 255
205 209 200 193 209 201 181 175 179 179 174 179 175 199 187 188 185 189 184 204 203 205 190 194 194 193 203 204 215 215 183 199 223 223 240 236 218 213 233 237 253 245 241
231 226 205 211 205 196 194 182 203 184 188 179 185 185 188 188 188 186 189 198 207 195 195 192 198 204 193 202 185 217 222 217 223 220 227 213 223 248 231 256 247 242 243
227 203 205 196 191 190 197 196 185 190 189 183 180 180 184 186 192 216 196 196 199 196 201 202 212 215 224 198 226 217 220 240 214 237 217 238 229 249 244 240 240 247 257
230 220 207 200 197 191 189 187 191 188 190 193 189 191 194 197 195 199 206 206 201 205 216 219 220 228 229 219 222 229 246 214 227 201 220 214 236 255 245 240 253 256 275
171 221 226 214 214 210 208 204 203 203 203 203 205 205 205 204 206 213 212 204 225 232 239 233 229 225 221 224 233 236 235 222 208 231 207 237 229 251 261 259 254 277 277
204 187 250 233 263 260 266 266 269 279 275 267 253 250 256 258 263 260 257 247 240 237 233 230 229 243 239 231 221 220 225 210 238 237 236 234 249 259 257 255 267 276 292
237 209 249 199 204 208 250 250 255 261 265 293 285 273 250 259 252 248 244 241 240 237 239 211 237 207 223 203 213 220 205 212 236 241 235 236 250 257 254 266 275 287 307
194 217 195 191 217 222 198 231 216 223 230 230 232 264 266 230 243 218 196 238 234 212 231 228 199 202 211 219 206 230 242 238 231 231 230 248 255 251 259 268 280 303 323
188 208 202 216 198 198 225 216 218 227 214 214 218 239 231 250 249 223 190 249 218 216 210 226 225 218 223 220 239 232 223 240 246 238 241 251 249 257 263 274 293 312 462
179 222 217 193 204 205 203 219 219 204 196 209 220 222 223 229 229 228 241 244 226 216 216 243 238 234 231 237 236 239 239 237 241 244 258 245 262 265 267 288 309 465 425
213 195 223 229 207 190 204 196 220 202 210 216 205 209 225 212 215 231 213 213 228 232 230 228 232 241 243 237 241 238 239 240 242 251 250 266 262 277 286 312 446 420 404
197 193 219 222 226 191 205 207 215 220 205 205 200 190 219 224 224 219 231 233 240 244 239 237 246 238 237 245 230 242 240 242 242 259 268 263 275 281 311 443 426 417 397
192 207 213 226 224 220 217 216 211 204 213 199 206 215 223 220 221 213 236 226 239 241 232 245 240 242 246 239 240 235 247 240 255 259 263 271 279 303 356 423 428 440 430
205 206 213 221 224 224 213 215 212 225 220 202 199 222 220 224 214 221 229 236 243 230 244 240 243 244 239 240 230 244 239 259 260 263 270 280 300 396 412 439 465 445 449
208 206 211 214 227 214 216 184 211 226 215 195 197 225 226 220 216 224 228 243 240 252 246 241 238 237 241 227 243 241 262 255 264 274 279 302 321 423 448 427 407 431 443
208 208 213 224 224 221 177 221 225 214 207 217 223 226 225 216 218 234 239 254 247 250 241 240 243 240 229 246 256 260 255 267 273 281 306 331 425 412 418 408 419 447 428
210 218 217 226 215 189 221 227 213 209 224 210 226 226 215 213 239 236 259 251 252 246 241 237 241 229 247 262 254 262 268 277 285 313 377 417 407 404 409 456 438 441 408
222 222 229 179 221 223 227 202 224 225 208 226 227 207 222 238 238 257 251 249 241 242 236 247 239 244 265 255 266 269 279 288 317 412 420 405 406 408 473 450 447 424 399
221 230 222 224 221 229 205 226 221 200 227 225 205 224 239 241 244 252 251 247 241 249 248 242 253 268 263 271 278 284 302 331 422 414 401 412 411 482 464 442 445 406 394
231 221 222 222 221 228 227 215 217 228 214 221 228 241 252 244 256 252 248 241 249 242 247 256 264 269 272 284 295 315 429 416 402 406 408 407 485 468 450 447 427 394 380
220 218 225 224 225 227 205 232 227 227 231 239 239 248 248 258 249 250 250 250 251 256 260 275 272 282 292 313 429 425 419 417 418 416 464 484 470 457 444 438 413 386 373
225 226 226 234 209 232 233 234 228 237 244 239 256 255 258 252 259 256 255 255 261 273 276 280 289 310 424 431 429 437 437 431 415 497 486 470 457 446 443 421 399 383 361
218 241 239 236 238 230 227 240 245 241 248 257 259 257 266 265 254 254 266 276 277 279 294 307 393 437 450 450 446 428 422 427 499 485 472 459 448 443 427 407 395 381 363
241 241 235 227 232 242 248 252 259 259 260 258 270 266 256 259 273 279 274 287 299 321 442 444 460 458 450 437 424 409 509 493 479 472 460 453 441 429 412 399 393 378 367

GFSGL_2pvu_pres_045.txt.gz
Presure
227 223 228 224 224 203 195 216 200 190 206 216 208 204 210 189 206 190 193 193 192 191 186 190 192 196 191 191 196 212 194 193 222 182 195 190 215 226 231 228 235 235 226
245 256 245 213 213 214 221 197 180 181 194 200 189 188 197 178 186 201 188 190 193 186 188 182 194 192 192 194 196 203 201 206 188 199 181 214 224 227 226 229 241 214 217
224 248 241 243 197 205 206 244 207 189 202 192 194 202 200 193 190 196 187 183 185 182 177 192 187 189 193 199 202 189 195 203 194 222 223 229 229 229 236 244 229 218 250
247 220 225 233 228 243 241 215 212 202 218 220 207 183 193 187 214 183 185 181 184 193 190 191 193 202 219 203 203 202 211 208 238 229 229 228 241 233 213 211 222 211 235
249 236 237 214 235 215 210 207 198 196 221 192 192 184 175 170 189 182 187 189 190 188 195 200 203 204 206 212 212 234 237 236 228 231 233 231 220 224 235 222 244 245 238
194 243 224 235 229 222 215 205 206 203 202 197 186 194 191 192 191 193 183 199 202 203 205 205 215 253 244 243 242 237 235 228 244 194 206 226 229 217 220 233 236 247 235
208 220 207 223 239 228 223 212 207 209 203 195 193 193 193 194 198 200 202 252 254 287 270 265 258 247 243 243 238 235 211 214 220 242 248 246 216 225 231 250 247 230 210
199 211 202 210 230 217 220 214 199 180 209 217 234 221 245 253 249 246 248 246 252 259 257 255 265 260 242 246 206 198 223 225 227 231 216 212 234 245 243 237 243 241 259
187 196 189 183 193 201 179 195 235 189 193 172 189 200 206 231 233 230 233 228 225 220 226 226 223 224 236 224 203 233 232 235 244 245 247 237 245 234 235 243 241 244 261
172 189 190 177 202 196 197 209 200 186 205 194 210 199 202 220 215 201 190 209 210 190 176 168 223 215 211 208 208 241 244 242 230 231 238 246 225 236 249 220 219 252 251
212 199 192 192 176 192 185 203 191 218 228 218 191 194 205 202 209 226 215 210 196 199 191 226 223 221 217 214 216 236 240 231 244 236 237 242 240 245 226 253 249 248 262
204 210 170 216 197 183 203 205 190 208 211 234 230 232 225 212 215 198 218 221 209 197 202 227 221 214 218 233 228 243 246 237 246 238 236 237 239 241 249 251 246 253 267
204 197 199 205 203 217 214 202 188 208 209 215 216 229 219 218 215 202 210 222 217 213 192 228 217 214 225 232 226 241 241 245 241 236 244 244 242 247 250 249 252 266 273
209 205 200 192 202 206 202 216 203 203 211 212 213 222 226 221 208 215 221 219 215 208 221 228 212 221 230 231 227 238 249 243 244 247 240 250 244 249 251 256 271 269 285
209 211 201 207 204 206 213 215 199 207 208 207 213 223 221 215 222 216 225 215 211 215 231 215 219 226 233 232 237 246 252 244 250 243 249 253 250 253 261 267 275 291 322
209 210 213 206 210 206 197 208 209 208 207 216 205 219 211 195 205 227 214 216 211 232 216 223 226 230 233 238 245 251 247 251 250 250 253 251 257 263 266 274 289 314 420
211 208 211 211 191 205 210 211 207 210 217 220 211 220 222 220 221 220 230 209 238 227 224 225 230 234 237 241 252 251 260 251 246 251 254 256 265 265 278 289 313 423 414
213 191 208 213 207 206 213 196 209 213 222 216 215 231 211 225 219 227 200 240 232 226 226 232 238 235 242 254 262 265 250 247 257 256 262 265 269 283 293 381 416 414 421
215 211 215 210 206 215 210 207 216 222 219 219 224 219 228 227 216 235 240 229 227 228 237 237 238 245 259 272 270 252 246 260 264 265 265 278 286 299 385 426 429 422 412
216 217 214 217 214 204 213 221 226 221 222 223 230 227 227 205 239 233 227 231 227 238 231 241 257 257 268 264 254 255 262 264 266 271 283 293 315 412 436 435 428 419 487
220 215 221 222 228 225 228 212 225 226 224 221 228 214 218 229 235 233 228 227 238 241 242 259 259 284 258 257 260 263 268 267 282 288 309 414 438 444 443 429 418 493 466
228 222 224 227 223 209 223 234 227 227 225 222 219 226 235 238 228 227 238 239 243 259 263 274 274 254 260 263 272 269 276 290 302 364 401 448 448 445 426 427 496 473 447
223 220 221 224 226 237 231 226 228 222 217 226 229 244 229 229 240 243 250 257 273 278 280 273 265 263 272 278 280 301 306 380 425 456 451 447 433 416 477 493 478 453 439
230 235 236 239 249 241 234 224 217 230 233 231 243 233 240 239 251 261 267 289 281 275 264 268 272 280 287 299 310 427 476 477 474 458 436 417 468 505 492 475 458 442 429
235 249 235 235 236 240 243 236 237 246 251 239 240 237 253 260 265 284 279 268 266 271 279 286 299 305 315 505 501 324 363 444 432 425 530 512 497 482 472 456 444 431 416
241 242 246 248 247 247 238 257 246 241 242 239 255 258 266 259 297 277 268 276 287 295 303 314 396 497 488 472 458 505 576 563 544 524 504 487 474 465 455 447 434 416 406

GFSGL_2pvu_pres_048.txt.gz
Presure
222 264 234 228 226 227 224 220 219 227 217 209 213 212 203 211 223 217 213 194 218 213 186 207 199 198 192 194 186 197 192 195 197 196 201 203 208 245 248 236 229 226 230
271 238 262 261 254 229 223 224 232 228 216 224 212 213 239 215 189 184 201 206 210 188 195 197 182 191 191 194 193 198 196 193 200 204 205 208 238 240 228 228 233 222 207
195 192 258 227 234 237 255 253 247 210 220 214 205 208 223 215 207 222 204 221 193 193 190 191 192 190 190 196 195 198 195 198 199 253 255 241 242 237 227 206 207 220 224
227 204 239 256 241 248 228 240 236 237 211 223 217 236 239 208 202 203 226 201 192 194 192 192 191 194 193 191 193 202 204 217 256 232 252 242 243 244 247 231 228 223 226
210 232 205 191 240 229 236 232 225 228 236 247 227 218 210 191 193 195 194 195 201 201 199 195 190 201 198 199 218 256 242 209 233 231 236 237 231 229 236 236 233 231 238
180 197 235 218 259 246 228 226 242 238 232 228 219 212 210 209 206 212 218 208 173 192 199 194 194 233 253 233 227 218 223 221 223 218 213 220 227 224 235 242 247 227 235
223 235 181 213 207 241 216 204 197 235 223 218 226 215 194 214 189 194 175 194 197 218 224 211 208 206 213 205 191 205 185 185 227 213 211 215 228 233 224 238 245 242 244
183 179 224 187 188 200 197 194 200 204 202 216 208 200 232 202 231 207 188 186 191 189 194 182 170 207 218 224 216 212 196 202 191 204 218 214 232 231 232 234 244 248 238
195 171 186 216 215 204 191 200 192 188 202 178 178 188 180 186 192 191 205 207 208 205 174 202 201 207 217 205 197 219 219 214 203 225 215 221 232 231 237 239 249 246 240
190 192 185 191 207 212 219 211 188 173 176 173 195 208 195 212 174 184 190 222 207 226 234 197 204 209 210 215 221 219 218 211 233 226 221 229 230 234 237 243 250 243 254
197 190 195 175 168 163 200 213 208 209 202 201 179 178 205 184 201 198 212 212 210 213 216 225 224 219 215 198 230 237 234 217 229 219 226 233 234 233 237 246 251 260 260
200 191 196 196 189 208 170 214 209 193 203 211 205 197 189 213 213 198 200 216 209 214 207 215 226 198 189 224 224 222 219 221 222 223 233 232 230 234 243 245 264 265 244
192 199 181 207 196 221 206 206 214 210 182 208 210 203 205 198 202 194 208 209 217 219 211 217 194 212 214 224 231 239 229 225 222 230 231 230 238 244 248 247 272 251 257
195 193 194 204 181 212 214 207 203 208 210 199 213 212 202 194 200 215 200 212 214 219 216 220 218 207 216 221 235 223 226 228 225 231 225 237 244 247 245 277 253 255 261
197 202 211 199 209 212 202 213 209 209 214 210 210 205 194 209 212 210 209 209 215 219 223 216 217 222 222 218 228 234 229 220 235 228 238 238 251 253 271 258 254 264 267
197 213 224 222 222 212 205 222 223 214 207 216 198 206 212 211 213 212 205 207 220 222 222 215 217 217 215 228 239 228 229 235 232 238 242 249 260 275 265 256 265 266 269
224 232 226 220 223 217 212 230 216 216 218 213 210 215 216 217 216 206 223 223 221 227 216 220 217 220 228 240 226 228 235 233 237 244 251 272 274 264 262 266 272 276 277
233 232 227 233 225 228 224 216 225 226 224 224 219 214 222 210 209 222 225 217 228 229 220 218 217 233 227 239 231 238 235 234 241 252 272 269 259 265 272 275 283 289 307
234 234 239 233 227 225 227 227 232 224 220 216 209 223 220 221 226 230 222 236 235 221 224 223 238 227 225 241 238 236 236 246 252 272 273 262 271 275 282 292 300 327 400
238 253 239 230 234 249 242 237 237 230 224 226 221 222 223 222 222 227 237 237 241 230 239 238 230 232 245 240 238 239 251 253 274 292 267 273 277 290 303 318 441 473 463
257 245 242 238 245 237 234 232 227 221 224 214 221 222 230 231 235 229 237 220 229 249 240 229 240 244 238 239 249 252 268 301 294 273 277 278 306 315 449 450 481 475 459
252 247 238 241 234 228 224 232 232 232 233 237 239 233 239 221 236 234 229 251 239 242 235 246 240 240 250 252 269 296 290 277 277 285 298 321 365 497 372 482 464 440 424
248 242 241 237 235 239 240 237 226 232 238 239 231 234 238 246 230 250 243 245 242 245 245 243 252 260 274 293 299 273 281 301 317 458 489 493 386 404 458 445 432 482 512
241 238 241 239 241 233 231 244 238 239 241 234 241 239 237 252 242 242 240 248 251 245 256 267 279 302 291 277 284 320 322 501 505 499 353 458 463 451 536 535 517 501 488
242 241 241 238 255 233 241 236 236 243 249 247 249 250 249 241 251 253 253 256 274 277 282 306 289 282 320 323 416 419 492 431 469 455 441 502 560 542 524 506 491 476 468
245 242 247 248 248 251 251 250 252 252 250 247 242 247 253 254 264 272 265 273 301 297 282 306 325 391 480 443 378 364 519 532 585 483 556 539 522 506 490 478 467 460 449

GFSGL_2pvu_pres_051.txt.gz
Presure
244 216 243 253 222 231 222 220 221 223 223 225 227 220 220 217 221 215 207 204 208 220 217 196 195 222 214 193 202 198 190 199 166 165 184 200 204 234 252 235 209 176 227
199 225 222 202 213 238 248 250 227 219 221 220 215 213 216 218 218 214 213 214 208 195 203 199 191 202 191 196 197 196 196 188 198 196 201 215 244 208 203 183 190 190 217
208 191 212 234 211 199 270 233 224 246 239 247 247 245 229 225 214 213 236 236 226 235 205 203 202 198 201 206 196 190 194 200 205 230 230 209 209 194 193 205 204 205 189
146 170 183 210 220 224 202 199 213 227 235 231 228 237 233 228 230 225 218 216 220 206 205 193 205 193 182 186 178 194 207 194 183 196 198 196 214 216 212 216 214 214 212
210 188 195 220 198 209 226 246 251 239 232 231 242 233 231 234 225 225 219 216 214 197 186 209 194 176 186 212 221 188 176 195 198 193 213 199 212 211 214 214 215 210 215
208 209 195 182 159 211 192 207 193 248 248 237 235 228 195 240 224 218 233 185 193 221 173 207 227 194 201 200 201 203 205 205 206 211 224 207 212 182 220 231 203 214 220
196 178 196 193 182 208 208 210 175 205 211 216 183 231 213 199 176 208 214 210 189 207 181 180 178 189 192 218 225 216 224 223 222 214 215 213 203 186 222 226 221 225 219
181 187 193 189 200 187 210 190 188 191 190 198 173 194 189 198 209 180 201 189 194 193 194 185 193 195 189 203 199 210 209 208 207 220 222 197 201 215 233 236 225 215 222
174 198 196 194 191 202 203 201 181 188 184 188 200 178 178 165 181 196 198 188 171 189 201 195 202 199 200 190 202 202 211 208 205 213 210 218 206 217 219 227 227 227 216
198 199 190 192 192 200 196 202 204 209 178 173 210 210 203 207 201 194 179 201 201 200 198 183 187 200 201 204 210 205 208 213 215 212 211 217 217 215 217 232 231 224 231
193 199 199 191 184 182 186 194 196 193 192 193 181 192 206 198 205 200 202 194 197 210 207 187 195 193 193 209 200 195 201 206 219 218 216 216 219 215 224 230 229 230 236
206 202 199 193 188 187 186 196 196 193 190 192 198 189 200 202 209 203 205 205 202 198 205 204 204 193 213 204 209 203 206 216 220 223 218 217 217 220 227 227 226 240 236
180 191 203 193 202 198 194 199 201 193 193 193 204 201 189 211 202 195 204 202 212 213 210 212 201 207 211 208 212 207 215 222 215 227 223 215 215 228 228 223 243 238 236
222 202 192 191 204 191 192 205 201 194 193 200 205 199 208 211 222 204 205 211 214 216 215 203 203 212 212 213 206 213 213 225 216 231 218 218 228 230 224 246 241 233 240
205 193 193 194 211 200 199 201 201 203 209 210 201 219 223 221 196 212 211 210 214 210 208 215 224 217 207 221 217 217 224 216 229 233 233 229 247 230 246 238 236 240 245
208 211 214 195 198 204 202 203 209 201 197 204 206 207 226 206 216 213 216 217 217 223 227 227 226 206 221 218 208 219 217 227 231 233 231 250 238 244 244 234 241 246 251
230 198 213 204 205 196 202 205 216 209 202 214 221 229 234 226 224 219 217 218 219 226 219 205 225 226 218 214 218 237 232 236 238 227 251 238 241 245 239 243 249 260 264
228 221 211 214 210 213 217 223 189 219 227 231 231 228 238 239 231 229 218 227 225 236 240 235 224 220 217 221 245 231 246 238 232 248 239 239 244 242 247 254 264 284 286
235 235 258 237 242 235 233 231 244 242 237 231 234 239 240 237 249 241 229 243 245 245 238 229 237 229 224 250 239 234 227 237 248 239 240 250 248 253 267 272 294 277 280
261 242 235 239 240 240 248 244 236 253 255 257 260 254 276 259 246 250 250 239 235 237 235 227 247 250 235 240 229 244 245 245 240 249 250 254 267 276 294 291 282 343 431
255 258 260 258 259 233 231 252 247 243 241 251 259 243 259 260 250 250 242 241 235 256 248 232 246 245 245 243 245 250 239 243 253 256 270 276 302 295 293 336 456 384 451
247 218 256 255 255 233 235 236 246 247 261 253 254 257 251 242 247 247 249 247 241 247 247 238 232 248 257 247 237 251 254 262 279 281 291 299 294 364 473 459 313 375 462
244 240 238 244 247 245 249 255 257 255 253 255 254 245 248 252 259 258 244 239 242 247 249 257 247 240 246 255 253 279 282 274 303 309 418 467 487 337 367 458 443 431 421
245 249 248 246 263 266 245 258 253 248 258 250 258 258 254 243 235 245 243 249 250 240 239 245 251 254 277 283 279 300 308 442 444 475 391 340 593 599 589 578 567 551 516
234 241 259 266 253 257 253 252 250 253 258 260 261 261 253 250 251 257 231 243 243 244 257 270 282 279 285 306 418 461 385 459 401 569 594 587 578 568 557 545 533 515 501
253 261 274 258 257 263 261 261 254 251 237 259 260 261 262 246 251 244 245 261 277 283 283 297 307 315 391 381 406 407 568 568 566 563 556 548 539 529 516 506 496 484 474

GFSGL_2pvu_pres_054.txt.gz
Presure
198 216 213 236 212 255 273 259 237 234 233 232 235 232 228 225 225 221 216 217 215 205 205 205 203 203 202 201 212 205 201 197 209 202 178 191 194 186 196 195 210 198 206
177 200 213 204 233 229 205 220 272 263 247 227 224 219 217 218 215 211 212 212 215 214 210 214 202 212 213 225 216 198 210 205 209 180 205 200 192 193 188 188 205 198 211
198 185 199 194 233 191 213 230 213 225 268 258 249 255 244 238 230 227 230 229 230 227 223 222 213 234 215 215 203 194 192 202 195 202 203 196 194 195 212 221 224 215 215
199 182 207 203 164 220 234 213 213 227 221 227 252 207 234 229 237 241 229 233 226 224 229 226 224 214 212 206 197 212 190 180 206 207 207 210 223 209 201 209 212 207 209
196 196 196 191 209 199 177 197 217 209 217 219 211 241 242 223 227 227 227 224 216 219 181 221 225 224 228 212 200 208 192 198 182 189 200 189 190 184 202 207 212 208 211
204 180 184 189 198 190 205 151 153 205 177 222 219 202 163 221 220 254 288 273 237 241 245 192 174 200 194 212 193 193 164 206 201 200 198 200 204 194 205 201 197 201 213
192 180 203 190 185 204 192 194 200 192 202 189 204 200 220 207 202 201 181 172 183 193 159 189 184 174 181 182 182 185 199 197 191 188 194 189 192 204 197 191 192 203 204
204 214 202 200 199 205 178 203 190 195 196 178 205 189 182 178 202 192 191 192 217 221 209 193 185 207 205 196 213 202 192 184 192 175 194 187 197 209 203 203 201 205 208
209 196 206 206 191 194 200 184 188 198 200 196 209 204 195 197 200 181 183 193 204 201 197 209 209 206 200 202 197 190 182 178 205 205 203 194 201 201 197 203 208 209 208
216 203 201 201 203 171 195 193 196 202 203 204 200 200 205 198 213 204 206 203 203 182 189 197 202 202 203 205 203 203 201 211 201 202 202 203 193 201 212 206 214 211 210
208 214 205 211 207 207 183 194 194 194 202 202 194 198 196 205 197 197 197 205 197 194 199 202 195 201 209 210 203 203 209 210 209 209 206 202 206 216 217 208 214 209 216
218 204 209 210 211 205 207 196 191 194 198 199 202 196 191 193 196 197 201 194 194 193 176 194 199 210 208 188 195 212 202 198 210 212 212 217 223 224 222 223 217 216 219
227 216 218 213 210 207 206 203 206 199 203 188 205 201 199 193 191 194 200 185 199 205 196 194 204 208 215 203 217 211 207 212 213 214 207 221 205 223 227 228 218 216 225
229 222 219 218 215 207 203 208 212 210 197 201 196 201 193 200 204 200 200 203 205 200 202 206 213 210 214 221 220 218 215 215 216 216 220 225 228 239 238 225 221 221 240
228 222 224 225 217 220 215 204 210 212 213 214 204 206 170 187 203 203 203 199 201 210 210 211 213 217 224 224 226 232 227 226 218 226 225 237 248 243 226 227 240 249 233
237 234 228 226 226 216 213 211 214 211 213 215 196 211 220 208 196 210 215 213 213 217 221 222 225 230 228 232 234 244 231 242 240 238 243 247 238 223 232 254 235 242 243
256 245 236 232 232 216 217 218 219 171 225 220 221 232 232 165 217 216 218 213 230 230 230 228 241 239 238 253 249 248 247 246 239 252 242 234 236 243 238 251 242 247 241
255 251 244 240 240 238 233 232 229 235 235 234 227 233 241 243 230 237 239 244 223 213 245 245 258 250 252 259 249 244 244 245 248 250 241 245 244 258 243 257 242 251 247
249 248 240 244 262 241 239 234 235 236 235 235 235 235 238 252 247 239 232 225 248 244 259 246 251 247 261 259 257 247 249 250 250 240 241 253 244 240 253 251 248 264 264
254 250 243 247 243 243 247 243 243 242 249 248 238 242 231 235 247 234 234 253 250 251 246 249 253 267 254 253 253 270 265 259 251 241 246 251 246 252 250 261 276 287 301
259 250 248 252 263 262 260 235 222 229 231 224 227 242 242 234 257 248 247 240 244 250 262 255 251 258 265 248 257 253 253 243 243 261 249 252 252 265 279 301 285 366 451
252 251 261 243 242 247 248 256 239 239 233 237 239 242 243 247 245 258 254 259 262 266 260 242 257 251 251 248 234 247 251 246 252 253 259 270 290 294 341 478 521 526 399
248 259 250 245 238 239 255 263 260 259 255 257 255 247 243 240 249 251 253 256 265 271 260 259 262 260 248 252 244 253 254 256 269 287 304 328 405 459 522 625 615 606 596
256 254 250 239 234 241 251 249 243 235 236 241 252 238 258 255 251 272 278 276 264 271 249 244 257 243 233 254 255 267 283 294 298 430 465 428 359 552 595 588 582 575 567
260 260 247 241 244 246 252 260 263 260 242 236 253 250 255 265 257 252 230 229 281 287 243 238 242 258 271 286 294 302 343 482 449 322 388 557 560 560 556 551 546 538 531
263 265 262 258 266 271 270 246 251 280 284 274 257 266 283 275 261 304 272 254 249 250 258 288 285 290 295 326 391 471 319 383 490 543 534 525 524 520 516 512 506 502 495

GFSGL_2pvu_pres_057.txt.gz
Presure
199 199 208 221 210 225 241 299 306 228 212 198 197 207 201 202 211 220 210 206 208 214 212 217 215 213 211 211 198 210 208 212 209 219 223 200 201 176 201 204 205 200 195
197 203 207 198 189 212 230 231 218 243 281 267 254 246 235 229 231 239 234 222 219 211 212 208 208 208 208 210 221 209 212 212 217 221 203 182 171 214 203 205 189 176 201
186 195 195 196 197 196 203 201 226 213 223 222 198 193 274 260 256 253 234 235 231 225 226 225 223 221 227 225 205 210 219 214 181 212 220 213 226 181 210 181 183 193 195
212 211 185 187 194 194 207 201 186 200 226 212 214 230 231 261 230 224 226 223 218 227 235 249 237 232 227 234 230 239 221 211 208 210 195 200 182 182 172 191 192 193 194
202 209 200 204 179 183 190 205 202 200 195 198 186 186 226 214 202 211 209 213 208 246 246 242 235 227 231 189 202 189 190 176 171 207 198 184 190 193 200 193 186 188 200
208 201 172 224 189 195 192 185 190 197 194 192 196 200 194 200 210 193 185 223 206 210 203 201 194 178 194 215 180 189 191 169 199 210 181 192 190 168 189 194 182 193 201
204 199 199 219 226 212 200 203 182 197 194 194 179 185 194 194 190 189 207 192 203 184 193 192 200 196 175 213 211 199 203 207 206 205 207 210 209 209 202 204 202 200 201
194 204 200 209 218 222 216 214 212 190 203 208 191 201 205 187 188 195 195 213 201 191 191 190 192 192 192 189 196 193 177 173 204 196 197 207 212 202 197 193 204 204 192
152 193 195 168 205 228 218 204 208 214 207 202 206 206 201 190 208 204 199 200 208 193 193 204 193 194 193 197 205 196 196 188 200 196 198 199 202 199 205 203 206 211 213
202 198 202 196 221 224 217 214 214 197 203 200 205 202 194 192 211 207 204 206 200 197 211 200 204 208 203 203 195 192 194 200 202 201 198 198 201 201 205 215 212 214 218
216 215 216 210 211 209 211 217 210 212 213 204 206 201 201 206 202 197 194 186 196 201 203 198 205 203 200 184 193 203 203 204 193 197 208 207 214 213 210 208 217 222 225
214 217 219 221 215 211 205 212 213 212 216 203 210 207 210 205 205 211 206 206 202 208 193 203 203 187 207 205 207 204 190 197 207 205 204 213 218 218 217 229 225 228 241
212 215 218 211 211 214 212 214 213 217 218 222 214 207 184 214 210 199 208 210 210 212 214 209 211 212 206 212 208 204 209 210 212 197 227 222 226 227 225 240 228 252 243
226 224 224 224 223 224 220 227 222 227 222 223 218 216 218 210 211 214 216 213 198 208 211 209 201 184 206 194 220 214 206 211 214 224 217 229 234 248 250 243 241 260 250
238 239 242 243 242 242 244 246 236 233 230 224 218 218 215 217 218 215 205 213 209 216 215 209 206 216 219 226 221 231 228 226 241 245 234 247 250 259 242 254 253 248 249
338 306 299 278 268 264 257 246 242 238 240 235 234 233 230 225 224 228 223 220 211 195 222 216 214 234 233 227 240 235 252 236 235 236 241 250 247 238 250 242 242 251 255
288 275 289 283 270 253 254 261 229 232 226 230 231 228 232 228 223 232 229 223 222 218 204 231 228 239 237 238 247 241 237 233 235 249 235 249 240 255 266 264 265 255 243
248 253 247 257 241 239 241 245 237 241 255 247 238 254 240 243 239 230 233 231 233 232 246 248 244 245 241 227 239 237 235 245 251 252 252 251 246 258 252 237 247 246 243
249 250 242 253 263 238 205 209 220 241 238 237 229 233 235 244 239 233 240 251 243 233 253 242 244 235 236 238 235 238 251 236 242 250 254 265 263 258 249 243 255 258 265
227 235 240 241 240 253 242 235 233 230 232 231 225 236 234 222 232 234 223 219 236 235 230 230 247 229 239 240 239 249 258 253 246 261 258 237 284 243 260 258 251 266 269
232 238 231 232 227 236 243 233 236 236 246 243 235 231 238 238 235 240 261 250 245 240 227 236 245 243 241 218 257 255 238 255 271 230 254 242 251 281 292 268 257 300 303
233 249 248 235 238 233 225 232 233 234 235 236 244 247 236 235 230 253 258 245 252 242 255 250 250 231 244 253 237 235 262 247 260 240 281 299 266 264 278 288 309 381 359
249 250 250 237 238 237 237 246 241 241 239 256 247 250 253 248 247 245 244 238 236 243 253 252 260 264 261 263 273 260 279 255 274 298 271 269 290 293 308 442 498 369 512
237 258 261 262 262 258 255 263 260 258 262 260 252 254 254 253 253 254 252 245 245 251 252 251 258 265 265 252 228 247 261 280 276 271 291 309 331 383 369 321 541 384 552
265 252 250 250 250 249 247 246 247 262 260 246 257 247 242 263 265 247 253 257 257 267 280 281 282 241 252 266 256 259 272 285 296 313 498 438 356 533 537 527 521 519 519
252 260 264 258 251 255 256 258 262 265 269 265 256 255 261 263 276 277 279 276 276 268 277 284 281 256 264 276 283 294 303 332 422 373 323 498 428 524 514 502 495 489 488

GFSGL_2pvu_pres_060.txt.gz
Presure
206 182 182 212 217 201 234 233 201 197 198 199 198 198 197 201 198 191 192 191 195 196 200 201 202 202 207 212 210 213 226 222 217 211 216 222 197 220 203 195 215 211 185
192 216 190 177 187 205 220 208 227 235 239 225 215 210 205 207 205 205 205 211 206 213 213 211 214 220 222 232 222 213 218 223 226 222 232 232 231 224 238 174 235 183 199
192 197 203 219 162 183 202 207 206 183 187 221 225 224 231 241 274 316 301 253 191 188 184 258 254 249 234 230 229 231 243 241 231 244 224 212 170 197 181 188 201 181 184
193 195 202 201 214 204 191 192 191 196 200 208 200 211 217 209 197 207 232 228 245 243 244 241 239 218 218 260 260 259 258 248 223 190 188 192 178 178 205 186 198 202 201
182 203 186 208 192 201 208 183 188 195 181 186 200 208 207 203 194 202 230 225 219 206 206 213 200 214 215 206 211 203 216 185 212 197 184 178 196 203 210 212 200 201 187
195 202 200 203 199 205 191 202 229 190 209 211 191 188 186 192 193 200 194 202 199 191 190 196 192 195 194 192 193 193 199 194 195 194 208 183 190 189 185 205 191 203 206
197 204 202 197 203 200 213 198 189 206 218 210 203 195 192 195 194 190 193 191 197 191 188 185 192 208 182 189 192 196 194 189 197 194 200 209 209 203 205 199 212 208 195
194 206 205 193 194 196 210 203 210 205 205 207 225 208 209 209 206 197 206 193 188 179 189 194 189 193 192 210 200 208 188 178 192 195 209 206 194 201 206 211 201 200 200
199 213 209 192 201 195 200 209 210 202 204 226 196 224 211 203 203 206 208 207 208 210 207 202 205 204 206 208 204 205 204 206 211 211 191 209 205 197 197 199 200 205 212
211 213 194 193 201 199 206 202 210 208 211 219 231 232 218 215 212 209 203 204 206 198 210 207 205 205 202 205 205 204 201 212 196 206 215 209 200 198 202 196 206 214 216
220 205 205 203 206 202 190 181 216 208 221 220 222 219 217 219 220 213 211 213 217 208 219 222 217 213 215 213 212 211 211 206 205 207 212 207 207 214 215 215 236 208 241
213 213 206 208 206 204 205 205 217 216 216 215 213 218 206 212 213 211 212 217 219 222 223 222 218 222 219 215 214 203 206 202 207 212 199 207 221 210 227 247 237 242 241
213 212 211 210 213 214 211 218 224 223 217 222 224 221 223 221 212 214 218 219 219 218 216 219 213 212 209 211 202 223 219 224 211 220 222 225 204 239 231 237 244 223 227
214 219 214 230 235 233 227 227 227 224 219 218 230 226 229 231 231 226 223 234 233 225 214 214 219 221 215 223 226 218 222 226 225 204 226 229 234 245 248 235 246 239 236
205 238 239 233 234 236 242 244 231 228 229 231 235 235 236 238 251 246 237 240 228 229 234 225 211 212 225 227 221 227 226 226 235 225 238 241 245 245 238 234 234 231 234
238 243 247 248 251 257 256 261 257 252 248 262 271 282 275 293 252 257 256 253 242 241 208 223 227 243 247 253 240 234 245 231 234 259 231 231 230 238 241 233 227 245 225
306 266 334 376 367 263 361 263 387 330 241 294 270 259 258 223 245 245 251 244 248 222 229 234 226 256 197 237 252 234 231 213 228 247 230 245 248 228 235 239 222 245 238
336 313 293 271 269 272 276 264 282 263 248 259 265 226 224 224 199 238 228 209 221 216 254 254 238 244 246 220 245 232 244 234 237 230 257 253 232 243 242 232 242 253 254
154 269 269 268 209 224 263 246 261 232 234 229 210 228 206 235 216 214 214 210 226 238 220 230 226 250 212 236 236 234 225 229 242 246 252 251 243 237 247 252 259 260 246
268 278 255 241 259 265 231 228 232 245 225 225 231 235 237 239 224 221 221 212 236 235 244 238 231 230 233 229 226 244 246 240 241 261 263 257 240 248 256 249 266 257 269
277 264 257 256 248 243 234 232 249 240 245 265 230 242 269 238 235 234 237 249 237 226 233 232 237 238 231 238 252 241 240 250 242 231 236 259 261 257 265 244 256 264 273
299 250 253 264 240 247 249 262 251 236 241 248 253 251 246 240 234 222 239 250 246 243 236 239 231 226 250 252 254 259 234 250 248 263 270 269 261 272 300 278 266 283 302
288 266 272 261 248 262 249 244 245 237 235 231 231 232 240 237 233 246 238 252 229 233 249 250 257 251 256 243 252 275 271 259 262 270 282 289 272 304 285 275 287 300 331
281 274 292 274 246 257 261 249 238 248 256 249 250 237 251 239 246 245 229 248 250 253 252 256 262 262 269 268 264 272 274 270 283 257 282 286 272 280 288 312 326 516 362
305 274 298 264 278 276 275 264 258 250 252 250 252 251 254 250 250 251 256 249 244 269 268 257 256 263 278 271 282 304 254 276 289 271 278 284 298 327 366 366 322 525 518
271 273 303 268 276 279 277 281 269 267 264 263 258 265 261 265 265 264 271 276 262 266 263 256 264 278 293 281 265 277 270 276 286 294 307 332 392 364 396 507 507 502 493

GFSGL_2pvu_pres_063.txt.gz
Presure
190 190 182 203 228 195 189 223 225 202 199 195 206 205 193 193 193 194 196 199 193 195 197 198 199 194 193 195 197 199 200 203 211 209 206 223 219 225 233 233 225 228 218
176 195 177 193 197 201 212 190 189 226 241 230 199 196 197 192 191 194 196 194 196 200 201 204 203 203 202 205 207 211 222 231 228 250 248 236 227 227 222 219 217 194 189
198 175 200 190 193 189 197 220 204 167 189 200 213 226 235 219 220 217 234 235 231 252 259 265 281 290 280 259 258 256 251 246 241 242 237 231 232 226 201 200 201 207 194
193 186 203 199 192 188 202 201 200 213 210 197 195 192 199 196 198 223 223 228 224 214 193 198 206 223 222 214 222 218 218 205 214 201 212 209 215 192 199 193 191 192 212
184 194 199 198 199 195 192 209 200 196 202 202 216 229 189 186 186 183 187 197 208 209 211 210 210 208 220 210 210 196 197 197 189 192 192 190 187 204 207 187 195 186 201
183 173 194 190 180 208 192 176 214 205 189 208 195 191 206 212 224 214 214 201 189 182 185 189 185 199 194 190 194 197 200 190 199 200 207 196 191 192 193 193 185 202 193
156 198 194 190 193 209 193 199 201 205 203 201 197 209 205 191 198 203 214 232 213 199 197 189 197 198 197 198 201 204 204 203 209 200 203 207 209 208 204 203 201 194 221
206 199 180 195 195 207 199 193 206 204 211 199 192 204 197 205 192 207 203 223 198 219 212 208 205 205 207 206 207 204 201 199 204 203 201 197 200 198 205 213 214 206 199
203 173 192 187 196 197 202 192 198 211 177 211 196 200 204 216 209 211 212 191 230 233 226 218 210 205 205 206 205 204 195 208 202 200 206 202 202 207 210 213 203 198 215
181 193 198 196 196 196 200 197 205 200 219 204 203 198 212 209 209 192 218 219 220 223 229 221 211 205 212 216 217 215 213 219 226 226 231 225 219 207 219 203 219 228 226
202 200 196 202 201 201 202 209 203 207 217 211 221 204 211 210 209 207 218 211 199 209 225 222 211 205 216 217 213 219 220 221 230 226 219 215 214 227 216 226 218 198 226
203 202 202 206 212 203 207 196 203 212 213 223 201 200 207 213 206 211 222 208 214 222 213 221 233 225 212 216 215 217 219 241 230 216 230 210 180 218 224 215 231 238 248
205 208 205 210 203 208 214 212 220 220 221 216 211 213 220 226 235 236 232 230 218 225 228 217 229 232 228 243 253 236 223 219 222 214 209 222 222 224 231 237 241 228 244
209 204 210 212 217 216 170 219 212 223 220 221 219 219 225 228 223 224 212 222 219 229 198 230 204 230 248 226 232 220 218 230 202 230 233 244 219 196 250 220 251 249 251
214 215 217 225 219 199 198 199 221 225 226 224 232 236 232 221 225 235 222 233 237 220 240 198 226 233 221 220 209 213 212 213 246 235 232 223 229 231 235 248 229 232 231
226 225 193 190 227 206 237 238 244 250 260 257 256 248 244 237 225 235 238 242 244 232 205 204 209 227 223 208 220 220 250 239 231 222 224 232 219 255 246 242 249 227 235
230 252 194 150 241 250 247 247 262 281 291 291 296 293 293 293 285 284 324 242 255 222 244 199 236 230 215 225 238 251 252 239 231 221 230 236 227 232 244 234 228 249 235
251 252 254 263 244 280 331 285 320 331 337 347 344 335 389 328 240 210 319 278 259 268 254 245 233 240 228 248 219 225 214 225 224 221 236 226 238 238 227 233 226 237 241
284 276 267 262 262 325 146 241 298 300 286 271 212 267 276 275 264 259 260 264 250 251 247 253 233 229 222 217 227 229 218 231 224 230 228 238 239 239 227 238 239 241 247
275 325 334 321 314 309 325 300 277 289 266 254 259 250 261 254 250 249 253 251 235 236 241 240 250 227 243 224 224 217 234 230 231 229 237 227 229 253 248 246 248 258 263
373 382 338 299 310 307 310 289 279 275 261 262 252 266 258 260 249 244 254 234 239 252 225 241 242 244 227 240 234 223 227 243 251 231 247 252 243 255 245 262 251 248 256
352 349 365 359 315 292 293 294 282 258 271 266 265 242 253 242 244 245 241 256 249 239 247 233 230 238 230 236 241 243 236 234 250 250 254 254 249 263 254 248 263 258 265
328 334 344 356 291 270 261 295 252 275 252 260 247 265 253 253 253 255 245 252 237 238 245 234 244 239 253 251 261 244 261 253 241 254 251 266 250 256 274 244 271 281 271
318 321 330 337 272 285 247 267 258 282 265 246 258 246 268 249 240 244 244 247 257 248 256 265 255 253 268 265 244 262 266 257 262 262 262 259 249 252 261 289 263 292 272
300 307 322 329 339 297 280 298 262 273 277 248 247 259 273 261 263 265 244 262 264 254 257 250 244 240 244 245 257 238 265 247 258 263 248 254 283 293 270 269 318 316 339
279 285 302 291 299 311 292 281 273 261 280 301 259 253 270 243 254 255 236 242 252 250 261 267 252 247 225 243 252 261 253 245 266 275 277 275 281 312 296 324 385 458 441

GFSGL_2pvu_pres_066.txt.gz
Presure
191 193 183 203 187 186 194 194 207 183 196 233 234 209 195 190 195 195 190 190 188 189 191 201 199 190 198 189 183 199 200 204 202 200 199 202 211 243 242 261 252 252 247
185 188 179 193 185 213 181 193 196 204 215 199 192 217 217 205 206 195 189 190 191 186 189 190 192 193 194 198 199 201 203 212 208 216 245 238 239 235 234 203 216 225 211
167 183 169 190 194 175 207 208 186 189 190 204 215 204 184 198 205 223 217 218 208 217 217 234 234 233 233 235 231 223 233 195 231 229 212 213 214 212 213 199 185 194 193
174 184 180 160 174 191 193 207 204 186 185 196 203 198 202 208 204 195 194 192 193 195 193 193 199 203 202 202 214 215 219 206 203 209 193 184 190 187 183 185 191 193 193
181 182 170 147 192 173 181 190 203 195 195 203 191 211 213 197 204 203 200 209 202 209 180 183 196 195 195 194 198 187 185 190 191 193 193 190 186 193 191 195 192 205 202
182 179 181 144 188 184 189 187 203 190 192 206 193 199 204 203 206 197 194 203 195 197 195 197 202 211 214 230 224 210 204 205 203 207 212 207 205 202 204 201 195 194 200
183 177 181 191 190 184 192 192 207 200 197 196 213 195 200 201 203 212 212 219 198 199 186 207 194 195 200 235 229 223 217 213 212 208 205 202 203 200 196 203 199 206 206
179 188 192 193 194 194 192 196 206 201 192 193 192 202 198 192 199 205 211 218 195 207 203 195 217 207 209 208 198 220 220 216 216 220 214 212 207 208 209 211 217 218 215
189 191 194 199 192 199 189 193 198 192 191 184 195 194 202 194 203 207 178 210 214 211 214 212 206 199 195 203 211 215 204 215 226 218 216 221 217 214 215 215 221 232 208
200 200 196 194 191 196 189 204 200 199 200 194 196 201 206 202 194 194 203 207 211 215 223 199 206 204 203 165 209 207 214 215 212 217 212 216 225 223 248 244 239 229 227
204 207 203 197 194 194 196 197 204 199 193 201 197 205 204 198 191 208 198 207 203 221 205 212 200 215 205 218 222 221 223 211 222 216 223 216 213 227 226 227 238 210 215
210 199 200 200 194 207 219 204 201 195 196 203 203 202 203 166 204 209 208 221 207 218 210 217 211 219 213 225 217 209 220 224 224 212 230 221 210 237 222 211 213 208 217
208 210 224 216 223 218 212 209 203 203 205 208 202 205 199 208 215 221 216 220 207 230 210 199 210 215 214 204 219 211 213 198 206 229 229 210 214 237 197 217 203 234 223
226 222 214 219 214 206 206 211 213 210 210 213 209 212 216 213 210 224 214 223 216 218 229 225 218 208 237 220 222 227 243 211 189 227 194 204 208 232 228 230 227 213 201
209 219 218 216 215 212 205 210 213 214 210 210 211 218 211 187 221 225 236 219 239 235 235 235 236 229 230 204 215 225 204 211 223 199 206 224 233 222 210 238 235 211 216
217 217 217 217 214 216 213 208 206 169 216 179 198 187 223 221 233 221 236 240 234 234 234 232 234 224 225 234 226 215 233 213 203 229 212 213 238 209 215 212 228 213 225
214 219 219 225 221 186 230 224 181 234 236 184 162 187 190 248 250 253 254 253 284 298 274 267 270 261 239 232 237 184 234 251 242 219 224 237 238 217 229 232 238 227 231
229 235 234 236 234 245 203 247 241 239 243 173 215 256 259 283 300 288 271 282 316 354 397 332 269 252 253 264 271 243 252 257 234 245 230 230 229 226 242 227 238 231 236
240 251 259 260 204 260 268 269 278 274 342 384 226 254 250 306 315 308 316 316 333 331 327 335 343 343 299 262 256 270 250 250 253 245 239 252 240 240 260 248 230 232 244
263 259 249 247 314 327 288 282 372 352 364 364 332 325 307 318 302 303 288 287 275 281 254 289 290 268 268 273 249 261 277 266 264 267 264 231 264 250 267 259 253 246 248
278 275 279 324 368 356 366 359 372 371 345 348 347 300 295 317 290 303 276 269 266 263 251 262 272 258 242 252 274 265 263 265 260 251 253 252 237 228 249 256 255 253 235
367 323 355 343 338 337 342 337 340 358 332 329 331 297 286 316 290 276 287 272 262 266 254 244 251 235 268 257 258 254 243 262 255 245 244 250 250 249 256 247 239 245 246
332 323 316 315 316 309 313 324 323 336 341 324 317 308 294 275 298 281 285 281 274 264 266 247 275 264 247 258 255 250 248 247 254 241 236 242 243 246 248 249 259 247 273
305 300 301 300 305 303 294 292 300 305 320 330 336 305 292 277 255 243 289 276 284 278 263 270 250 253 256 257 263 270 268 259 263 255 247 263 237 254 251 247 238 257 275
293 294 297 299 297 292 287 280 279 289 289 296 320 321 295 275 278 281 266 255 272 254 278 276 276 256 254 252 252 250 269 253 253 255 255 254 240 281 273 273 260 279 291
285 285 286 285 283 283 285 285 287 287 281 288 289 290 302 310 296 283 260 287 276 260 257 283 270 264 261 259 266 273 278 281 268 265 268 277 260 258 277 300 333 315 298

GFSGL_2pvu_pres_069.txt.gz
Presure
182 176 192 192 193 189 199 205 191 209 214 201 197 183 219 251 196 205 201 195 195 192 189 183 183 185 178 181 184 186 187 187 183 187 196 199 202 200 210 195 235 239 217
192 188 175 195 194 183 183 184 206 211 211 198 210 194 209 196 207 218 213 204 195 193 192 190 189 185 183 181 182 183 197 195 193 211 209 218 220 220 213 203 204 209 193
182 182 181 181 182 169 181 193 197 194 200 218 191 198 197 205 204 212 197 196 201 210 195 225 205 195 195 201 207 206 197 195 200 201 195 195 198 195 193 184 183 182 185
172 183 181 180 178 182 181 193 197 200 188 203 197 213 189 194 199 214 198 203 201 198 204 202 203 203 195 195 195 201 200 183 202 198 193 195 196 195 179 188 195 197 193
169 171 186 179 180 182 186 181 160 185 187 199 198 195 208 186 205 187 198 211 205 196 220 204 207 208 206 209 203 205 211 205 206 203 204 208 216 217 213 210 211 207 203
180 163 169 174 179 184 175 185 170 189 192 179 183 198 197 210 194 201 217 197 203 198 193 205 215 210 209 208 205 191 228 206 208 202 207 214 215 212 215 214 207 208 205
185 178 177 184 189 182 181 182 184 192 192 193 198 193 196 207 205 199 179 199 201 203 200 204 212 202 210 210 205 207 207 205 193 216 208 212 215 210 212 200 203 218 219
150 189 192 185 183 183 181 180 185 188 195 195 197 196 195 194 207 194 195 202 197 201 198 209 208 200 202 206 210 203 215 227 203 207 205 198 187 222 217 210 221 208 203
186 186 182 179 187 187 180 186 187 201 195 195 196 193 201 189 205 208 202 194 194 199 210 199 205 205 185 206 208 211 210 219 186 192 207 206 205 221 214 213 214 205 221
189 183 190 188 183 185 192 198 199 196 195 201 200 198 198 194 202 205 199 193 203 196 203 206 207 194 199 209 200 211 220 218 210 222 207 211 204 205 206 204 222 225 218
188 177 183 191 189 192 192 193 192 208 205 200 199 202 195 194 198 202 198 193 202 199 185 170 197 198 200 203 211 218 198 206 231 208 201 205 218 210 201 213 221 205 211
204 200 196 204 200 194 194 197 209 203 200 198 193 196 211 205 215 206 202 202 201 205 205 209 200 199 210 197 207 199 189 196 215 206 196 185 199 219 205 212 212 212 231
217 205 200 209 210 212 213 210 211 207 206 202 207 216 217 216 212 203 199 203 201 198 205 202 203 195 201 200 223 185 186 242 188 187 230 210 232 215 219 224 219 222 216
226 225 223 217 215 218 216 220 221 218 222 224 213 206 215 213 207 206 202 205 202 194 202 199 202 208 191 238 203 213 229 243 216 226 206 228 227 255 198 206 211 220 215
224 225 224 225 222 218 213 212 222 221 222 212 214 215 216 214 209 202 200 190 206 204 213 215 209 209 222 200 216 220 236 224 228 230 225 230 223 228 203 222 227 236 226
217 212 213 212 214 222 215 231 234 236 225 217 219 220 189 219 179 211 221 223 218 207 192 187 220 172 230 236 238 233 235 239 231 235 235 238 242 241 240 241 236 238 241
216 221 222 219 222 227 222 223 223 217 212 214 225 217 222 219 223 225 227 159 162 163 237 242 244 238 238 254 253 247 247 243 263 281 266 259 263 253 250 248 250 242 248
229 227 228 225 226 225 228 238 236 233 236 236 162 229 242 234 217 256 252 246 251 253 252 273 286 278 311 309 308 282 277 281 275 275 290 293 251 265 244 243 230 240 245
228 228 232 234 235 236 235 237 239 251 255 255 248 212 261 256 309 298 287 288 274 270 267 301 301 297 302 312 318 310 326 302 290 281 279 323 322 270 268 248 244 254 252
237 242 241 245 245 251 252 250 257 254 181 309 293 281 358 387 389 375 366 354 352 346 324 306 320 317 307 301 296 306 288 310 311 300 289 290 292 293 301 281 258 257 249
252 251 251 256 258 252 302 299 291 305 338 348 343 338 348 355 356 362 335 335 338 326 311 303 294 298 286 289 292 281 279 277 279 276 266 267 287 287 278 276 278 277 277
300 308 287 298 302 287 309 342 336 330 323 319 324 318 309 316 313 352 345 329 325 326 306 295 291 292 279 280 293 286 273 269 277 272 274 256 263 269 268 254 247 270 269
315 314 314 303 314 321 323 320 317 313 307 312 301 303 303 296 295 297 325 330 326 323 313 301 291 284 298 293 267 283 283 280 269 267 265 266 258 268 256 251 251 258 253
298 293 312 325 319 308 305 305 301 285 300 299 297 295 291 290 290 285 292 283 297 316 323 313 293 282 289 273 289 263 263 280 287 288 258 259 280 279 281 281 274 277 279
334 320 320 311 303 304 297 293 290 288 288 288 286 282 280 280 279 282 286 279 287 282 289 295 300 307 275 273 270 276 272 272 289 290 293 281 286 275 265 263 289 283 295
311 308 304 292 301 291 282 273 265 265 271 277 279 280 280 281 282 281 281 280 281 282 284 286 285 290 293 296 297 281 302 286 260 257 271 287 283 277 272 285 284 283 305

GFSGL_2pvu_pres_072.txt.gz
Presure
190 190 179 197 196 187 189 196 198 211 204 192 180 186 196 182 204 194 235 248 198 192 194 207 183 181 178 176 181 183 183 183 181 183 178 175 178 185 183 199 231 223 200
174 192 188 184 189 180 200 184 192 192 166 205 211 213 204 211 211 174 190 213 220 207 193 200 197 194 194 188 192 186 184 180 174 185 189 183 218 226 211 194 194 188 184
191 187 183 197 186 191 191 186 168 187 196 206 206 199 201 213 194 191 205 205 194 206 212 211 211 205 196 194 190 192 192 193 198 192 194 200 188 189 195 197 207 206 212
178 191 182 184 181 180 181 187 191 180 189 189 192 187 189 203 196 202 206 186 191 202 206 201 203 207 200 203 198 195 196 197 207 208 204 188 192 205 202 201 210 205 201
179 178 173 187 181 184 182 183 182 184 180 179 167 187 188 192 194 177 189 198 211 192 200 187 197 205 198 197 202 217 200 204 216 202 200 207 197 198 214 209 211 207 192
188 189 183 188 175 170 178 189 180 179 193 187 181 184 188 194 181 191 198 196 195 206 209 199 202 212 194 200 213 212 204 221 219 215 212 211 218 212 211 224 214 202 207
183 182 178 186 191 190 172 169 175 178 191 185 183 182 177 188 153 205 201 195 198 191 195 205 203 195 202 204 201 204 209 200 208 205 204 207 208 207 219 213 217 216 199
184 185 183 186 181 182 184 182 184 190 190 182 185 191 182 187 195 204 203 198 198 195 195 193 208 208 203 199 200 200 203 197 199 202 201 196 209 216 214 205 197 222 216
192 193 192 189 188 191 185 180 188 190 183 184 187 190 182 192 195 193 198 204 201 195 201 202 199 202 207 200 194 202 202 210 206 204 206 206 219 180 214 208 195 196 198
190 188 181 182 182 180 188 193 186 180 175 195 193 185 188 192 193 190 205 204 200 202 198 201 194 189 207 197 193 195 203 204 203 201 198 203 203 202 204 216 205 201 203
187 185 189 187 192 194 192 189 182 186 195 182 189 194 195 207 191 189 209 202 200 197 194 195 202 215 209 204 202 201 200 202 198 205 199 214 205 213 216 190 193 189 204
184 193 197 191 185 180 177 182 194 191 187 197 199 196 198 191 206 206 213 207 203 204 204 205 216 212 212 211 209 199 201 201 204 199 195 191 208 202 180 208 220 204 204
203 204 208 201 198 196 198 201 197 195 201 200 195 191 204 209 205 210 206 202 210 213 218 223 210 209 212 213 204 198 210 204 203 202 202 201 207 212 200 230 191 221 216
217 222 201 207 211 240 211 200 229 230 226 218 216 214 216 214 211 215 218 210 205 208 214 206 201 215 154 215 217 209 194 204 204 204 204 213 185 208 233 226 212 230 205
222 226 212 195 221 229 221 232 229 225 226 232 232 230 225 220 220 217 212 215 225 217 214 216 199 191 206 198 201 206 175 214 191 174 166 195 188 236 225 227 229 226 228
225 223 225 225 216 220 222 213 215 218 224 231 219 218 217 205 209 216 228 229 239 233 219 178 200 227 179 203 213 175 209 160 211 240 246 243 240 237 237 236 232 242 241
214 215 223 236 223 218 216 221 223 231 223 236 222 227 226 245 240 233 236 250 229 236 216 217 234 245 243 250 250 245 257 252 260 260 251 250 253 254 254 252 250 250 250
221 225 225 222 220 225 225 217 223 235 223 230 231 232 227 232 243 243 242 246 250 225 255 256 255 259 257 269 266 293 278 295 296 295 288 283 283 288 290 300 293 281 282
227 229 226 224 225 231 231 231 232 234 227 238 240 243 245 254 250 234 253 256 260 271 257 335 295 410 394 377 360 349 366 356 363 342 306 299 298 302 314 295 289 302 305
236 235 235 236 235 230 231 238 249 254 249 243 247 255 251 250 259 252 334 299 258 336 351 363 341 375 375 356 341 342 343 333 332 329 315 316 317 310 307 303 294 291 297
242 242 241 248 247 241 247 253 253 247 248 254 249 241 283 340 269 293 324 334 332 330 328 321 320 310 365 347 334 334 325 314 317 312 302 295 303 303 299 296 293 294 294
246 246 246 247 249 251 253 262 276 297 318 313 290 325 313 326 327 326 320 319 312 308 304 302 305 303 305 314 339 329 325 320 309 305 298 296 298 298 290 292 289 287 301
307 323 318 316 313 316 315 315 316 311 311 307 311 325 322 319 314 307 307 304 301 299 298 301 292 290 293 291 293 291 313 325 331 318 307 303 300 294 281 279 300 300 285
308 306 307 306 179 307 308 306 305 302 293 294 330 321 315 308 307 303 299 295 292 288 291 284 284 283 283 283 284 287 289 287 288 301 311 315 318 314 300 281 281 297 291
299 302 302 303 303 301 299 292 292 296 325 317 317 310 303 302 301 287 280 275 265 279 279 277 280 281 283 280 279 277 274 277 277 276 281 289 291 289 292 293 298 298 297
298 294 291 288 316 313 337 330 317 312 314 311 307 300 294 286 300 289 280 282 282 283 278 277 271 272 272 272 263 277 270 278 279 278 278 285 284 285 289 288 290 290 293

GFSGL_2pvu_pres_075.txt.gz
Presure
190 190 187 188 180 183 191 192 200 198 197 202 215 222 179 208 209 203 199 196 188 193 198 194 199 202 199 193 198 200 201 201 187 188 185 182 182 182 182 184 184 182 182
185 182 183 191 193 194 180 186 183 184 194 198 201 203 200 201 197 202 213 207 202 194 191 176 236 196 201 193 195 193 191 183 183 182 183 183 183 180 181 185 186 187 192
182 172 185 183 188 182 189 180 196 180 174 180 180 181 183 193 191 199 205 200 186 193 196 201 200 209 208 206 200 191 187 189 191 190 189 188 188 190 193 205 205 209 213
181 191 188 182 188 177 183 183 191 179 189 176 179 182 181 190 195 186 190 196 198 195 200 205 202 198 203 208 196 185 170 190 206 203 199 200 185 194 199 206 204 199 196
186 187 180 180 196 181 194 183 181 183 194 182 178 177 180 184 181 189 185 180 190 188 184 186 196 196 209 201 196 193 197 198 202 199 200 198 193 197 206 206 212 207 211
186 188 182 183 182 194 179 180 179 181 181 180 181 192 172 165 161 162 184 179 191 193 185 195 201 191 198 195 200 204 200 199 204 200 194 193 210 199 204 203 201 202 201
185 185 184 187 184 182 183 172 168 183 175 191 184 188 185 180 188 188 183 178 183 179 191 194 203 180 173 197 195 198 195 201 204 204 196 199 198 193 200 196 193 189 198
175 185 189 188 182 185 185 186 185 185 180 178 176 183 173 169 188 190 182 184 184 185 185 189 188 191 193 204 201 196 197 193 194 194 201 208 204 197 195 201 198 208 195
191 172 172 177 193 193 188 182 185 187 191 192 187 184 171 173 172 190 189 181 189 193 185 189 191 192 193 192 203 196 194 197 200 190 183 214 213 205 187 197 196 203 202
194 191 165 194 189 168 189 190 193 194 191 190 191 191 182 188 192 184 184 187 195 188 188 194 194 198 191 193 210 202 200 201 205 204 206 212 215 221 213 209 205 205 198
184 185 191 191 190 182 196 183 192 186 185 182 191 181 188 195 189 189 189 180 209 202 186 199 206 189 197 206 204 206 198 205 203 199 201 213 206 206 212 213 205 200 202
197 190 194 195 193 193 193 174 184 185 191 197 198 207 198 193 194 197 191 202 203 204 204 205 198 209 223 215 206 204 198 203 208 209 212 217 202 204 206 213 211 203 198
204 203 195 200 199 193 199 194 197 201 192 192 191 184 190 212 201 203 202 205 195 197 209 212 214 217 216 216 214 217 218 214 208 216 225 210 200 211 207 206 212 210 212
193 194 199 200 196 202 193 199 193 209 205 211 213 210 211 201 199 200 198 225 230 231 226 224 223 222 225 218 211 209 218 209 211 229 231 214 211 212 211 200 194 187 197
204 210 205 208 205 212 203 225 206 200 196 200 214 195 181 212 230 233 224 234 222 217 219 225 228 225 214 206 205 206 206 206 177 232 235 222 224 224 213 172 226 197 213
223 218 224 224 221 231 204 230 225 231 230 232 227 230 226 219 238 219 230 218 214 218 230 226 224 207 222 225 223 168 206 222 253 225 240 242 227 214 224 236 244 246 249
218 223 218 217 226 231 227 222 219 225 226 224 235 224 228 229 237 231 234 237 228 226 233 164 234 231 243 260 234 258 260 254 252 260 268 257 263 266 255 274 286 270 282
220 223 224 223 229 228 220 215 219 226 224 225 227 236 230 227 232 232 235 238 241 242 239 244 222 257 254 254 272 266 290 304 291 289 331 406 389 382 387 370 362 380 384
225 227 230 228 228 232 229 230 234 233 234 227 229 236 236 237 237 237 242 237 238 240 255 252 255 264 277 292 335 287 361 350 354 341 342 385 375 355 345 341 340 336 343
229 230 228 225 227 224 228 234 232 228 239 248 247 248 247 249 263 265 249 252 249 261 272 287 313 335 296 332 337 338 331 327 322 319 317 316 325 355 348 337 329 320 314
242 238 234 185 240 241 241 243 245 254 239 244 249 247 241 254 252 244 266 279 294 338 321 284 311 334 330 326 316 313 309 307 306 305 302 305 302 304 294 318 333 342 325
259 259 258 253 258 260 260 261 253 254 251 252 253 247 269 275 296 324 297 331 320 319 311 323 325 318 314 310 304 305 306 296 294 293 293 294 291 288 286 290 294 295 302
264 265 266 269 268 268 269 270 278 313 286 292 318 321 323 322 322 322 316 313 306 302 316 324 325 314 310 307 307 301 294 278 284 284 279 282 284 282 278 277 277 278 279
308 313 309 314 331 333 318 309 314 325 323 320 318 319 317 314 308 307 309 297 336 327 320 315 313 313 309 307 307 294 284 281 283 291 277 269 275 273 274 267 274 274 277
327 324 324 323 321 319 318 318 315 316 315 310 307 306 299 316 354 345 335 328 318 310 310 304 302 304 306 304 300 283 275 263 262 271 286 282 282 297 306 313 382 402 362
311 312 311 312 310 309 306 304 301 300 296 297 308 337 327 314 309 306 304 302 300 299 293 286 280 276 276 278 277 275 288 288 299 332 359 428 432 428 423 423 427 426 425

GFSGL_2pvu_pres_078.txt.gz
Presure
182 190 186 194 177 196 196 203 209 215 195 190 188 187 189 190 188 184 183 181 182 188 201 197 188 200 201 191 191 182 187 192 199 202 191 202 201 195 191 193 192 190 190
177 188 190 195 179 194 193 193 194 206 207 209 212 209 207 210 211 174 212 214 195 194 190 206 196 198 200 196 185 183 214 207 200 191 196 190 184 182 179 185 186 187 184
200 187 188 189 194 191 184 186 186 192 191 185 192 199 195 198 201 203 207 205 208 205 201 189 199 199 200 210 204 205 219 210 206 190 193 197 185 178 178 182 179 183 186
197 184 191 175 189 182 179 189 188 183 184 173 182 180 188 184 179 177 181 192 190 191 191 193 192 190 193 199 203 203 202 201 201 195 199 196 195 195 196 197 199 202 203
182 187 187 190 177 170 184 185 187 179 173 184 187 183 174 172 188 188 173 167 173 173 172 172 173 183 184 183 190 190 191 178 183 203 198 195 191 193 200 201 202 198 197
181 175 189 187 189 183 184 184 181 182 190 188 184 185 172 173 177 178 179 177 167 184 181 185 178 174 196 195 192 186 181 199 194 193 198 195 186 193 202 201 196 189 193
192 180 174 189 188 186 189 181 182 188 189 178 184 174 183 183 184 180 182 176 186 171 170 165 169 173 174 173 178 181 187 194 194 195 194 200 195 192 192 182 189 191 190
189 184 163 186 182 182 182 176 184 180 183 187 185 178 177 172 181 181 187 185 185 188 182 176 186 187 183 184 183 185 193 188 189 188 195 195 185 204 198 196 190 196 186
187 184 184 179 177 167 177 188 181 185 183 181 186 183 181 186 184 182 177 170 176 176 171 168 179 183 187 184 180 183 199 187 184 202 201 197 193 202 211 203 198 191 190
187 183 186 162 184 189 187 172 174 183 183 184 188 192 186 186 189 193 196 191 192 184 189 182 173 195 191 175 184 183 201 183 183 196 200 188 189 207 211 204 206 205 202
181 186 184 189 189 195 189 176 184 158 168 184 188 186 192 189 193 182 184 184 182 177 188 174 192 203 189 186 181 182 198 203 191 200 207 210 211 211 213 207 201 203 213
185 176 169 186 190 182 183 194 193 194 196 199 193 191 184 180 182 180 178 189 195 193 199 194 191 193 193 204 208 201 201 198 214 221 216 215 215 216 218 218 212 216 205
193 196 195 192 183 182 178 177 178 188 196 149 195 196 154 200 203 183 186 197 198 202 193 207 211 214 207 215 203 204 196 199 223 225 227 224 221 224 228 222 226 221 205
196 200 199 192 192 193 194 202 198 202 204 206 205 207 209 208 209 202 204 205 198 209 213 202 201 203 209 204 204 211 212 228 217 217 211 205 207 220 225 224 213 216 212
193 199 211 208 193 193 194 197 200 200 195 204 206 202 205 208 211 207 209 201 203 204 207 212 200 220 208 214 216 192 239 214 228 218 221 208 222 213 231 222 215 214 216
207 195 193 193 195 199 206 205 206 210 207 208 208 207 207 208 222 222 224 201 202 234 235 240 219 212 222 207 217 227 234 235 226 240 217 241 247 246 247 264 252 244 263
214 214 219 222 219 213 210 208 213 215 214 213 207 204 223 222 227 235 228 236 235 214 236 211 201 232 193 239 234 240 238 255 259 271 261 250 253 250 260 341 332 348 360
226 225 225 224 225 224 218 218 218 214 215 219 229 231 231 229 231 228 228 231 235 240 235 236 243 238 244 247 255 254 254 258 249 262 261 282 324 303 350 348 345 332 332
235 231 226 209 225 225 226 228 229 230 224 223 229 235 226 229 237 224 226 237 236 239 240 238 244 243 250 244 255 255 262 240 258 320 317 327 333 340 333 330 325 323 317
224 226 228 227 227 227 228 230 210 236 237 237 237 236 231 231 226 233 241 238 238 242 248 243 240 257 255 241 260 255 330 331 292 321 337 317 330 326 321 320 315 314 312
228 232 236 238 240 238 240 238 243 242 232 235 244 245 241 235 239 230 244 241 251 259 254 250 271 302 328 294 287 322 325 322 322 311 341 325 322 320 320 314 312 307 301
240 239 245 251 252 248 250 249 252 252 251 249 248 240 251 261 271 268 285 277 280 287 302 280 329 324 289 325 321 325 314 343 337 335 327 324 321 318 315 311 309 309 306
262 257 235 267 275 277 282 285 286 282 279 274 277 279 283 282 278 303 307 293 333 323 336 309 321 320 320 316 337 354 340 336 329 319 314 311 306 301 293 289 289 280 278
272 274 278 279 279 279 276 280 289 291 293 291 292 271 329 307 298 331 335 329 325 321 320 320 310 309 334 323 315 314 311 308 303 298 287 284 282 280 281 284 287 292 295
294 291 289 287 289 297 302 299 298 294 296 293 306 327 326 322 320 319 318 315 311 308 308 343 337 326 315 308 301 292 284 282 278 273 280 283 286 301 302 345 437 435 432
325 306 304 301 297 308 324 324 322 320 318 316 314 309 313 307 306 319 338 336 330 317 311 308 303 293 285 283 281 282 284 289 298 306 343 410 435 432 428 423 416 414 411

GFSGL_2pvu_pres_084.txt.gz
Presure
196 215 213 204 204 191 207 192 216 201 168 217 212 204 203 201 203 195 190 196 206 210 194 193 195 191 183 177 173 176 196 186 197 205 197 186 187 188 193 184 194 195 190
183 210 207 203 201 186 210 165 167 216 214 208 215 207 202 200 199 199 195 187 185 187 187 189 174 173 172 182 181 179 174 190 186 178 183 203 208 207 200 194 211 211 213
208 204 201 202 190 190 206 191 200 181 210 175 203 208 210 206 202 185 185 185 186 185 181 185 183 184 177 174 189 188 190 193 196 189 206 204 198 191 197 187 174 183 194
208 202 200 200 193 180 201 177 191 184 199 218 185 203 184 191 194 186 183 184 188 186 182 184 173 180 181 184 194 193 204 200 208 191 194 189 182 182 182 182 176 173 182
205 203 194 201 198 181 198 193 183 190 190 201 219 188 194 194 185 186 188 189 183 186 188 187 188 189 185 192 201 201 198 194 188 178 169 182 182 177 177 172 174 182 177
202 204 192 199 192 187 193 187 197 185 184 199 185 190 210 192 198 195 192 191 192 183 190 186 199 194 196 196 176 191 191 181 176 170 178 178 171 179 172 171 172 172 166
194 204 178 188 171 188 192 183 186 198 181 175 195 184 185 177 167 199 208 195 200 200 199 193 192 191 187 180 179 176 180 177 178 177 174 177 177 177 177 172 183 171 173
203 201 200 191 186 171 186 200 179 181 200 187 185 189 195 182 186 178 173 172 177 182 183 183 179 168 184 179 177 181 183 175 172 171 176 176 173 172 173 177 175 181 179
199 198 200 193 189 196 183 188 201 185 183 181 179 175 174 184 191 183 188 188 177 178 175 174 177 180 179 180 181 179 179 180 169 180 182 178 174 190 191 190 189 178 184
204 198 197 192 192 185 180 186 184 196 199 198 173 180 176 173 173 164 178 179 171 168 178 182 173 172 181 180 175 159 173 179 181 181 187 172 183 181 191 187 186 192 182
202 199 193 198 190 192 191 181 182 186 191 190 193 177 171 180 177 178 174 175 176 177 168 176 182 192 187 183 182 170 161 174 177 175 179 192 190 176 183 205 207 185 204
210 206 188 215 195 187 192 196 186 191 178 176 198 198 189 180 187 189 190 185 182 186 182 184 184 187 186 193 188 192 193 167 175 202 198 201 208 209 211 209 204 205 206
204 204 201 205 185 215 192 188 189 213 194 194 192 189 193 161 194 196 201 194 192 190 183 174 165 186 146 185 195 192 193 195 201 203 202 207 199 204 205 205 203 207 207
211 206 198 200 203 195 193 201 192 190 191 192 194 193 204 195 195 192 186 191 194 196 196 197 196 196 196 196 204 208 205 201 205 199 192 209 211 208 206 214 209 213 201
192 204 214 213 198 209 203 200 187 198 193 193 194 194 189 190 201 201 185 193 189 201 204 199 198 214 214 216 207 204 205 211 203 218 216 218 220 219 220 224 214 210 221
219 219 209 206 208 207 200 199 194 195 203 201 198 202 207 207 209 211 206 205 205 188 196 212 206 211 212 202 206 206 208 220 220 224 224 227 224 216 214 213 215 231 235
214 221 224 229 208 201 210 212 198 195 194 198 201 195 193 195 197 197 193 192 210 209 207 211 205 210 210 209 216 219 224 219 219 228 223 206 223 225 227 229 238 214 249
211 214 219 219 217 220 222 217 229 229 228 220 222 217 217 215 217 212 212 207 207 205 216 222 219 215 218 226 224 223 225 229 229 234 226 232 235 225 247 238 231 249 257
223 224 222 219 219 220 221 220 218 215 218 220 218 216 213 219 217 219 215 201 215 219 224 226 226 222 231 230 232 228 229 227 224 233 231 240 239 241 235 258 280 287 296
226 229 223 220 222 224 226 226 226 225 224 225 233 230 229 228 227 222 220 232 237 240 238 231 229 235 237 237 212 233 241 242 236 238 245 229 249 254 276 280 305 350 332
239 234 226 219 220 222 225 226 225 224 221 223 221 222 224 242 242 243 243 239 240 238 242 239 235 234 230 248 246 235 238 234 268 260 245 297 309 318 304 317 339 331 321
233 238 247 242 236 237 241 242 242 241 240 238 241 239 241 246 246 249 247 245 239 240 242 244 233 248 247 240 231 255 265 271 309 309 308 311 302 320 324 325 331 316 343
246 247 247 246 246 246 246 244 244 247 246 244 246 247 247 245 247 251 252 253 255 256 262 260 265 264 273 290 304 303 309 296 294 328 335 328 339 343 334 321 320 314 301
252 251 249 251 253 252 252 253 253 253 252 252 254 260 262 265 267 268 273 269 272 278 279 309 311 320 318 300 297 318 321 340 336 335 342 327 322 312 303 293 290 291 290
261 260 260 258 259 261 262 263 264 267 269 269 273 274 274 281 290 311 308 317 320 306 306 293 328 315 293 344 350 333 334 326 319 313 305 298 292 306 300 333 342 366 385
305 307 307 310 314 313 313 315 314 316 314 309 303 306 301 290 291 314 308 322 330 323 331 336 330 332 334 327 316 307 303 296 294 312 348 369 403 406 396 386 391 391 403

GFSGL_2pvu_pres_087.txt.gz
Presure
192 226 211 224 192 226 196 212 206 201 193 244 237 210 222 209 214 206 198 211 212 196 200 209 209 214 203 205 199 194 204 204 191 188 179 172 182 190 187 190 194 185 172
252 223 210 219 186 211 208 208 202 201 203 184 229 212 209 213 205 202 199 218 192 223 211 196 212 204 184 202 208 198 192 200 172 173 178 182 173 177 186 181 197 204 211
213 212 215 201 190 202 205 204 194 211 197 203 226 211 199 201 201 218 202 215 206 218 215 206 204 213 209 192 188 184 174 175 183 179 176 175 183 188 204 192 213 196 192
218 199 208 206 188 214 203 201 191 205 196 231 160 184 193 204 206 202 196 195 199 200 196 193 192 187 188 190 183 182 185 175 178 182 194 190 203 208 204 196 186 168 175
194 193 212 205 189 214 203 199 200 181 194 190 223 200 205 181 213 203 192 200 200 192 190 191 187 185 191 186 179 177 178 183 190 189 193 199 191 193 191 179 179 177 177
210 199 208 204 190 201 204 200 179 195 204 181 191 183 200 199 189 200 191 175 180 192 187 183 181 180 181 182 184 183 186 187 191 203 198 183 178 180 178 174 176 174 172
212 208 215 203 207 204 203 198 202 183 199 178 180 175 188 202 201 177 188 192 194 193 192 191 190 187 179 178 181 188 192 187 173 182 185 172 176 176 180 179 175 171 173
225 210 217 211 196 203 203 193 195 191 174 192 190 195 181 185 197 201 198 173 171 171 173 184 187 191 195 200 199 197 196 191 182 176 174 177 173 172 173 164 176 178 174
224 218 218 213 197 211 201 197 191 194 190 194 188 190 191 197 188 173 199 198 194 187 188 183 186 183 186 181 173 177 173 165 172 179 175 174 173 173 174 165 178 172 164
200 227 226 215 196 212 193 203 193 191 179 176 180 187 181 182 179 184 181 174 173 177 178 179 180 181 170 175 180 178 185 173 183 183 172 183 190 183 179 170 173 182 187
211 223 208 222 208 205 199 194 202 190 193 191 190 187 188 196 188 185 184 176 176 169 176 172 170 176 176 159 179 177 180 174 171 183 183 175 185 189 180 188 192 192 195
227 219 205 215 212 194 194 199 179 198 191 190 192 192 185 187 188 188 202 202 184 177 176 177 183 181 187 184 190 188 183 182 182 169 158 166 164 164 192 189 192 204 195
223 218 206 213 215 202 215 195 191 191 191 189 185 198 192 198 184 185 180 184 190 194 202 158 196 197 199 200 195 176 199 200 196 193 198 192 194 189 192 206 203 186 206
233 216 207 207 214 213 213 182 216 193 205 196 193 207 190 197 199 189 192 197 204 196 196 194 194 164 200 200 198 196 186 188 192 197 211 207 213 201 204 201 216 189 212
223 218 208 224 223 201 196 207 198 201 191 191 196 193 183 202 201 202 201 191 199 190 194 199 193 195 196 204 205 212 210 198 191 211 205 203 212 220 210 202 217 212 218
226 223 225 209 212 213 217 190 207 206 212 216 211 206 207 207 202 207 214 198 192 203 206 216 206 205 208 201 206 203 194 207 212 202 215 208 217 202 233 224 224 222 225
221 231 227 226 216 204 200 213 190 209 202 209 208 199 200 203 189 194 194 199 203 203 195 200 203 202 195 199 207 212 215 219 204 213 212 209 217 222 219 217 235 218 222
228 238 220 208 218 203 217 226 215 221 204 213 206 211 213 206 233 218 224 217 212 208 204 206 211 213 216 217 213 206 205 214 217 224 223 221 223 229 228 237 234 244 237
227 226 220 227 231 225 215 215 187 221 220 221 209 215 239 225 230 221 218 214 217 218 217 217 217 214 214 218 219 225 228 227 224 234 237 228 227 240 245 238 245 233 235
229 231 232 233 218 221 219 214 215 218 215 217 216 217 221 215 213 211 213 221 226 228 227 226 228 227 227 225 224 225 234 238 236 238 242 241 241 242 237 250 256 265 273
239 238 226 238 225 228 227 222 233 236 221 213 215 214 218 226 227 222 225 227 234 225 228 229 224 224 236 238 237 244 241 240 240 235 252 254 239 245 271 272 269 293 307
238 246 241 241 237 235 227 226 228 229 227 224 223 227 227 234 227 227 231 232 227 227 230 232 237 244 244 246 241 246 253 252 251 242 268 271 280 272 292 317 307 336 324
257 260 242 247 243 240 240 242 238 236 238 238 240 237 237 223 226 230 234 239 246 246 248 244 253 255 257 248 264 259 255 267 273 278 285 293 305 285 290 327 348 343 332
259 265 254 265 268 252 251 250 246 247 252 249 240 240 240 245 248 248 254 260 260 257 240 261 258 263 263 266 266 280 285 306 301 315 290 307 334 343 339 329 317 308 303
282 280 267 263 258 256 262 272 276 276 272 269 255 277 272 269 267 260 266 269 271 267 256 260 264 265 294 301 312 296 288 297 342 343 334 331 323 312 309 322 400 410 406
286 296 304 305 297 286 275 263 259 267 268 266 265 263 263 263 263 260 257 259 262 283 308 303 294 290 295 313 338 338 331 324 315 316 313 320 357 418 432 446 466 460 451

GFSGL_2pvu_pres_090.txt.gz
Presure
177 206 197 201 203 240 231 213 220 210 205 201 209 205 225 255 245 236 232 219 208 233 217 223 220 229 199 185 181 184 187 197 198 196 194 201 201 206 184 192 175 179 188
203 190 190 189 190 237 221 217 198 183 219 211 207 191 229 236 224 229 210 211 214 209 211 210 201 220 221 218 203 196 198 194 200 206 203 202 195 183 192 182 174 180 170
181 205 197 190 192 242 209 222 200 210 201 207 202 206 185 226 209 210 213 199 208 204 198 197 202 200 199 205 218 202 201 206 201 200 198 192 197 185 174 183 179 182 180
200 196 189 199 202 240 207 217 198 207 205 202 185 194 219 217 209 222 172 196 206 201 201 210 222 197 217 211 202 201 203 213 208 192 187 185 177 180 173 172 176 192 190
186 184 198 203 212 222 208 212 214 204 210 206 199 211 204 205 199 205 174 198 202 196 206 196 207 209 214 196 208 197 198 197 191 183 181 184 178 171 171 188 192 198 177
201 176 162 188 198 222 214 209 188 201 211 206 196 198 219 182 203 204 179 173 198 211 191 200 204 199 197 199 202 205 184 187 188 179 177 181 182 188 194 193 186 193 171
203 186 192 197 195 209 204 214 185 196 208 200 191 196 194 218 163 199 206 184 184 198 201 196 202 201 196 191 186 188 183 181 180 177 182 181 186 183 183 188 183 185 179
191 202 198 200 201 207 192 209 188 197 206 199 196 190 186 181 197 195 193 194 188 184 190 189 188 186 186 187 188 187 192 192 192 188 186 195 200 195 189 189 180 182 176
206 225 216 250 266 203 199 206 207 190 196 201 193 194 192 180 184 168 172 174 182 192 190 187 183 181 181 179 196 182 176 176 174 197 156 174 176 181 172 176 182 182 182
216 228 241 281 201 232 213 204 206 197 202 198 198 193 198 188 192 184 187 188 187 179 196 201 197 196 187 186 186 191 198 195 186 182 192 184 182 176 182 179 180 178 182
227 268 281 261 255 240 213 192 214 204 196 198 203 196 194 198 188 190 176 185 184 187 193 179 172 174 182 187 185 180 180 180 176 176 182 170 178 186 187 177 177 181 176
250 268 251 260 246 250 193 224 214 217 198 196 203 196 204 191 195 191 185 192 187 183 186 184 185 184 183 174 170 179 176 185 184 187 190 192 194 195 196 202 174 192 185
261 247 251 253 241 249 216 207 226 215 208 194 201 199 197 202 199 188 195 192 192 190 191 190 198 198 192 189 186 193 193 171 164 198 200 185 169 191 160 193 185 174 190
252 250 248 250 242 224 226 206 210 218 220 184 192 203 200 195 196 200 196 194 191 198 199 209 179 208 197 205 178 184 191 192 203 199 193 193 173 198 200 193 202 196 208
250 232 242 245 238 240 223 218 212 220 206 210 209 179 199 199 200 194 198 197 202 207 210 192 193 175 201 210 215 220 185 199 184 190 204 204 205 204 206 211 217 223 221
247 238 236 236 236 235 232 224 218 218 211 213 200 216 202 190 203 195 210 201 208 198 201 204 202 206 210 216 222 223 209 199 209 201 209 217 205 206 212 217 223 211 223
238 245 235 228 236 230 223 228 223 230 213 205 217 225 216 223 215 234 226 222 213 196 206 207 210 219 218 225 195 212 215 207 195 208 212 209 204 216 217 220 212 220 216
250 244 229 237 236 245 229 220 225 215 212 220 217 195 198 228 204 202 209 221 201 199 204 217 209 214 213 210 210 202 203 210 221 214 213 210 216 216 221 222 223 208 215
255 239 245 233 235 225 239 230 232 223 224 222 214 228 207 204 210 216 215 210 214 214 220 217 201 226 209 207 218 218 215 228 247 215 206 224 221 218 228 230 219 233 227
240 254 237 237 241 236 227 232 231 231 217 226 218 215 230 228 221 207 202 199 202 200 205 211 218 217 220 222 236 222 213 225 228 224 220 226 232 224 243 240 227 242 245
262 240 259 250 229 245 238 234 236 235 228 237 226 227 224 219 214 219 216 216 213 215 223 221 219 226 227 230 226 220 220 224 220 223 237 223 239 232 224 238 232 255 247
242 264 237 252 271 252 248 243 242 243 236 240 239 232 240 236 233 240 237 233 240 239 237 233 235 225 228 226 229 229 232 235 237 242 234 225 239 235 234 251 248 248 269
264 259 251 267 258 239 244 250 246 241 241 242 243 239 248 241 240 238 232 234 233 233 234 237 230 238 239 242 245 241 240 232 221 234 244 242 232 241 275 277 273 268 280
298 296 272 264 266 262 265 277 257 255 254 250 252 252 249 240 244 243 248 245 248 243 244 242 244 239 235 226 235 237 254 256 247 227 247 245 275 274 272 269 276 262 323
266 276 289 299 306 306 278 274 275 284 281 257 261 264 255 254 257 254 258 251 254 251 252 253 254 253 247 242 235 233 250 254 245 279 281 256 287 341 255 265 286 324 324
318 317 315 298 287 288 291 302 311 292 279 305 293 262 276 256 262 268 269 268 266 267 257 252 252 242 243 251 257 281 287 295 279 309 285 295 307 328 325 336 360 413 434

GFSGL_2pvu_pres_093.txt.gz
Presure
193 195 157 191 182 202 201 214 273 245 226 228 206 213 221 208 201 203 198 204 203 205 205 211 206 207 212 216 203 200 201 205 202 202 206 216 204 197 196 199 195 201 203
192 193 188 178 180 194 192 206 262 233 225 224 202 217 200 202 205 215 260 254 244 236 205 203 195 203 200 198 193 206 205 198 212 216 200 191 195 183 187 193 203 203 198
195 197 192 200 182 211 196 198 207 247 219 220 192 212 195 203 207 225 250 238 227 218 219 224 231 208 206 227 235 201 236 207 207 190 188 191 194 199 206 207 198 190 190
187 189 191 200 211 195 196 212 210 213 193 211 197 210 200 203 215 210 239 216 221 211 214 186 208 211 210 211 211 204 196 204 209 211 211 208 207 211 210 204 180 193 186
197 197 207 214 204 224 209 195 207 205 205 218 202 194 200 194 209 215 224 174 217 208 213 206 198 214 202 173 202 204 204 206 207 206 194 190 198 204 200 193 189 198 180
209 202 215 170 169 163 210 191 195 214 219 211 202 188 190 196 191 211 210 214 203 205 220 211 211 154 210 197 190 222 203 220 226 210 207 193 189 187 191 185 189 175 177
202 192 196 180 181 189 191 186 218 216 218 205 191 202 202 201 186 214 203 199 212 192 199 184 195 204 212 210 187 193 202 203 197 193 190 198 194 183 190 178 179 179 180
199 193 202 187 182 183 197 188 204 213 218 209 199 202 195 200 183 196 195 205 198 199 180 206 196 189 200 200 201 186 189 196 199 191 192 188 180 179 177 186 192 180 174
194 186 202 189 200 189 197 198 192 180 203 204 209 187 194 205 196 185 190 193 201 191 191 194 196 192 184 188 193 195 191 185 177 179 182 184 190 194 196 183 184 190 198
200 191 196 188 206 191 198 191 200 188 195 190 201 204 191 195 196 194 182 186 189 189 165 164 173 174 191 189 185 186 187 187 187 193 195 187 182 177 179 173 197 200 193
221 207 201 191 188 226 191 186 201 206 194 202 202 202 197 197 205 196 196 180 184 180 181 183 175 168 171 174 182 184 190 189 185 189 190 191 196 200 172 203 193 180 185
231 219 214 208 202 212 227 214 209 203 193 209 199 201 201 196 196 200 198 196 190 186 192 186 187 192 188 182 175 189 186 182 180 185 182 185 185 182 181 180 181 193 190
219 221 223 238 236 238 235 207 212 211 205 233 242 236 204 204 196 206 199 200 192 198 193 185 192 189 185 187 185 187 192 193 194 197 192 183 192 192 190 181 186 201 188
214 219 229 239 224 220 229 197 201 224 250 235 232 218 230 216 201 199 206 195 198 204 199 196 199 193 192 183 189 191 191 193 194 193 181 202 197 199 201 185 185 197 183
222 222 228 238 218 232 251 227 277 264 242 250 238 235 230 204 211 216 202 195 200 204 204 199 205 207 203 190 187 194 193 181 187 207 193 219 197 183 196 200 193 203 221
236 232 233 238 217 236 246 236 267 262 260 248 240 233 229 227 221 222 217 205 201 198 199 206 205 206 203 197 203 206 204 205 218 226 199 217 210 225 211 224 213 182 212
230 227 226 227 232 229 238 232 260 252 254 248 240 232 235 236 215 211 233 225 211 194 201 191 195 189 207 206 195 204 212 211 197 213 203 223 223 189 222 209 231 229 223
229 228 231 226 233 233 241 223 262 248 247 255 243 238 230 229 223 223 213 210 224 228 225 205 215 207 212 211 206 203 216 212 226 215 200 212 211 221 215 221 219 219 214
249 242 241 242 245 227 240 228 244 260 243 241 242 247 241 235 232 226 227 216 215 225 222 214 217 214 220 229 226 221 224 226 218 214 211 223 212 215 215 205 213 214 226
254 255 257 256 246 244 241 227 229 254 245 243 244 239 241 232 238 233 237 223 229 224 234 225 216 225 233 225 208 196 216 223 217 217 218 217 216 214 212 230 226 222 223
278 274 274 269 264 260 249 250 255 246 251 256 241 241 239 241 246 228 229 230 237 231 228 230 231 215 213 209 223 230 233 227 209 217 219 216 227 228 236 227 226 239 238
306 274 268 272 263 264 262 255 250 244 252 260 255 242 241 247 237 248 241 232 225 229 239 229 225 226 228 231 223 222 223 226 225 225 232 237 231 222 228 235 249 244 238
276 290 302 291 274 265 265 267 267 258 267 250 264 255 252 248 242 240 244 246 241 244 241 233 229 229 229 230 229 229 227 229 235 238 233 242 249 250 243 245 232 248 256
299 280 275 283 296 306 292 281 271 269 277 258 275 254 272 263 251 251 252 242 243 243 246 242 243 245 244 243 243 247 245 243 246 247 240 242 248 255 261 256 239 240 258
328 318 319 319 310 284 279 294 309 310 290 279 282 265 274 270 258 268 278 258 257 262 262 255 255 256 235 258 253 251 253 245 233 239 232 250 241 240 259 265 254 269 263
405 400 394 367 324 328 327 317 313 294 284 295 304 315 302 291 284 282 277 276 270 246 243 243 256 256 257 256 255 261 267 267 267 267 269 265 256 263 292 317 322 315 293

GFSGL_2pvu_pres_096.txt.gz
Presure
194 193 200 187 197 194 170 186 201 191 206 354 303 276 261 232 235 221 224 227 217 217 223 226 228 236 231 213 209 208 201 199 200 204 197 196 196 199 190 193 201 204 196
186 205 191 193 191 202 180 200 204 189 217 285 263 252 223 227 215 205 217 211 203 207 209 214 216 221 224 222 215 207 206 204 202 200 202 203 200 163 195 198 197 205 176
210 205 193 200 205 165 191 197 182 192 209 227 248 221 221 205 208 215 204 205 205 200 195 203 203 217 208 216 216 212 213 206 207 200 195 193 193 193 191 209 208 194 189
206 204 197 202 194 190 198 200 196 188 200 220 227 198 214 196 210 209 203 199 234 247 251 240 224 206 201 205 202 200 195 199 197 195 193 190 194 190 195 197 182 210 215
207 204 190 199 186 202 192 199 198 180 191 212 203 220 214 163 205 199 194 208 223 235 232 222 226 220 195 192 194 193 196 191 191 190 191 215 229 224 220 218 206 196 192
195 200 193 206 192 203 193 195 193 208 204 196 202 220 172 191 191 199 201 200 224 194 235 226 231 216 203 206 224 220 222 215 207 207 206 206 204 205 192 203 206 207 196
199 191 209 199 195 188 197 191 195 196 219 230 196 212 212 201 192 196 193 197 201 218 213 225 207 172 204 210 208 190 200 212 211 192 199 202 212 205 205 222 178 186 191
200 197 199 185 209 178 204 200 183 205 196 214 196 201 217 205 202 198 190 193 193 216 212 215 205 199 200 201 196 196 202 199 194 208 191 206 192 194 188 186 184 183 186
191 193 190 192 195 198 189 183 162 203 182 194 174 209 214 218 192 199 196 191 189 197 213 203 201 204 203 194 201 205 176 181 195 201 200 197 187 184 193 201 192 188 182
203 197 196 197 204 207 200 191 196 169 194 178 195 206 215 206 208 195 201 192 194 191 182 199 193 203 199 198 200 200 203 205 195 186 186 193 193 195 192 186 183 187 192
205 199 196 202 205 206 203 203 189 192 199 203 204 205 200 188 197 212 197 196 192 196 193 182 183 189 196 197 199 197 188 193 167 164 193 187 172 172 184 188 191 187 190
211 212 202 201 194 193 190 192 189 199 203 195 193 185 203 183 182 197 186 206 190 191 193 195 192 188 181 181 184 193 195 192 195 192 187 189 191 191 191 190 188 186 183
198 210 212 204 196 206 194 204 203 194 193 199 200 183 206 215 203 213 184 186 197 208 203 197 166 193 191 184 179 179 180 178 176 180 181 184 192 195 193 180 183 186 187
214 212 214 209 193 202 205 193 192 198 199 194 206 186 202 201 205 199 230 228 226 191 187 184 200 207 197 194 192 192 189 184 177 192 162 178 194 193 192 189 190 192 197
220 210 203 212 216 216 208 203 208 213 213 215 208 203 198 202 208 209 228 237 224 227 207 247 224 210 195 195 202 201 198 196 189 188 193 189 192 167 171 175 192 193 190
227 221 214 221 218 214 219 215 225 212 218 226 223 224 237 228 225 240 230 227 233 202 224 235 220 193 207 203 206 197 201 200 196 198 196 202 197 196 203 207 209 208 214
216 226 229 228 225 220 214 225 216 217 223 222 228 232 241 201 236 229 224 250 236 237 237 228 232 212 222 217 210 205 204 195 196 196 207 211 212 206 209 209 203 211 212
238 230 227 237 226 228 227 230 228 226 229 232 229 219 239 222 218 233 265 263 252 244 237 237 231 227 229 211 205 218 183 213 203 212 206 203 207 211 213 208 184 215 222
262 251 248 243 237 236 236 231 234 234 231 232 236 233 239 218 217 241 229 259 263 250 246 240 242 244 236 212 190 226 224 215 224 215 218 217 218 224 224 219 224 223 218
289 281 266 260 253 251 248 248 249 247 247 249 242 238 236 237 239 236 252 239 258 253 255 252 241 239 238 234 232 229 227 211 208 210 216 218 221 228 225 220 215 224 224
326 304 315 328 283 266 246 240 246 246 242 241 240 241 241 235 240 243 235 253 238 261 251 255 248 247 240 242 234 236 236 232 233 230 232 235 228 228 235 222 235 238 241
313 304 295 295 304 323 322 299 280 264 257 250 249 248 249 249 253 250 251 241 251 239 266 256 249 257 252 237 234 241 239 235 235 236 238 239 233 235 239 237 233 237 238
310 306 314 302 285 288 308 309 300 306 312 293 282 271 266 263 264 264 262 256 252 243 247 246 265 254 240 253 252 254 251 246 246 248 241 239 239 233 237 238 237 237 232
308 316 318 308 305 313 299 289 295 302 303 310 319 304 291 287 283 280 280 275 268 267 264 261 251 263 273 256 254 246 244 248 251 250 254 251 251 249 243 244 243 249 254
305 307 309 314 319 326 335 320 315 308 299 290 291 305 317 314 293 282 271 271 256 271 274 264 265 255 255 255 261 236 235 253 254 256 258 257 256 255 256 259 256 256 265
311 316 319 322 326 331 335 338 347 367 381 335 323 317 306 295 288 305 317 312 297 287 281 278 270 275 278 277 282 279 271 266 266 272 275 275 274 274 277 280 277 276 286

GFSGL_2pvu_pres_099.txt.gz
Presure
229 250 244 239 232 239 209 189 217 197 195 205 170 191 212 222 230 219 234 284 260 247 226 236 233 226 225 232 224 213 205 192 191 187 183 182 177 170 196 202 202 192 189
238 238 222 209 207 199 186 214 191 209 193 197 162 207 193 332 309 278 260 248 245 245 242 238 234 237 222 237 215 210 213 211 207 211 211 206 211 205 214 192 198 196 188
225 209 202 201 205 211 193 206 186 185 195 202 203 192 283 273 256 249 239 232 229 219 225 222 220 220 223 227 247 211 213 205 203 200 196 201 202 205 202 200 200 164 192
222 212 203 200 192 201 196 205 195 192 194 198 199 197 255 210 209 227 218 217 218 216 209 213 212 211 210 218 235 217 236 209 207 201 199 200 203 201 198 194 193 191 190
213 210 203 194 190 204 194 182 197 201 193 190 192 195 222 215 212 213 210 161 210 214 214 203 205 236 203 202 203 213 208 226 218 205 204 203 209 194 193 188 186 197 192
206 190 192 205 189 212 205 177 211 217 215 188 206 179 190 210 207 208 200 206 214 205 202 206 213 235 235 246 206 199 203 198 198 199 203 200 192 195 191 197 190 191 226
201 198 201 220 189 200 208 210 197 183 201 188 204 185 177 188 203 219 197 204 204 199 197 204 227 230 224 228 233 222 196 190 194 203 203 204 193 195 202 213 217 209 189
208 208 214 217 208 209 192 185 220 184 193 194 182 208 201 199 194 214 222 201 190 208 200 203 204 186 218 188 221 219 223 212 224 196 215 219 225 218 208 202 195 206 200
189 205 188 197 198 195 200 189 194 193 183 164 191 203 198 191 221 175 215 218 193 191 203 196 193 201 210 219 217 209 208 187 177 195 205 203 205 198 185 181 195 196 193
195 191 205 192 190 194 192 187 197 197 196 182 199 198 177 210 197 209 192 216 212 200 192 186 197 185 191 204 219 208 213 208 198 204 204 192 192 195 195 175 183 211 202
204 205 191 202 196 191 197 194 199 191 201 198 204 197 205 199 197 220 186 224 217 209 202 194 184 196 196 195 191 205 208 203 208 204 201 202 202 207 208 198 173 193 177
204 203 211 190 203 192 198 197 216 202 192 185 202 170 191 203 202 176 200 207 206 203 204 200 197 193 190 196 194 194 194 197 194 193 197 197 196 194 189 185 184 182 183
204 198 203 203 193 203 194 191 188 189 189 213 192 202 213 167 182 201 176 201 176 203 203 203 197 205 189 194 180 188 192 197 193 193 196 194 193 195 192 195 194 185 186
206 207 201 204 212 201 209 204 203 200 208 205 210 209 209 210 204 203 196 212 182 204 185 171 180 184 213 191 192 212 183 190 190 191 193 196 193 192 196 190 194 189 193
216 213 209 207 205 199 198 204 210 196 207 210 192 196 208 209 200 205 205 191 211 196 215 161 185 176 192 199 187 181 223 200 204 187 181 185 187 194 198 193 195 179 187
222 224 215 205 212 202 211 203 193 205 203 200 209 203 206 205 202 205 203 207 211 190 205 214 214 217 220 199 227 206 209 202 189 198 191 216 208 205 201 195 196 195 193
227 222 232 217 218 213 215 203 209 206 207 204 205 204 205 199 196 195 197 197 191 207 224 207 195 217 230 195 184 253 247 214 229 214 193 223 223 216 213 214 203 209 206
239 229 226 228 206 219 220 213 220 215 207 197 195 223 227 219 215 219 219 216 222 218 205 222 218 227 230 218 237 228 251 244 233 200 238 232 226 230 218 208 219 217 215
247 243 225 220 233 233 227 227 227 218 216 213 222 213 222 219 218 222 214 220 219 222 217 220 215 227 230 241 230 226 246 266 244 240 252 243 231 237 233 221 218 218 217
322 302 246 248 251 226 228 236 240 230 229 228 229 228 233 223 224 228 228 226 227 226 227 228 227 230 244 232 241 221 228 215 263 246 246 242 232 231 234 235 233 231 236
319 294 328 335 253 240 255 242 246 239 241 251 236 230 228 239 238 230 228 233 235 231 228 228 238 241 236 238 249 239 244 226 241 242 268 255 251 244 241 247 246 240 241
320 283 298 322 287 312 354 335 343 341 303 267 254 254 250 242 242 241 240 239 241 242 248 247 241 241 244 252 249 244 237 241 234 244 243 239 259 249 260 260 248 240 243
279 308 315 291 309 329 332 338 339 336 340 340 333 326 317 286 276 270 267 265 264 262 261 264 263 256 254 252 248 248 248 243 241 246 249 252 243 248 263 257 256 257 258
317 296 293 296 305 312 317 323 330 332 332 290 319 297 312 333 326 322 325 320 299 283 275 270 268 265 264 260 257 247 243 260 265 263 258 256 255 252 248 250 261 268 262
358 354 358 320 310 313 310 337 341 321 322 327 332 331 327 330 322 296 299 305 319 321 316 315 316 300 291 279 275 277 275 277 259 259 259 261 265 258 256 254 250 249 255
325 327 333 338 341 341 345 352 354 343 343 342 333 329 329 333 332 329 327 327 325 301 306 310 309 305 303 305 310 308 305 296 291 293 277 278 273 276 276 270 267 259 263

GFSGL_2pvu_pres_102.txt.gz
Presure
286 252 240 262 243 246 274 263 266 260 223 213 199 198 187 201 204 184 190 192 201 202 198 198 202 220 273 257 239 215 202 208 200 192 194 193 193 204 189 190 185 183 169
252 238 232 239 245 257 248 233 245 245 220 212 202 198 177 184 165 169 179 221 210 204 217 218 223 268 247 246 236 224 211 199 193 205 197 195 186 191 193 184 181 190 187
237 237 236 245 246 233 222 212 203 224 218 196 189 193 210 197 190 177 170 195 211 282 293 240 252 250 229 230 236 226 225 213 199 193 205 192 194 190 189 191 192 191 190
221 239 241 223 223 229 218 218 218 214 217 204 214 176 193 198 202 195 199 279 271 263 256 247 246 230 238 225 212 226 235 221 213 204 197 195 199 196 192 193 203 206 205
226 230 227 228 227 217 205 213 217 214 208 208 205 187 196 209 203 182 253 250 239 237 241 225 221 222 215 225 227 219 238 248 228 232 212 207 205 206 211 205 201 197 194
227 225 219 218 222 215 205 204 209 199 193 194 195 188 217 184 209 210 218 219 220 211 217 217 205 215 212 211 205 209 205 214 215 242 211 209 204 197 200 197 196 196 198
220 228 221 215 212 216 192 198 204 183 198 206 209 208 171 187 184 184 196 216 214 185 210 210 205 208 209 212 239 214 254 200 199 208 221 223 217 212 210 199 193 195 197
214 218 219 197 215 214 186 202 207 202 198 194 193 185 193 196 201 197 192 190 206 213 199 203 205 201 203 183 230 231 233 235 223 192 194 200 202 211 211 213 215 212 194
222 221 215 190 198 209 181 185 198 205 196 196 207 180 217 184 204 185 195 183 181 195 215 201 205 211 201 194 198 203 218 223 219 215 207 215 193 195 198 190 191 193 188
225 221 217 203 204 207 192 185 191 194 186 205 199 209 183 201 200 201 200 203 202 184 194 213 206 199 203 200 198 184 223 225 211 189 217 217 211 210 206 227 191 214 201
221 206 211 194 203 201 192 189 191 203 184 195 184 191 179 171 197 187 194 183 189 191 204 182 213 212 203 205 187 196 192 200 193 200 227 213 210 205 208 206 195 199 204
211 214 206 204 192 192 202 187 214 188 203 199 190 197 191 177 184 205 209 190 206 210 223 240 191 190 212 206 200 197 182 179 192 195 194 196 206 198 203 210 204 207 211
216 208 213 213 203 197 191 211 191 197 199 191 191 197 200 204 211 205 200 203 169 208 195 204 220 191 195 210 205 198 200 198 200 197 188 191 191 185 192 191 191 191 193
221 214 209 213 194 211 207 194 198 201 183 191 192 192 193 190 195 198 200 181 194 203 212 207 217 175 197 213 202 193 204 191 181 179 194 198 196 179 192 191 197 189 198
219 219 213 211 214 205 196 201 202 195 200 193 199 201 190 186 186 195 193 208 201 210 193 196 213 219 186 210 207 195 204 188 205 201 192 190 207 191 173 183 195 199 191
236 216 212 216 210 211 209 204 202 200 203 202 198 200 199 201 206 205 200 214 204 210 193 212 216 192 211 214 211 216 195 212 190 196 185 180 182 195 210 186 189 179 179
228 236 226 205 207 213 211 210 214 209 203 183 202 202 198 201 204 205 206 209 207 203 203 215 215 207 213 204 196 211 192 202 200 184 179 171 187 214 166 199 218 258 231
233 238 233 238 223 218 211 214 215 204 211 213 206 206 209 207 216 206 203 211 215 216 210 213 219 209 201 207 195 211 189 211 212 191 213 189 219 218 224 203 209 216 238
243 240 239 237 236 237 225 222 216 215 217 213 210 207 207 205 210 209 216 215 214 214 208 213 204 207 209 211 214 216 219 216 214 218 204 212 222 221 225 216 230 212 200
326 302 251 250 244 238 246 240 231 227 222 221 217 220 217 217 217 217 216 215 215 214 214 217 218 213 208 214 212 216 221 226 221 224 228 221 220 219 221 225 216 228 234
332 337 307 244 254 252 253 238 251 247 235 228 235 232 228 227 228 225 225 225 216 213 219 223 227 227 221 227 226 228 229 223 213 225 226 230 227 223 224 230 228 228 244
283 298 313 321 333 315 294 263 260 226 235 252 250 244 240 241 230 235 236 231 237 237 233 231 225 228 226 228 233 235 232 238 238 240 236 232 236 238 236 240 235 236 247
293 254 265 300 302 309 321 332 317 341 312 271 267 246 246 243 230 245 236 241 229 230 237 242 226 225 227 240 240 239 241 239 239 252 233 235 237 233 232 242 243 250 246
287 287 282 282 287 293 302 356 323 379 325 335 341 347 344 312 303 273 266 263 242 245 255 254 254 255 255 253 254 254 253 254 253 251 247 238 240 244 250 254 256 260 264
320 356 354 352 356 358 358 358 360 361 365 368 380 336 332 338 343 346 314 348 349 346 249 242 261 277 277 274 278 278 277 274 271 268 268 267 268 271 275 275 276 272 267
344 349 356 372 448 549 544 540 535 531 525 443 430 375 366 368 340 320 320 324 334 338 340 341 341 340 337 334 333 336 339 289 288 314 313 315 315 312 315 313 313 312 309

GFSGL_2pvu_pres_105.txt.gz
Presure
370 279 280 274 260 235 236 223 229 326 311 248 304 230 224 217 213 211 201 194 194 207 203 206 183 201 212 190 177 195 208 180 214 199 199 199 193 193 193 192 190 197 193
295 270 279 262 251 229 227 228 231 290 225 224 236 234 226 211 204 202 200 264 204 204 211 195 198 214 200 195 200 201 212 217 278 220 204 197 194 192 195 188 189 185 206
273 273 257 249 251 237 257 229 237 237 275 212 261 228 213 201 209 199 183 163 165 188 201 217 220 202 195 208 213 194 217 251 270 228 212 203 200 190 190 204 196 188 183
263 264 239 234 245 235 243 247 245 244 230 257 214 220 194 210 187 193 196 196 222 183 201 192 228 200 212 214 231 246 243 263 253 228 211 199 204 202 196 191 192 192 190
262 240 238 225 238 249 218 227 222 219 225 231 212 214 194 194 196 202 176 190 197 200 187 222 201 261 272 220 263 256 243 237 247 232 217 205 203 203 195 196 195 192 193
244 238 228 220 240 223 227 219 214 216 219 223 224 213 191 196 171 159 223 184 186 216 204 207 252 249 244 242 242 242 236 219 226 244 228 223 214 214 209 206 191 194 210
239 227 227 218 247 217 224 211 215 210 221 223 216 205 203 199 196 207 203 204 171 215 235 226 231 224 219 217 222 230 220 232 237 233 229 237 239 240 218 203 193 192 193
236 228 224 215 238 225 222 197 237 216 212 204 171 206 179 205 176 202 173 199 188 184 185 183 225 213 207 207 206 205 210 201 197 198 202 209 208 218 231 235 205 201 201
237 229 219 218 224 223 214 209 236 215 218 203 206 191 191 195 196 199 203 209 215 190 192 193 177 219 215 206 207 196 209 211 227 238 209 266 214 199 199 198 207 230 223
237 230 214 219 219 221 220 219 210 193 213 189 211 206 203 202 201 203 203 199 183 192 203 200 205 179 189 205 193 182 208 199 201 213 222 201 219 223 221 190 189 196 193
235 233 222 228 219 221 224 216 216 209 209 202 183 202 204 201 192 193 190 189 182 187 205 182 191 202 211 188 210 206 194 205 200 181 211 207 207 210 219 212 211 214 207
231 235 216 219 225 211 215 221 211 210 204 202 180 181 179 204 203 187 193 203 204 213 189 187 193 197 198 206 202 188 210 205 199 196 191 191 194 214 206 212 202 200 209
237 234 229 218 208 225 203 216 217 202 205 189 196 183 181 183 182 199 183 192 199 179 165 180 184 209 212 193 193 190 208 192 213 204 193 200 189 183 177 198 197 197 199
242 230 217 223 201 215 228 194 212 208 204 196 202 200 188 186 204 193 203 187 195 205 160 212 203 207 201 183 202 211 231 196 206 196 203 204 203 201 194 191 190 185 190
235 240 228 203 223 210 220 216 202 211 201 200 194 194 193 191 186 200 195 195 199 203 191 200 196 207 174 179 175 197 182 185 201 193 189 186 205 197 197 194 195 198 185
241 237 228 232 218 229 218 223 212 207 212 202 195 193 197 202 200 202 209 202 208 201 190 172 193 173 165 204 185 215 217 206 199 201 178 201 187 208 185 187 203 195 188
241 248 239 243 229 227 224 223 214 210 206 203 207 202 204 204 206 195 206 204 202 206 172 202 204 200 206 206 181 215 195 227 187 178 174 181 216 198 206 186 198 191 222
252 244 249 242 244 233 230 228 220 214 213 211 211 211 217 205 200 201 207 203 203 201 204 204 209 212 210 212 212 202 199 178 192 216 218 224 214 183 217 205 211 214 196
265 255 248 250 249 243 241 228 229 229 217 215 219 217 214 210 203 210 212 212 209 209 213 213 210 212 214 206 216 211 212 202 219 206 214 221 228 220 216 188 176 220 216
338 280 304 219 251 247 251 242 243 234 227 233 230 228 221 223 221 216 216 219 220 223 217 215 215 219 224 224 225 221 216 217 217 217 217 217 222 214 214 210 207 207 185
256 311 278 326 277 263 252 195 195 249 243 240 236 237 230 230 236 229 227 226 225 219 223 214 214 217 215 215 214 213 214 216 226 218 217 226 227 230 226 222 222 224 216
285 291 301 312 319 322 321 310 272 254 259 260 252 247 242 240 239 235 232 235 239 235 237 232 230 228 227 226 226 227 226 226 225 224 219 223 217 216 212 225 225 227 229
272 277 281 286 295 313 317 327 334 339 328 304 266 263 258 266 257 248 240 241 240 240 240 240 241 238 236 234 234 222 222 222 222 224 220 219 225 227 234 228 225 226 227
260 281 285 296 302 307 321 334 355 378 329 390 318 321 341 337 278 268 267 267 263 258 253 247 239 238 222 223 248 247 239 228 228 229 230 230 234 236 235 232 235 220 226
275 279 291 294 366 383 393 414 522 515 511 509 508 512 421 415 346 337 340 382 305 275 272 270 267 260 257 256 252 233 233 234 235 236 238 237 238 241 242 242 241 237 229
267 290 345 381 443 495 483 472 458 452 447 448 454 459 463 465 471 479 510 523 442 387 370 368 350 342 298 275 270 270 269 265 263 259 258 257 257 256 254 257 258 259 259

GFSGL_2pvu_pres_108.txt.gz
Presure
231 249 224 233 276 346 306 279 244 221 242 231 228 238 266 345 250 248 242 253 229 202 198 210 208 215 195 174 196 195 212 216 194 182 203 183 175 185 194 206 195 192 192
247 222 238 272 365 294 280 268 246 243 225 225 214 228 332 247 243 238 229 223 213 212 197 186 180 205 180 222 215 205 192 197 214 191 187 180 187 179 172 186 182 204 193
241 260 278 252 302 290 275 265 226 233 227 219 220 205 230 260 218 233 227 224 217 196 197 221 198 194 141 193 215 193 197 190 193 178 173 197 195 190 192 188 194 195 191
265 289 276 324 276 273 271 251 228 222 233 225 224 209 227 222 209 212 209 205 212 183 163 173 205 206 203 218 217 222 214 190 183 169 170 185 200 181 189 196 210 197 191
278 264 300 280 278 259 261 233 233 248 221 217 221 209 216 221 215 207 206 200 204 211 174 187 158 169 200 188 189 188 200 190 181 214 214 210 225 220 258 251 216 205 200
250 273 311 271 259 250 245 236 249 217 247 215 208 211 214 215 221 196 199 201 193 201 203 237 191 189 226 185 206 204 206 225 296 293 226 281 253 260 235 230 219 207 202
282 283 272 264 252 239 233 217 244 220 228 223 220 210 221 227 198 206 205 197 197 195 203 204 196 184 185 189 231 262 261 256 248 253 247 241 251 237 231 220 223 208 202
278 295 257 252 240 240 228 239 235 232 226 229 224 232 235 209 193 191 202 187 179 172 193 193 194 188 189 199 187 212 239 231 235 239 242 232 223 240 231 224 224 221 216
330 339 255 250 237 229 217 237 224 228 217 221 232 232 215 212 204 208 211 193 188 195 203 205 205 162 212 203 182 188 206 221 213 213 217 211 222 236 226 230 245 233 201
355 265 248 247 238 227 219 231 215 223 222 228 217 224 228 214 191 204 195 206 193 171 181 178 176 192 201 201 205 199 182 203 197 188 203 201 207 208 205 211 213 207 209
302 263 242 244 234 229 219 237 216 220 225 228 210 210 212 214 213 208 204 185 177 171 174 193 188 194 203 202 210 191 204 192 188 200 196 192 207 208 211 209 222 237 237
276 260 238 239 235 226 215 245 224 212 217 212 214 218 211 212 217 207 202 201 194 203 203 200 204 200 206 193 186 190 188 205 196 222 198 191 202 207 214 199 220 201 207
262 252 239 239 234 227 222 227 233 224 214 221 225 213 203 218 204 205 206 204 208 210 205 196 199 198 206 212 187 212 207 210 198 183 219 201 183 213 203 205 201 196 191
255 246 248 233 228 228 233 223 235 225 212 218 223 231 201 211 210 205 204 193 190 205 211 207 195 191 204 203 192 179 226 192 182 205 204 199 192 190 200 190 206 204 201
252 248 240 246 235 233 228 231 224 228 222 214 222 214 215 212 203 205 209 205 195 183 189 190 189 157 211 208 193 199 191 204 198 209 191 210 196 201 197 197 197 207 193
251 251 241 247 240 238 233 217 230 219 217 231 216 218 215 214 208 201 202 202 205 210 211 200 202 200 191 194 198 211 199 215 202 214 190 183 214 197 202 198 198 208 210
259 253 248 240 248 233 239 225 228 228 223 222 228 220 214 214 213 206 205 208 195 200 201 202 201 193 205 205 217 188 205 197 215 184 204 179 199 192 186 211 183 185 179
269 262 252 249 240 246 240 232 242 234 239 224 235 215 226 212 208 213 217 209 203 205 204 204 205 206 204 212 211 203 204 206 206 212 170 163 203 213 205 186 222 215 179
288 278 264 254 228 243 246 252 222 245 228 238 238 228 227 228 227 211 214 220 217 218 203 203 204 203 201 202 203 208 203 204 211 212 215 197 209 219 199 219 205 197 185
320 339 329 274 263 256 254 244 249 252 240 247 233 241 238 227 226 229 229 224 218 217 215 215 216 216 218 218 216 216 217 217 217 221 221 221 215 216 213 215 214 204 205
299 305 312 317 294 319 274 267 255 258 207 207 251 242 240 246 246 240 230 228 229 235 216 215 217 223 225 225 224 221 218 218 224 219 223 225 224 226 230 228 225 190 192
284 283 271 286 289 297 302 309 317 319 301 271 267 267 259 265 220 250 245 250 242 243 229 225 227 234 234 232 234 231 224 222 224 226 225 223 220 219 217 215 211 221 213
271 273 272 272 282 285 287 290 299 308 320 334 348 358 302 281 276 274 267 256 252 251 253 245 241 236 237 238 237 237 235 238 237 232 228 227 227 227 227 226 228 227 230
263 265 262 264 277 282 288 294 307 320 378 366 473 499 496 474 500 485 329 287 281 277 268 259 255 253 253 250 244 241 239 238 238 238 237 235 236 236 235 233 228 226 225
256 254 263 272 284 279 280 297 487 463 452 441 436 436 441 447 452 461 465 468 481 498 331 302 284 280 270 261 255 253 253 252 252 251 250 247 247 244 240 237 237 237 237
260 267 270 288 304 314 329 461 441 419 406 398 400 418 422 417 420 425 431 442 440 445 458 472 478 497 532 386 288 279 274 270 266 261 256 254 251 249 245 244 242 241 240

GFSGL_2pvu_pres_111.txt.gz
Presure
255 244 258 269 266 264 236 267 271 261 335 328 265 273 277 232 221 227 233 247 256 287 228 243 194 243 227 220 245 178 207 204 206 201 208 207 208 222 212 214 197 203 195
235 234 249 228 225 249 257 267 267 341 327 294 244 233 249 242 216 205 239 296 308 248 235 221 205 223 234 210 203 215 206 199 150 193 195 209 178 219 183 211 196 205 201
257 244 244 244 260 281 279 274 306 340 293 260 234 243 252 217 222 293 239 294 308 282 250 226 234 228 221 206 178 224 233 190 191 198 163 195 199 191 224 194 198 184 185
252 239 237 247 250 267 274 297 344 295 279 242 239 233 229 236 212 239 216 238 213 235 240 229 234 204 204 188 179 230 216 192 196 205 221 185 195 202 179 188 206 179 185
249 246 240 250 263 282 261 276 301 280 267 257 212 226 210 214 208 227 228 217 218 226 223 216 210 190 205 199 195 204 225 206 202 224 208 210 190 191 207 185 182 182 169
241 248 261 272 287 268 253 312 277 275 255 227 216 240 212 224 211 217 234 205 192 213 222 212 194 214 161 160 157 232 224 204 225 196 219 201 192 172 187 175 169 186 177
255 268 282 280 272 253 266 293 264 255 245 225 229 223 225 226 219 234 224 208 210 214 213 201 223 203 202 151 172 169 202 181 183 192 195 182 184 187 188 178 180 181 179
266 271 271 257 260 277 285 264 254 249 242 227 228 220 230 213 209 222 209 217 204 208 201 210 209 200 213 213 191 156 187 189 196 197 203 241 290 279 183 233 273 244 262
260 262 266 265 266 282 286 264 251 241 230 224 246 208 221 212 200 197 201 218 210 218 192 194 195 197 202 187 206 238 176 191 193 208 194 207 241 261 251 245 242 241 245
268 269 267 268 277 300 266 257 251 239 230 235 227 215 223 218 204 187 206 210 219 209 184 192 210 224 167 166 190 198 183 195 207 197 190 192 209 222 217 243 233 231 216
326 329 353 356 334 332 264 252 247 233 230 229 236 212 217 224 234 208 211 224 203 211 208 202 188 211 203 178 195 203 205 180 191 205 191 200 193 208 213 214 210 205 209
313 321 318 315 303 286 254 251 241 238 224 231 228 221 229 224 225 235 216 217 217 214 207 202 205 200 192 193 191 195 197 172 196 200 197 215 191 204 209 203 196 201 205
288 295 291 277 279 254 250 249 238 236 227 227 219 224 217 221 228 225 229 219 219 203 205 200 192 199 204 208 198 194 201 197 197 200 183 215 199 198 195 223 225 189 215
281 284 276 275 277 248 249 244 239 234 229 221 218 222 209 211 225 230 210 230 215 213 213 206 206 207 200 211 195 203 191 194 202 209 189 216 196 213 200 195 205 192 206
279 272 270 274 269 248 248 229 245 235 242 224 211 230 230 209 218 227 218 232 216 213 216 204 212 209 202 218 207 212 207 205 210 201 201 209 203 217 196 208 192 187 201
273 268 270 269 268 249 246 240 240 241 232 242 223 221 221 221 209 222 224 209 217 231 202 214 206 223 223 209 190 220 215 215 217 216 178 210 180 212 203 190 209 186 180
271 270 272 269 265 252 249 236 247 240 228 240 220 241 216 230 218 192 218 225 216 221 223 210 207 215 195 213 214 216 208 194 189 194 205 210 180 187 201 210 193 184 227
277 273 273 276 273 263 259 251 240 240 243 236 241 237 238 256 239 228 225 229 217 226 232 225 225 216 226 217 214 211 219 216 217 215 214 216 201 200 206 194 201 216 217
265 272 284 281 279 270 261 261 255 252 250 243 238 248 241 238 244 231 240 235 233 226 230 229 225 224 216 212 220 222 217 225 212 214 209 214 218 215 189 213 214 211 194
317 323 328 320 301 309 293 270 260 258 256 260 255 248 240 244 253 249 236 252 242 228 229 227 230 221 216 218 224 225 225 224 222 217 214 212 212 211 210 207 173 209 207
280 281 292 294 298 300 301 294 306 300 274 265 261 260 259 262 248 238 241 252 251 249 254 237 229 230 238 230 228 226 225 226 225 221 219 215 216 218 227 224 218 216 205
273 271 273 275 276 281 285 290 297 302 310 317 323 303 284 254 257 260 272 262 257 254 250 251 253 247 240 239 232 229 226 224 230 226 226 225 224 223 223 219 211 216 216
258 260 261 262 263 266 273 276 277 284 287 289 298 308 319 333 348 362 326 302 285 276 267 261 255 234 207 227 251 245 238 235 237 238 232 229 226 224 225 224 226 228 228
245 250 258 260 261 261 260 270 277 278 282 300 313 336 313 448 436 449 444 438 446 457 441 331 282 276 267 266 263 253 252 253 252 251 248 238 235 235 237 239 239 237 236
257 253 256 254 255 267 267 265 265 291 309 316 334 459 442 432 428 431 434 421 419 422 439 440 448 457 470 300 282 281 277 267 265 258 246 241 241 246 248 246 245 243 239
252 253 253 256 273 273 269 270 286 301 308 332 434 421 422 464 488 485 481 472 458 458 467 465 458 441 437 446 456 460 360 286 281 281 278 267 262 257 254 252 250 246 244

GFSGL_2pvu_pres_114.txt.gz
Presure
254 251 251 193 275 280 206 237 220 212 235 266 242 269 256 282 246 280 296 321 286 262 250 236 199 251 222 241 200 270 257 225 228 207 302 247 233 224 205 207 220 201 219
243 243 244 261 240 236 190 263 246 248 262 258 250 273 317 275 324 265 265 256 254 222 229 201 216 219 212 248 251 255 236 205 241 235 257 175 217 227 206 217 196 206 244
244 251 249 251 240 240 243 240 248 253 168 249 257 279 291 364 252 249 260 250 243 238 219 216 250 272 229 294 194 214 239 229 242 284 226 228 222 219 210 197 203 204 231
233 243 241 233 245 250 243 245 244 230 240 249 260 295 299 274 243 245 246 235 241 251 231 251 265 285 250 265 210 211 211 231 248 270 188 209 207 207 192 209 197 198 213
252 253 253 252 236 239 238 238 245 257 255 260 280 327 302 240 230 230 230 220 215 233 227 239 240 232 216 239 218 201 219 234 210 188 207 203 217 158 179 169 207 198 200
246 228 227 236 238 239 236 236 252 245 245 308 283 313 264 240 233 219 222 207 209 234 237 223 229 230 222 215 219 221 210 245 229 192 187 219 223 184 203 201 189 183 194
268 261 243 243 237 238 243 261 268 290 297 279 303 290 239 226 222 219 228 210 214 220 228 213 210 244 233 223 238 235 228 226 204 202 198 216 206 194 185 205 203 186 194
270 265 270 276 284 286 282 282 279 278 252 274 291 271 239 227 215 235 215 238 198 225 226 183 217 222 209 237 227 179 181 179 223 209 196 221 199 205 204 188 213 212 196
267 269 264 259 261 262 261 267 259 274 261 272 278 246 241 219 216 209 208 237 208 213 220 204 210 211 206 201 206 178 170 203 164 191 169 170 180 184 178 168 200 173 253
257 257 257 259 261 263 264 269 273 254 280 293 265 245 232 218 212 205 213 216 211 213 218 207 208 208 205 197 207 200 179 205 156 156 190 162 178 174 173 198 204 182 186
262 257 258 259 263 271 274 277 286 320 275 310 254 240 235 224 215 204 218 213 236 231 186 212 223 212 212 209 206 206 184 181 205 197 170 171 157 177 182 195 202 222 194
351 344 338 332 326 326 317 319 323 318 297 264 251 241 238 223 213 215 209 203 212 222 217 202 208 183 206 195 197 198 194 195 194 190 195 186 200 199 184 188 197 205 205
308 305 295 310 307 315 316 306 288 279 288 254 244 237 234 235 216 223 215 211 203 213 207 209 224 223 199 224 210 200 198 201 202 183 176 171 206 202 201 206 191 205 201
285 279 276 278 296 293 293 285 277 274 267 249 244 227 235 230 224 235 221 217 210 212 206 209 218 222 208 185 203 216 215 201 202 215 205 187 205 197 201 205 195 203 191
274 267 269 267 282 273 268 271 269 268 259 246 242 236 228 231 223 235 227 218 221 208 223 210 205 205 204 205 208 222 203 204 208 220 225 216 192 182 198 206 195 197 206
272 266 264 267 272 265 276 262 266 265 256 248 239 244 229 230 220 229 234 224 215 217 225 224 223 217 212 212 218 211 196 205 213 218 207 210 207 208 220 208 197 218 203
280 266 263 267 264 265 269 272 270 267 262 250 253 242 248 228 241 225 227 242 225 223 224 235 218 238 224 217 220 226 226 217 212 218 209 219 200 203 214 205 218 213 211
265 271 271 267 270 270 269 274 275 277 265 256 251 257 254 243 235 247 237 233 239 225 223 233 248 230 230 238 232 222 223 232 221 221 223 217 222 219 197 196 189 186 175
262 276 274 281 289 297 281 285 280 282 283 271 253 259 259 253 247 243 241 238 241 230 231 237 236 230 235 242 235 238 245 216 234 225 222 210 214 214 223 228 218 212 209
282 317 316 309 304 299 300 305 308 313 313 268 288 258 248 255 262 257 255 243 241 244 239 249 245 228 228 226 225 236 241 232 241 241 224 222 217 216 216 222 222 217 212
286 286 281 279 278 278 277 276 279 285 290 299 305 318 310 246 263 265 253 268 257 255 254 236 235 241 240 242 243 232 230 230 234 227 218 236 238 228 225 227 230 223 231
268 267 266 265 265 265 267 269 271 271 274 275 282 290 301 311 319 316 284 279 251 239 262 261 265 264 257 254 247 228 220 239 232 232 236 239 238 235 234 231 244 228 227
267 253 261 257 262 262 263 265 268 271 274 276 282 287 289 292 299 303 312 324 342 353 334 297 281 280 250 245 269 265 262 255 245 231 239 232 231 228 228 226 223 228 230
260 262 255 253 257 258 256 257 263 270 274 274 282 289 301 308 306 305 312 348 438 437 342 356 359 360 364 307 296 289 278 274 267 265 260 252 249 247 244 244 241 239 238
253 254 262 246 257 257 259 261 262 257 264 270 284 307 302 306 351 446 440 527 516 508 503 505 510 502 494 477 461 454 453 316 292 280 278 272 263 262 259 250 244 244 247
250 248 245 243 241 254 250 257 265 274 275 277 348 315 309 431 411 402 490 483 477 472 468 465 469 474 483 492 483 463 470 474 446 442 347 293 283 278 273 266 262 260 254

GFSGL_2pvu_pres_117.txt.gz
Presure
136 174 232 254 259 263 260 229 179 265 277 193 238 256 228 239 209 184 255 251 190 242 280 281 320 300 317 298 298 275 263 258 234 217 208 225 211 215 192 257 206 318 284
262 254 260 254 260 251 248 249 171 247 250 234 237 233 234 238 255 234 206 278 275 291 340 283 316 291 267 263 259 255 241 225 227 225 219 222 239 217 250 255 199 266 253
246 248 245 250 250 255 226 244 244 236 194 240 249 209 253 246 242 245 267 260 274 327 280 276 267 264 251 242 247 242 234 239 236 215 183 251 288 238 235 223 217 244 239
234 244 240 245 249 165 242 249 238 236 223 246 243 238 253 263 261 208 263 273 302 280 263 264 252 244 243 229 219 201 203 214 226 220 272 243 206 227 256 248 237 204 214
248 244 239 250 252 246 241 234 229 245 250 238 238 245 240 241 251 238 257 307 304 253 252 256 243 231 227 224 215 221 215 251 276 211 252 197 198 228 268 238 204 204 220
248 256 234 249 250 239 241 253 229 239 242 239 257 243 250 243 263 263 307 322 259 243 237 224 227 223 262 235 236 248 250 269 242 249 209 216 201 285 245 203 168 221 211
254 253 239 244 240 247 251 251 255 252 254 253 249 253 241 262 250 259 276 267 247 236 238 237 232 228 203 215 210 222 216 229 234 244 175 209 199 270 228 205 208 220 203
301 317 283 260 262 279 275 271 240 257 263 244 245 249 252 277 279 272 310 250 239 231 230 230 210 210 210 200 233 223 214 221 205 213 225 182 210 245 186 178 207 182 207
265 280 289 282 272 269 273 276 281 277 281 284 281 279 278 264 265 288 262 243 235 227 223 233 225 196 239 207 221 210 235 215 216 211 218 227 167 210 169 179 173 203 200
255 254 253 255 254 254 254 256 257 262 262 263 264 259 262 254 253 279 248 230 233 222 217 237 221 209 237 224 214 186 221 227 216 228 234 207 223 218 198 218 225 195 214
269 264 259 257 258 259 259 258 260 262 265 268 267 266 274 261 274 264 246 229 230 216 215 202 205 202 209 214 223 231 215 205 211 197 185 183 210 199 181 184 161 197 182
364 355 364 334 298 293 288 279 272 272 274 307 323 354 347 255 295 255 234 224 223 220 218 216 198 211 234 220 212 223 204 223 211 204 196 180 180 176 179 166 192 182 184
323 326 327 318 314 317 327 313 333 322 310 314 308 297 286 267 277 251 227 228 220 216 217 210 204 205 210 207 181 195 229 223 207 209 213 195 197 200 197 203 185 196 175
293 294 292 287 289 290 296 303 298 305 299 294 284 272 273 279 265 247 230 230 217 215 214 207 203 203 204 208 194 214 202 214 218 209 207 210 181 208 201 203 206 200 180
276 275 274 272 271 272 272 274 271 276 280 276 274 262 264 270 258 247 232 237 226 221 215 212 203 205 211 225 209 212 216 214 223 209 209 216 216 215 217 198 205 203 193
269 268 268 264 262 261 264 265 260 267 265 269 267 266 263 266 257 249 245 238 236 230 219 220 213 213 211 215 206 218 217 217 201 205 215 183 203 213 211 208 207 210 216
268 259 262 265 259 260 261 259 265 267 266 270 272 267 268 268 258 256 244 243 238 237 229 216 220 212 215 230 217 212 212 227 203 200 232 234 226 211 222 220 206 217 215
260 260 258 256 270 276 267 263 263 268 272 277 279 270 275 276 270 255 259 250 246 237 239 229 240 223 220 222 219 223 224 216 220 224 215 226 224 213 213 210 219 220 216
262 262 259 269 267 260 274 282 285 286 289 297 283 284 285 285 284 271 260 243 256 248 247 249 241 230 226 241 229 225 222 219 223 223 213 212 212 211 211 213 211 219 223
268 280 278 314 315 301 293 296 294 291 278 290 276 281 290 317 316 296 282 243 267 264 255 251 253 245 240 242 246 239 232 227 229 222 217 220 219 224 217 217 220 222 223
288 300 298 287 284 282 283 280 280 282 284 285 285 287 289 294 299 304 283 330 318 262 276 232 261 258 254 254 246 243 241 244 240 242 236 242 238 238 242 238 235 241 245
304 285 274 274 270 269 268 267 269 266 265 265 265 266 269 273 279 284 290 296 308 321 335 298 281 288 280 268 268 259 252 251 254 251 243 243 240 234 243 241 237 229 232
292 278 276 266 266 261 267 262 257 253 256 260 261 262 267 272 274 276 273 272 280 285 292 303 320 338 316 283 284 258 269 269 266 256 254 252 243 246 227 236 243 245 240
287 270 266 256 259 260 251 253 251 247 250 254 253 263 265 262 278 279 299 374 386 369 348 334 331 330 327 343 344 359 287 293 255 256 267 255 242 233 250 248 248 244 230
267 263 256 260 251 250 255 260 260 251 252 253 252 262 284 281 293 374 372 354 326 441 428 421 421 482 495 488 484 383 343 341 355 358 320 298 259 254 262 266 243 233 247
256 256 258 248 245 249 245 241 253 253 257 266 278 275 289 390 361 361 319 442 426 414 408 419 507 471 471 475 471 467 467 468 474 391 334 348 360 335 293 292 289 282 273

GFSGL_2pvu_pres_120.txt.gz
Presure
264 201 258 254 192 261 249 277 265 248 287 269 229 243 173 241 241 203 171 198 179 160 213 196 174 233 202 178 225 169 281 331 312 333 317 275 253 259 255 233 247 214 215
254 264 250 263 261 281 268 261 254 267 259 265 258 235 242 229 133 267 157 222 226 199 224 246 251 244 202 236 206 300 314 328 323 309 328 299 279 237 235 209 207 235 218
233 246 256 252 260 262 260 251 265 172 169 254 195 264 163 262 268 269 275 181 207 260 261 243 248 263 281 293 302 303 302 283 284 269 262 264 253 249 246 245 211 230 230
241 208 240 241 247 252 250 249 256 199 258 252 175 197 246 248 247 226 202 244 256 247 266 270 272 252 283 261 292 277 261 252 239 255 255 246 237 235 237 227 217 226 233
229 238 228 253 249 242 244 241 243 247 245 254 259 195 202 224 219 239 246 237 247 181 243 156 265 193 271 307 274 252 240 239 236 234 229 233 232 232 244 236 222 272 238
238 251 256 250 241 251 243 239 242 242 251 242 258 248 247 244 241 241 240 251 194 230 127 252 267 243 314 260 245 241 240 227 231 226 212 222 201 203 216 211 204 227 231
251 250 254 246 242 258 261 253 243 243 242 241 250 246 238 237 229 232 245 254 230 228 135 253 287 325 263 251 245 230 228 221 228 227 251 229 253 225 263 215 216 195 216
245 244 251 252 257 251 244 265 260 257 252 256 256 242 244 239 246 236 211 237 256 181 258 275 321 262 253 242 231 223 228 238 236 238 207 250 252 265 240 213 215 222 284
249 263 250 260 278 285 274 283 302 301 305 242 257 247 249 254 254 255 255 257 258 246 255 305 281 251 241 228 228 219 216 210 226 242 247 226 230 245 203 200 201 175 234
282 277 275 255 249 253 256 260 266 276 277 276 278 281 281 280 279 256 285 257 291 284 288 299 259 239 227 231 232 221 213 224 220 209 226 227 234 215 234 201 191 183 236
255 254 252 256 255 257 260 260 261 261 264 264 264 263 261 264 263 264 273 271 268 268 269 270 243 239 224 225 226 218 204 193 224 227 209 211 224 216 209 193 228 214 227
352 328 343 355 340 299 305 302 288 277 268 265 261 260 263 256 262 262 263 258 259 268 276 250 243 236 233 216 225 212 210 227 208 229 216 203 219 230 223 223 211 209 228
328 325 329 333 329 322 323 323 329 319 323 326 334 331 315 326 329 335 327 263 278 254 266 241 236 232 218 218 215 227 214 217 206 193 216 204 204 225 227 226 220 226 193
309 297 295 293 293 296 298 297 300 285 298 293 301 311 292 298 297 296 297 274 274 248 263 244 237 228 229 225 214 224 213 213 207 219 230 213 217 220 222 220 201 213 203
278 280 280 282 277 276 276 273 274 274 277 276 277 286 281 283 282 284 266 273 264 263 253 242 239 236 230 219 220 221 218 204 206 216 213 219 209 225 215 211 212 194 204
267 267 269 271 264 264 262 262 263 263 262 266 266 269 269 275 278 275 268 263 264 264 254 247 241 240 226 227 224 214 213 211 217 215 216 237 191 226 205 218 222 227 215
268 271 263 263 262 261 261 259 258 261 261 266 267 267 272 284 279 278 270 264 268 269 262 251 249 247 236 232 230 217 223 226 231 215 217 216 208 201 217 208 203 215 228
258 258 258 260 257 255 259 260 263 262 267 268 266 267 257 274 281 276 277 273 272 275 267 262 252 249 247 226 235 234 240 215 222 221 227 214 214 216 214 210 213 220 224
254 256 259 260 261 260 262 263 266 267 272 275 277 280 292 316 304 286 285 275 279 281 281 268 267 255 252 245 238 238 227 228 225 219 224 218 219 218 223 226 220 223 226
259 263 265 271 278 299 294 297 291 291 289 289 290 295 300 303 302 307 305 319 306 303 298 289 280 268 257 262 245 249 239 233 235 230 225 226 222 220 229 217 230 218 221
266 264 265 271 291 294 294 282 276 283 285 284 284 281 281 279 278 280 282 289 293 304 311 321 333 344 283 241 256 264 261 256 243 241 235 237 226 228 243 228 232 239 227
261 257 279 270 294 301 287 277 277 279 277 275 274 272 267 267 266 267 269 272 276 278 280 284 294 304 314 331 332 282 251 256 263 262 250 247 240 236 229 240 233 230 231
259 265 280 256 297 293 276 277 272 268 265 266 259 261 263 265 263 268 265 265 269 275 283 294 299 298 284 304 308 321 334 326 287 265 251 267 260 238 242 233 238 237 235
273 268 271 288 298 283 275 267 261 263 258 252 253 258 256 252 258 268 271 280 294 303 310 383 380 384 460 455 464 463 308 372 319 352 297 293 274 240 271 263 261 256 251
260 280 284 275 290 275 264 260 261 257 254 253 254 253 256 265 272 279 286 295 398 373 363 367 457 450 444 443 443 444 459 458 560 493 337 332 352 348 275 280 277 273 266
268 281 287 289 270 260 256 254 257 258 251 251 254 258 268 271 280 284 369 376 356 338 446 440 434 432 438 452 554 555 553 548 547 546 476 476 481 379 329 397 372 317 291